<?xml version="1.0" encoding="UTF-8" standalone="no" ?>
<gpx xmlns="http://www.topografix.com/GPX/1/1" xmlns:xsi="http://www.w3.org/2001/XMLSchema-instance" xsi:schemaLocation="http://www.topografix.com/GPX/1/1 http://www.topografix.com/GPX/1/1/gpx.xsd" version="1.1" creator="VisuGPX - https://www.visugpx.com">
  <metadata>
    <name>Sortie VTTHN du 23/11/14</name>
    <desc><![CDATA[Sortie VTTHN du 23/11/14]]></desc>
  </metadata>
  <trk>
    <name><![CDATA[Untitled]]></name>
    <trkseg>
      <trkpt lat="48.97146" lon="0.94931">
        <ele>146</ele>
        <time>2014-11-23T07:24:16.000Z</time>
      </trkpt>
      <trkpt lat="48.9711" lon="0.94961">
        <ele>146.60000610352</ele>
        <time>2014-11-23T07:24:37.000Z</time>
      </trkpt>
      <trkpt lat="48.97065" lon="0.94992">
        <ele>145.19999694824</ele>
        <time>2014-11-23T07:24:55.000Z</time>
      </trkpt>
      <trkpt lat="48.97016" lon="0.95019">
        <ele>142.80000305176</ele>
        <time>2014-11-23T07:25:10.000Z</time>
      </trkpt>
      <trkpt lat="48.96948" lon="0.9505">
        <ele>138.39999389648</ele>
        <time>2014-11-23T07:25:24.000Z</time>
      </trkpt>
      <trkpt lat="48.96867" lon="0.95075">
        <ele>136.39999389648</ele>
        <time>2014-11-23T07:25:39.000Z</time>
      </trkpt>
      <trkpt lat="48.96848" lon="0.95079">
        <ele>136.19999694824</ele>
        <time>2014-11-23T07:25:42.000Z</time>
      </trkpt>
      <trkpt lat="48.96842" lon="0.95082">
        <ele>136.19999694824</ele>
        <time>2014-11-23T07:25:43.000Z</time>
      </trkpt>
      <trkpt lat="48.96775" lon="0.95134">
        <ele>132.60000610352</ele>
        <time>2014-11-23T07:25:56.000Z</time>
      </trkpt>
      <trkpt lat="48.9671" lon="0.95194">
        <ele>128.39999389648</ele>
        <time>2014-11-23T07:26:09.000Z</time>
      </trkpt>
      <trkpt lat="48.96659" lon="0.95204">
        <ele>126</ele>
        <time>2014-11-23T07:26:18.000Z</time>
      </trkpt>
      <trkpt lat="48.96655" lon="0.95208">
        <ele>126</ele>
        <time>2014-11-23T07:26:19.000Z</time>
      </trkpt>
      <trkpt lat="48.96648" lon="0.95218">
        <ele>125.80000305176</ele>
        <time>2014-11-23T07:26:21.000Z</time>
      </trkpt>
      <trkpt lat="48.96633" lon="0.95236">
        <ele>124.19999694824</ele>
        <time>2014-11-23T07:26:26.000Z</time>
      </trkpt>
      <trkpt lat="48.9663" lon="0.95235">
        <ele>124.19999694824</ele>
        <time>2014-11-23T07:26:27.000Z</time>
      </trkpt>
      <trkpt lat="48.96614" lon="0.95218">
        <ele>126.19999694824</ele>
        <time>2014-11-23T07:26:37.000Z</time>
      </trkpt>
      <trkpt lat="48.966" lon="0.95212">
        <ele>126.59999847412</ele>
        <time>2014-11-23T07:26:42.000Z</time>
      </trkpt>
      <trkpt lat="48.96567" lon="0.95195">
        <ele>126.40000152588</ele>
        <time>2014-11-23T07:26:56.000Z</time>
      </trkpt>
      <trkpt lat="48.9656" lon="0.95189">
        <ele>126.59999847412</ele>
        <time>2014-11-23T07:26:59.000Z</time>
      </trkpt>
      <trkpt lat="48.96555" lon="0.95197">
        <ele>125.19999694824</ele>
        <time>2014-11-23T07:27:05.000Z</time>
      </trkpt>
      <trkpt lat="48.96546" lon="0.95218">
        <ele>121.59999847412</ele>
        <time>2014-11-23T07:27:13.000Z</time>
      </trkpt>
      <trkpt lat="48.96538" lon="0.9522">
        <ele>120.59999847412</ele>
        <time>2014-11-23T07:27:19.000Z</time>
      </trkpt>
      <trkpt lat="48.96515" lon="0.95222">
        <ele>118</ele>
        <time>2014-11-23T07:27:28.000Z</time>
      </trkpt>
      <trkpt lat="48.96493" lon="0.9524">
        <ele>114</ele>
        <time>2014-11-23T07:27:37.000Z</time>
      </trkpt>
      <trkpt lat="48.96463" lon="0.9525">
        <ele>110.19999694824</ele>
        <time>2014-11-23T07:27:51.000Z</time>
      </trkpt>
      <trkpt lat="48.96455" lon="0.95272">
        <ele>109.80000305176</ele>
        <time>2014-11-23T07:28:02.000Z</time>
      </trkpt>
      <trkpt lat="48.96448" lon="0.95273">
        <ele>109.59999847412</ele>
        <time>2014-11-23T07:28:20.000Z</time>
      </trkpt>
      <trkpt lat="48.96451" lon="0.95265">
        <ele>109.80000305176</ele>
        <time>2014-11-23T07:28:27.000Z</time>
      </trkpt>
      <trkpt lat="48.96449" lon="0.95272">
        <ele>109.59999847412</ele>
        <time>2014-11-23T07:28:37.000Z</time>
      </trkpt>
      <trkpt lat="48.96448" lon="0.95279">
        <ele>109.59999847412</ele>
        <time>2014-11-23T07:28:41.000Z</time>
      </trkpt>
      <trkpt lat="48.96443" lon="0.95295">
        <ele>109.19999694824</ele>
        <time>2014-11-23T07:28:49.000Z</time>
      </trkpt>
      <trkpt lat="48.96438" lon="0.95304">
        <ele>109</ele>
        <time>2014-11-23T07:28:52.000Z</time>
      </trkpt>
      <trkpt lat="48.96426" lon="0.95346">
        <ele>108.19999694824</ele>
        <time>2014-11-23T07:29:06.000Z</time>
      </trkpt>
      <trkpt lat="48.96416" lon="0.95381">
        <ele>108.40000152588</ele>
        <time>2014-11-23T07:29:18.000Z</time>
      </trkpt>
      <trkpt lat="48.96406" lon="0.95407">
        <ele>110.19999694824</ele>
        <time>2014-11-23T07:29:27.000Z</time>
      </trkpt>
      <trkpt lat="48.96393" lon="0.95449">
        <ele>116.19999694824</ele>
        <time>2014-11-23T07:29:39.000Z</time>
      </trkpt>
      <trkpt lat="48.96392" lon="0.95483">
        <ele>122.80000305176</ele>
        <time>2014-11-23T07:29:48.000Z</time>
      </trkpt>
      <trkpt lat="48.96394" lon="0.95486">
        <ele>123</ele>
        <time>2014-11-23T07:29:49.000Z</time>
      </trkpt>
      <trkpt lat="48.96396" lon="0.95489">
        <ele>123</ele>
        <time>2014-11-23T07:29:50.000Z</time>
      </trkpt>
      <trkpt lat="48.96423" lon="0.95521">
        <ele>123.80000305176</ele>
        <time>2014-11-23T07:30:03.000Z</time>
      </trkpt>
      <trkpt lat="48.96444" lon="0.95553">
        <ele>126</ele>
        <time>2014-11-23T07:30:17.000Z</time>
      </trkpt>
      <trkpt lat="48.96444" lon="0.95555">
        <ele>126.40000152588</ele>
        <time>2014-11-23T07:30:18.000Z</time>
      </trkpt>
      <trkpt lat="48.96443" lon="0.95558">
        <ele>126.80000305176</ele>
        <time>2014-11-23T07:30:19.000Z</time>
      </trkpt>
      <trkpt lat="48.96444" lon="0.9556">
        <ele>127.19999694824</ele>
        <time>2014-11-23T07:30:20.000Z</time>
      </trkpt>
      <trkpt lat="48.96443" lon="0.95562">
        <ele>127.59999847412</ele>
        <time>2014-11-23T07:30:21.000Z</time>
      </trkpt>
      <trkpt lat="48.96442" lon="0.95564">
        <ele>127.80000305176</ele>
        <time>2014-11-23T07:30:22.000Z</time>
      </trkpt>
      <trkpt lat="48.96442" lon="0.95566">
        <ele>128.19999694824</ele>
        <time>2014-11-23T07:30:23.000Z</time>
      </trkpt>
      <trkpt lat="48.96441" lon="0.95568">
        <ele>128.39999389648</ele>
        <time>2014-11-23T07:30:24.000Z</time>
      </trkpt>
      <trkpt lat="48.96424" lon="0.95592">
        <ele>133.39999389648</ele>
        <time>2014-11-23T07:30:37.000Z</time>
      </trkpt>
      <trkpt lat="48.96401" lon="0.9562">
        <ele>138.19999694824</ele>
        <time>2014-11-23T07:30:53.000Z</time>
      </trkpt>
      <trkpt lat="48.96388" lon="0.95634">
        <ele>139</ele>
        <time>2014-11-23T07:31:03.000Z</time>
      </trkpt>
      <trkpt lat="48.96379" lon="0.95643">
        <ele>139.60000610352</ele>
        <time>2014-11-23T07:31:09.000Z</time>
      </trkpt>
      <trkpt lat="48.96367" lon="0.95653">
        <ele>140.60000610352</ele>
        <time>2014-11-23T07:31:21.000Z</time>
      </trkpt>
      <trkpt lat="48.96365" lon="0.95655">
        <ele>140.80000305176</ele>
        <time>2014-11-23T07:31:35.000Z</time>
      </trkpt>
      <trkpt lat="48.96362" lon="0.95661">
        <ele>141.60000610352</ele>
        <time>2014-11-23T07:31:47.000Z</time>
      </trkpt>
      <trkpt lat="48.96351" lon="0.95665">
        <ele>142</ele>
        <time>2014-11-23T07:32:01.000Z</time>
      </trkpt>
      <trkpt lat="48.96344" lon="0.95666">
        <ele>142.19999694824</ele>
        <time>2014-11-23T07:32:10.000Z</time>
      </trkpt>
      <trkpt lat="48.96338" lon="0.95662">
        <ele>142</ele>
        <time>2014-11-23T07:32:14.000Z</time>
      </trkpt>
      <trkpt lat="48.96316" lon="0.95665">
        <ele>142.60000610352</ele>
        <time>2014-11-23T07:32:29.000Z</time>
      </trkpt>
      <trkpt lat="48.96307" lon="0.95666">
        <ele>142.80000305176</ele>
        <time>2014-11-23T07:32:35.000Z</time>
      </trkpt>
      <trkpt lat="48.9629" lon="0.9567">
        <ele>143.39999389648</ele>
        <time>2014-11-23T07:32:46.000Z</time>
      </trkpt>
      <trkpt lat="48.96265" lon="0.9568">
        <ele>145</ele>
        <time>2014-11-23T07:33:01.000Z</time>
      </trkpt>
      <trkpt lat="48.96243" lon="0.95688">
        <ele>146.19999694824</ele>
        <time>2014-11-23T07:33:14.000Z</time>
      </trkpt>
      <trkpt lat="48.96239" lon="0.95689">
        <ele>146.39999389648</ele>
        <time>2014-11-23T07:33:17.000Z</time>
      </trkpt>
      <trkpt lat="48.96243" lon="0.95697">
        <ele>147</ele>
        <time>2014-11-23T07:33:29.000Z</time>
      </trkpt>
      <trkpt lat="48.96245" lon="0.95694">
        <ele>146.80000305176</ele>
        <time>2014-11-23T07:33:41.000Z</time>
      </trkpt>
      <trkpt lat="48.96265" lon="0.95695">
        <ele>146.39999389648</ele>
        <time>2014-11-23T07:33:54.000Z</time>
      </trkpt>
      <trkpt lat="48.96284" lon="0.95705">
        <ele>147</ele>
        <time>2014-11-23T07:34:07.000Z</time>
      </trkpt>
      <trkpt lat="48.96299" lon="0.95698">
        <ele>146</ele>
        <time>2014-11-23T07:34:17.000Z</time>
      </trkpt>
      <trkpt lat="48.96318" lon="0.95708">
        <ele>146.39999389648</ele>
        <time>2014-11-23T07:34:26.000Z</time>
      </trkpt>
      <trkpt lat="48.9633" lon="0.9571">
        <ele>146.19999694824</ele>
        <time>2014-11-23T07:34:32.000Z</time>
      </trkpt>
      <trkpt lat="48.96346" lon="0.9571">
        <ele>146</ele>
        <time>2014-11-23T07:34:39.000Z</time>
      </trkpt>
      <trkpt lat="48.96362" lon="0.95713">
        <ele>145.80000305176</ele>
        <time>2014-11-23T07:34:46.000Z</time>
      </trkpt>
      <trkpt lat="48.96378" lon="0.95702">
        <ele>144.19999694824</ele>
        <time>2014-11-23T07:34:56.000Z</time>
      </trkpt>
      <trkpt lat="48.96402" lon="0.95689">
        <ele>142</ele>
        <time>2014-11-23T07:35:06.000Z</time>
      </trkpt>
      <trkpt lat="48.96406" lon="0.95685">
        <ele>141.39999389648</ele>
        <time>2014-11-23T07:35:08.000Z</time>
      </trkpt>
      <trkpt lat="48.96431" lon="0.95678">
        <ele>140.39999389648</ele>
        <time>2014-11-23T07:35:19.000Z</time>
      </trkpt>
      <trkpt lat="48.96448" lon="0.95676">
        <ele>139.60000610352</ele>
        <time>2014-11-23T07:35:25.000Z</time>
      </trkpt>
      <trkpt lat="48.96461" lon="0.95666">
        <ele>138</ele>
        <time>2014-11-23T07:35:30.000Z</time>
      </trkpt>
      <trkpt lat="48.96483" lon="0.95664">
        <ele>137</ele>
        <time>2014-11-23T07:35:36.000Z</time>
      </trkpt>
      <trkpt lat="48.96501" lon="0.95661">
        <ele>136.39999389648</ele>
        <time>2014-11-23T07:35:42.000Z</time>
      </trkpt>
      <trkpt lat="48.96513" lon="0.95642">
        <ele>135.39999389648</ele>
        <time>2014-11-23T07:35:51.000Z</time>
      </trkpt>
      <trkpt lat="48.96557" lon="0.95634">
        <ele>130.39999389648</ele>
        <time>2014-11-23T07:36:02.000Z</time>
      </trkpt>
      <trkpt lat="48.96561" lon="0.95653">
        <ele>131.60000610352</ele>
        <time>2014-11-23T07:36:11.000Z</time>
      </trkpt>
      <trkpt lat="48.96561" lon="0.95659">
        <ele>132</ele>
        <time>2014-11-23T07:36:14.000Z</time>
      </trkpt>
      <trkpt lat="48.96563" lon="0.95672">
        <ele>132.39999389648</ele>
        <time>2014-11-23T07:36:27.000Z</time>
      </trkpt>
      <trkpt lat="48.9656" lon="0.95677">
        <ele>132.80000305176</ele>
        <time>2014-11-23T07:36:39.000Z</time>
      </trkpt>
      <trkpt lat="48.96565" lon="0.95694">
        <ele>132.80000305176</ele>
        <time>2014-11-23T07:36:53.000Z</time>
      </trkpt>
      <trkpt lat="48.96569" lon="0.957">
        <ele>132.60000610352</ele>
        <time>2014-11-23T07:37:02.000Z</time>
      </trkpt>
      <trkpt lat="48.96581" lon="0.95696">
        <ele>131.60000610352</ele>
        <time>2014-11-23T07:37:09.000Z</time>
      </trkpt>
      <trkpt lat="48.96596" lon="0.95694">
        <ele>129.80000305176</ele>
        <time>2014-11-23T07:37:21.000Z</time>
      </trkpt>
      <trkpt lat="48.96596" lon="0.95693">
        <ele>129.80000305176</ele>
        <time>2014-11-23T07:37:29.000Z</time>
      </trkpt>
      <trkpt lat="48.96601" lon="0.95692">
        <ele>129.19999694824</ele>
        <time>2014-11-23T07:37:33.000Z</time>
      </trkpt>
      <trkpt lat="48.96626" lon="0.95696">
        <ele>129</ele>
        <time>2014-11-23T07:37:46.000Z</time>
      </trkpt>
      <trkpt lat="48.96654" lon="0.95705">
        <ele>130.19999694824</ele>
        <time>2014-11-23T07:38:00.000Z</time>
      </trkpt>
      <trkpt lat="48.96656" lon="0.95706">
        <ele>130.19999694824</ele>
        <time>2014-11-23T07:38:01.000Z</time>
      </trkpt>
      <trkpt lat="48.96662" lon="0.95706">
        <ele>130.39999389648</ele>
        <time>2014-11-23T07:38:06.000Z</time>
      </trkpt>
      <trkpt lat="48.96668" lon="0.957">
        <ele>130.19999694824</ele>
        <time>2014-11-23T07:38:11.000Z</time>
      </trkpt>
      <trkpt lat="48.96689" lon="0.957">
        <ele>129.19999694824</ele>
        <time>2014-11-23T07:38:21.000Z</time>
      </trkpt>
      <trkpt lat="48.96703" lon="0.95702">
        <ele>129</ele>
        <time>2014-11-23T07:38:29.000Z</time>
      </trkpt>
      <trkpt lat="48.96709" lon="0.95701">
        <ele>128.60000610352</ele>
        <time>2014-11-23T07:38:37.000Z</time>
      </trkpt>
      <trkpt lat="48.96715" lon="0.95703">
        <ele>128.60000610352</ele>
        <time>2014-11-23T07:38:46.000Z</time>
      </trkpt>
      <trkpt lat="48.96723" lon="0.95709">
        <ele>129</ele>
        <time>2014-11-23T07:38:59.000Z</time>
      </trkpt>
      <trkpt lat="48.96728" lon="0.95719">
        <ele>130.19999694824</ele>
        <time>2014-11-23T07:39:08.000Z</time>
      </trkpt>
      <trkpt lat="48.96744" lon="0.95738">
        <ele>130.60000610352</ele>
        <time>2014-11-23T07:39:17.000Z</time>
      </trkpt>
      <trkpt lat="48.96766" lon="0.95764">
        <ele>130.80000305176</ele>
        <time>2014-11-23T07:39:28.000Z</time>
      </trkpt>
      <trkpt lat="48.96771" lon="0.95769">
        <ele>130.80000305176</ele>
        <time>2014-11-23T07:39:30.000Z</time>
      </trkpt>
      <trkpt lat="48.96768" lon="0.9578">
        <ele>131.19999694824</ele>
        <time>2014-11-23T07:39:35.000Z</time>
      </trkpt>
      <trkpt lat="48.96755" lon="0.95809">
        <ele>132.80000305176</ele>
        <time>2014-11-23T07:39:45.000Z</time>
      </trkpt>
      <trkpt lat="48.9675" lon="0.95819">
        <ele>133.19999694824</ele>
        <time>2014-11-23T07:39:49.000Z</time>
      </trkpt>
      <trkpt lat="48.96758" lon="0.95833">
        <ele>133.19999694824</ele>
        <time>2014-11-23T07:39:53.000Z</time>
      </trkpt>
      <trkpt lat="48.9677" lon="0.95836">
        <ele>132.80000305176</ele>
        <time>2014-11-23T07:39:57.000Z</time>
      </trkpt>
      <trkpt lat="48.9678" lon="0.9584">
        <ele>132.60000610352</ele>
        <time>2014-11-23T07:40:03.000Z</time>
      </trkpt>
      <trkpt lat="48.96788" lon="0.95855">
        <ele>132.80000305176</ele>
        <time>2014-11-23T07:40:10.000Z</time>
      </trkpt>
      <trkpt lat="48.96801" lon="0.95871">
        <ele>132.80000305176</ele>
        <time>2014-11-23T07:40:18.000Z</time>
      </trkpt>
      <trkpt lat="48.968" lon="0.95894">
        <ele>133.60000610352</ele>
        <time>2014-11-23T07:40:29.000Z</time>
      </trkpt>
      <trkpt lat="48.96796" lon="0.9591">
        <ele>134.60000610352</ele>
        <time>2014-11-23T07:40:42.000Z</time>
      </trkpt>
      <trkpt lat="48.96795" lon="0.95914">
        <ele>135</ele>
        <time>2014-11-23T07:40:47.000Z</time>
      </trkpt>
      <trkpt lat="48.96791" lon="0.95927">
        <ele>135.80000305176</ele>
        <time>2014-11-23T07:40:57.000Z</time>
      </trkpt>
      <trkpt lat="48.96791" lon="0.95929">
        <ele>135.80000305176</ele>
        <time>2014-11-23T07:41:14.000Z</time>
      </trkpt>
      <trkpt lat="48.96787" lon="0.95924">
        <ele>135.80000305176</ele>
        <time>2014-11-23T07:41:34.000Z</time>
      </trkpt>
      <trkpt lat="48.96791" lon="0.95927">
        <ele>135.80000305176</ele>
        <time>2014-11-23T07:41:50.000Z</time>
      </trkpt>
      <trkpt lat="48.96793" lon="0.95929">
        <ele>135.80000305176</ele>
        <time>2014-11-23T07:41:52.000Z</time>
      </trkpt>
      <trkpt lat="48.96799" lon="0.95932">
        <ele>135.80000305176</ele>
        <time>2014-11-23T07:41:56.000Z</time>
      </trkpt>
      <trkpt lat="48.96828" lon="0.95942">
        <ele>135.80000305176</ele>
        <time>2014-11-23T07:42:11.000Z</time>
      </trkpt>
      <trkpt lat="48.96857" lon="0.95952">
        <ele>135.80000305176</ele>
        <time>2014-11-23T07:42:23.000Z</time>
      </trkpt>
      <trkpt lat="48.96862" lon="0.95975">
        <ele>136.19999694824</ele>
        <time>2014-11-23T07:42:32.000Z</time>
      </trkpt>
      <trkpt lat="48.96856" lon="0.96014">
        <ele>141.19999694824</ele>
        <time>2014-11-23T07:42:47.000Z</time>
      </trkpt>
      <trkpt lat="48.96855" lon="0.9602">
        <ele>142</ele>
        <time>2014-11-23T07:42:50.000Z</time>
      </trkpt>
      <trkpt lat="48.96856" lon="0.96025">
        <ele>142.60000610352</ele>
        <time>2014-11-23T07:42:52.000Z</time>
      </trkpt>
      <trkpt lat="48.96859" lon="0.96032">
        <ele>143</ele>
        <time>2014-11-23T07:43:04.000Z</time>
      </trkpt>
      <trkpt lat="48.9686" lon="0.96034">
        <ele>143</ele>
        <time>2014-11-23T07:43:16.000Z</time>
      </trkpt>
      <trkpt lat="48.96859" lon="0.96039">
        <ele>143.80000305176</ele>
        <time>2014-11-23T07:43:34.000Z</time>
      </trkpt>
      <trkpt lat="48.96857" lon="0.96044">
        <ele>144.60000610352</ele>
        <time>2014-11-23T07:43:38.000Z</time>
      </trkpt>
      <trkpt lat="48.96851" lon="0.96053">
        <ele>145.39999389648</ele>
        <time>2014-11-23T07:43:45.000Z</time>
      </trkpt>
      <trkpt lat="48.96852" lon="0.96058">
        <ele>145.60000610352</ele>
        <time>2014-11-23T07:43:48.000Z</time>
      </trkpt>
      <trkpt lat="48.9685" lon="0.96064">
        <ele>145.80000305176</ele>
        <time>2014-11-23T07:43:52.000Z</time>
      </trkpt>
      <trkpt lat="48.96849" lon="0.96068">
        <ele>146</ele>
        <time>2014-11-23T07:43:54.000Z</time>
      </trkpt>
      <trkpt lat="48.96844" lon="0.9608">
        <ele>146.19999694824</ele>
        <time>2014-11-23T07:44:01.000Z</time>
      </trkpt>
      <trkpt lat="48.96841" lon="0.9612">
        <ele>148</ele>
        <time>2014-11-23T07:44:14.000Z</time>
      </trkpt>
      <trkpt lat="48.96835" lon="0.96176">
        <ele>149.19999694824</ele>
        <time>2014-11-23T07:44:24.000Z</time>
      </trkpt>
      <trkpt lat="48.96825" lon="0.96243">
        <ele>151</ele>
        <time>2014-11-23T07:44:37.000Z</time>
      </trkpt>
      <trkpt lat="48.9682" lon="0.96271">
        <ele>151.39999389648</ele>
        <time>2014-11-23T07:44:43.000Z</time>
      </trkpt>
      <trkpt lat="48.96811" lon="0.96331">
        <ele>151</ele>
        <time>2014-11-23T07:44:55.000Z</time>
      </trkpt>
      <trkpt lat="48.96811" lon="0.96343">
        <ele>150.80000305176</ele>
        <time>2014-11-23T07:44:58.000Z</time>
      </trkpt>
      <trkpt lat="48.96817" lon="0.9635">
        <ele>150.39999389648</ele>
        <time>2014-11-23T07:45:02.000Z</time>
      </trkpt>
      <trkpt lat="48.96834" lon="0.9636">
        <ele>150</ele>
        <time>2014-11-23T07:45:12.000Z</time>
      </trkpt>
      <trkpt lat="48.96855" lon="0.96365">
        <ele>149.60000610352</ele>
        <time>2014-11-23T07:45:23.000Z</time>
      </trkpt>
      <trkpt lat="48.9687" lon="0.96373">
        <ele>149</ele>
        <time>2014-11-23T07:45:29.000Z</time>
      </trkpt>
      <trkpt lat="48.96876" lon="0.9638">
        <ele>148.60000610352</ele>
        <time>2014-11-23T07:45:33.000Z</time>
      </trkpt>
      <trkpt lat="48.96878" lon="0.96389">
        <ele>148.39999389648</ele>
        <time>2014-11-23T07:45:36.000Z</time>
      </trkpt>
      <trkpt lat="48.96893" lon="0.96428">
        <ele>146.80000305176</ele>
        <time>2014-11-23T07:45:47.000Z</time>
      </trkpt>
      <trkpt lat="48.96894" lon="0.96438">
        <ele>146.60000610352</ele>
        <time>2014-11-23T07:45:50.000Z</time>
      </trkpt>
      <trkpt lat="48.96905" lon="0.96452">
        <ele>145.80000305176</ele>
        <time>2014-11-23T07:45:57.000Z</time>
      </trkpt>
      <trkpt lat="48.96924" lon="0.96497">
        <ele>144.60000610352</ele>
        <time>2014-11-23T07:46:08.000Z</time>
      </trkpt>
      <trkpt lat="48.96951" lon="0.96546">
        <ele>144.19999694824</ele>
        <time>2014-11-23T07:46:23.000Z</time>
      </trkpt>
      <trkpt lat="48.96969" lon="0.96601">
        <ele>144.19999694824</ele>
        <time>2014-11-23T07:46:37.000Z</time>
      </trkpt>
      <trkpt lat="48.96985" lon="0.96636">
        <ele>144.19999694824</ele>
        <time>2014-11-23T07:46:47.000Z</time>
      </trkpt>
      <trkpt lat="48.96991" lon="0.96636">
        <ele>144.19999694824</ele>
        <time>2014-11-23T07:46:51.000Z</time>
      </trkpt>
      <trkpt lat="48.96995" lon="0.96642">
        <ele>144.19999694824</ele>
        <time>2014-11-23T07:46:54.000Z</time>
      </trkpt>
      <trkpt lat="48.97023" lon="0.96634">
        <ele>145</ele>
        <time>2014-11-23T07:47:07.000Z</time>
      </trkpt>
      <trkpt lat="48.97058" lon="0.96622">
        <ele>144.60000610352</ele>
        <time>2014-11-23T07:47:19.000Z</time>
      </trkpt>
      <trkpt lat="48.9706" lon="0.9662">
        <ele>144.60000610352</ele>
        <time>2014-11-23T07:47:20.000Z</time>
      </trkpt>
      <trkpt lat="48.97076" lon="0.96569">
        <ele>143.80000305176</ele>
        <time>2014-11-23T07:47:32.000Z</time>
      </trkpt>
      <trkpt lat="48.9708" lon="0.96557">
        <ele>143.60000610352</ele>
        <time>2014-11-23T07:47:34.000Z</time>
      </trkpt>
      <trkpt lat="48.97083" lon="0.96543">
        <ele>143.19999694824</ele>
        <time>2014-11-23T07:47:36.000Z</time>
      </trkpt>
      <trkpt lat="48.97101" lon="0.96485">
        <ele>141.39999389648</ele>
        <time>2014-11-23T07:47:44.000Z</time>
      </trkpt>
      <trkpt lat="48.97127" lon="0.96462">
        <ele>139.19999694824</ele>
        <time>2014-11-23T07:47:51.000Z</time>
      </trkpt>
      <trkpt lat="48.97147" lon="0.96461">
        <ele>138.19999694824</ele>
        <time>2014-11-23T07:48:01.000Z</time>
      </trkpt>
      <trkpt lat="48.97175" lon="0.96478">
        <ele>137.80000305176</ele>
        <time>2014-11-23T07:48:13.000Z</time>
      </trkpt>
      <trkpt lat="48.97193" lon="0.96509">
        <ele>137.80000305176</ele>
        <time>2014-11-23T07:48:26.000Z</time>
      </trkpt>
      <trkpt lat="48.97211" lon="0.96552">
        <ele>138.19999694824</ele>
        <time>2014-11-23T07:48:41.000Z</time>
      </trkpt>
      <trkpt lat="48.97227" lon="0.9659">
        <ele>138.39999389648</ele>
        <time>2014-11-23T07:48:53.000Z</time>
      </trkpt>
      <trkpt lat="48.97233" lon="0.96593">
        <ele>138.39999389648</ele>
        <time>2014-11-23T07:49:02.000Z</time>
      </trkpt>
      <trkpt lat="48.97248" lon="0.96563">
        <ele>137</ele>
        <time>2014-11-23T07:49:12.000Z</time>
      </trkpt>
      <trkpt lat="48.97251" lon="0.96556">
        <ele>136.80000305176</ele>
        <time>2014-11-23T07:49:14.000Z</time>
      </trkpt>
      <trkpt lat="48.97255" lon="0.96547">
        <ele>136.39999389648</ele>
        <time>2014-11-23T07:49:17.000Z</time>
      </trkpt>
      <trkpt lat="48.97273" lon="0.96535">
        <ele>134.60000610352</ele>
        <time>2014-11-23T07:49:27.000Z</time>
      </trkpt>
      <trkpt lat="48.97279" lon="0.9654">
        <ele>134.39999389648</ele>
        <time>2014-11-23T07:49:30.000Z</time>
      </trkpt>
      <trkpt lat="48.97299" lon="0.96559">
        <ele>134.39999389648</ele>
        <time>2014-11-23T07:49:39.000Z</time>
      </trkpt>
      <trkpt lat="48.97315" lon="0.96559">
        <ele>133.19999694824</ele>
        <time>2014-11-23T07:49:45.000Z</time>
      </trkpt>
      <trkpt lat="48.97335" lon="0.96577">
        <ele>132.80000305176</ele>
        <time>2014-11-23T07:49:54.000Z</time>
      </trkpt>
      <trkpt lat="48.97337" lon="0.96579">
        <ele>132.80000305176</ele>
        <time>2014-11-23T07:49:55.000Z</time>
      </trkpt>
      <trkpt lat="48.97359" lon="0.96607">
        <ele>133</ele>
        <time>2014-11-23T07:50:08.000Z</time>
      </trkpt>
      <trkpt lat="48.97363" lon="0.96612">
        <ele>133</ele>
        <time>2014-11-23T07:50:10.000Z</time>
      </trkpt>
      <trkpt lat="48.97379" lon="0.96622">
        <ele>132.80000305176</ele>
        <time>2014-11-23T07:50:16.000Z</time>
      </trkpt>
      <trkpt lat="48.9739" lon="0.96635">
        <ele>133</ele>
        <time>2014-11-23T07:50:26.000Z</time>
      </trkpt>
      <trkpt lat="48.97388" lon="0.96636">
        <ele>133.19999694824</ele>
        <time>2014-11-23T07:50:31.000Z</time>
      </trkpt>
      <trkpt lat="48.97374" lon="0.96633">
        <ele>133.80000305176</ele>
        <time>2014-11-23T07:50:39.000Z</time>
      </trkpt>
      <trkpt lat="48.97367" lon="0.96652">
        <ele>135.60000610352</ele>
        <time>2014-11-23T07:50:50.000Z</time>
      </trkpt>
      <trkpt lat="48.97357" lon="0.96681">
        <ele>137</ele>
        <time>2014-11-23T07:51:04.000Z</time>
      </trkpt>
      <trkpt lat="48.97354" lon="0.9669">
        <ele>137.39999389648</ele>
        <time>2014-11-23T07:51:08.000Z</time>
      </trkpt>
      <trkpt lat="48.97352" lon="0.96704">
        <ele>138.19999694824</ele>
        <time>2014-11-23T07:51:14.000Z</time>
      </trkpt>
      <trkpt lat="48.97339" lon="0.96736">
        <ele>140.39999389648</ele>
        <time>2014-11-23T07:51:27.000Z</time>
      </trkpt>
      <trkpt lat="48.97337" lon="0.96744">
        <ele>141.19999694824</ele>
        <time>2014-11-23T07:51:30.000Z</time>
      </trkpt>
      <trkpt lat="48.97334" lon="0.96753">
        <ele>142</ele>
        <time>2014-11-23T07:51:34.000Z</time>
      </trkpt>
      <trkpt lat="48.97319" lon="0.96769">
        <ele>143.60000610352</ele>
        <time>2014-11-23T07:51:43.000Z</time>
      </trkpt>
      <trkpt lat="48.97291" lon="0.96752">
        <ele>142.60000610352</ele>
        <time>2014-11-23T07:51:56.000Z</time>
      </trkpt>
      <trkpt lat="48.97266" lon="0.96739">
        <ele>142.39999389648</ele>
        <time>2014-11-23T07:52:06.000Z</time>
      </trkpt>
      <trkpt lat="48.97246" lon="0.96724">
        <ele>142.80000305176</ele>
        <time>2014-11-23T07:52:16.000Z</time>
      </trkpt>
      <trkpt lat="48.97232" lon="0.96748">
        <ele>145</ele>
        <time>2014-11-23T07:52:26.000Z</time>
      </trkpt>
      <trkpt lat="48.97225" lon="0.96765">
        <ele>146</ele>
        <time>2014-11-23T07:52:32.000Z</time>
      </trkpt>
      <trkpt lat="48.97216" lon="0.96764">
        <ele>146</ele>
        <time>2014-11-23T07:52:36.000Z</time>
      </trkpt>
      <trkpt lat="48.9721" lon="0.96758">
        <ele>146</ele>
        <time>2014-11-23T07:52:39.000Z</time>
      </trkpt>
      <trkpt lat="48.97202" lon="0.96763">
        <ele>146</ele>
        <time>2014-11-23T07:52:44.000Z</time>
      </trkpt>
      <trkpt lat="48.972" lon="0.96764">
        <ele>146</ele>
        <time>2014-11-23T07:52:46.000Z</time>
      </trkpt>
      <trkpt lat="48.97194" lon="0.96756">
        <ele>146</ele>
        <time>2014-11-23T07:52:51.000Z</time>
      </trkpt>
      <trkpt lat="48.97188" lon="0.9674">
        <ele>146</ele>
        <time>2014-11-23T07:52:59.000Z</time>
      </trkpt>
      <trkpt lat="48.97186" lon="0.96734">
        <ele>146</ele>
        <time>2014-11-23T07:53:01.000Z</time>
      </trkpt>
      <trkpt lat="48.97183" lon="0.96726">
        <ele>146</ele>
        <time>2014-11-23T07:53:05.000Z</time>
      </trkpt>
      <trkpt lat="48.97164" lon="0.96726">
        <ele>145.60000610352</ele>
        <time>2014-11-23T07:53:17.000Z</time>
      </trkpt>
      <trkpt lat="48.97157" lon="0.96734">
        <ele>145.60000610352</ele>
        <time>2014-11-23T07:53:21.000Z</time>
      </trkpt>
      <trkpt lat="48.97154" lon="0.96736">
        <ele>145.60000610352</ele>
        <time>2014-11-23T07:53:23.000Z</time>
      </trkpt>
      <trkpt lat="48.9715" lon="0.96748">
        <ele>145.60000610352</ele>
        <time>2014-11-23T07:53:35.000Z</time>
      </trkpt>
      <trkpt lat="48.97155" lon="0.96764">
        <ele>145.60000610352</ele>
        <time>2014-11-23T07:53:44.000Z</time>
      </trkpt>
      <trkpt lat="48.97152" lon="0.96786">
        <ele>145.60000610352</ele>
        <time>2014-11-23T07:53:52.000Z</time>
      </trkpt>
      <trkpt lat="48.97136" lon="0.96812">
        <ele>145.19999694824</ele>
        <time>2014-11-23T07:54:04.000Z</time>
      </trkpt>
      <trkpt lat="48.97129" lon="0.96825">
        <ele>145</ele>
        <time>2014-11-23T07:54:13.000Z</time>
      </trkpt>
      <trkpt lat="48.97124" lon="0.96825">
        <ele>145</ele>
        <time>2014-11-23T07:54:33.000Z</time>
      </trkpt>
      <trkpt lat="48.97114" lon="0.96813">
        <ele>145</ele>
        <time>2014-11-23T07:54:43.000Z</time>
      </trkpt>
      <trkpt lat="48.9711" lon="0.96804">
        <ele>145</ele>
        <time>2014-11-23T07:54:48.000Z</time>
      </trkpt>
      <trkpt lat="48.97096" lon="0.96807">
        <ele>144.60000610352</ele>
        <time>2014-11-23T07:54:55.000Z</time>
      </trkpt>
      <trkpt lat="48.97095" lon="0.96809">
        <ele>144.60000610352</ele>
        <time>2014-11-23T07:55:02.000Z</time>
      </trkpt>
      <trkpt lat="48.97096" lon="0.96789">
        <ele>144.80000305176</ele>
        <time>2014-11-23T07:55:09.000Z</time>
      </trkpt>
      <trkpt lat="48.97094" lon="0.96779">
        <ele>144.60000610352</ele>
        <time>2014-11-23T07:55:13.000Z</time>
      </trkpt>
      <trkpt lat="48.97092" lon="0.96772">
        <ele>144.60000610352</ele>
        <time>2014-11-23T07:55:15.000Z</time>
      </trkpt>
      <trkpt lat="48.97082" lon="0.96784">
        <ele>144.39999389648</ele>
        <time>2014-11-23T07:55:23.000Z</time>
      </trkpt>
      <trkpt lat="48.9707" lon="0.96817">
        <ele>143.60000610352</ele>
        <time>2014-11-23T07:55:34.000Z</time>
      </trkpt>
      <trkpt lat="48.97065" lon="0.9684">
        <ele>143.39999389648</ele>
        <time>2014-11-23T07:55:45.000Z</time>
      </trkpt>
      <trkpt lat="48.97051" lon="0.96868">
        <ele>143</ele>
        <time>2014-11-23T07:55:57.000Z</time>
      </trkpt>
      <trkpt lat="48.97048" lon="0.96884">
        <ele>142.80000305176</ele>
        <time>2014-11-23T07:56:03.000Z</time>
      </trkpt>
      <trkpt lat="48.97036" lon="0.96924">
        <ele>142.19999694824</ele>
        <time>2014-11-23T07:56:18.000Z</time>
      </trkpt>
      <trkpt lat="48.97023" lon="0.96967">
        <ele>142</ele>
        <time>2014-11-23T07:56:30.000Z</time>
      </trkpt>
      <trkpt lat="48.97019" lon="0.96978">
        <ele>142</ele>
        <time>2014-11-23T07:56:33.000Z</time>
      </trkpt>
      <trkpt lat="48.96995" lon="0.96996">
        <ele>142</ele>
        <time>2014-11-23T07:56:45.000Z</time>
      </trkpt>
      <trkpt lat="48.96963" lon="0.96996">
        <ele>142</ele>
        <time>2014-11-23T07:56:59.000Z</time>
      </trkpt>
      <trkpt lat="48.96925" lon="0.96995">
        <ele>142</ele>
        <time>2014-11-23T07:57:11.000Z</time>
      </trkpt>
      <trkpt lat="48.96896" lon="0.97011">
        <ele>141.80000305176</ele>
        <time>2014-11-23T07:57:23.000Z</time>
      </trkpt>
      <trkpt lat="48.96872" lon="0.97021">
        <ele>142.80000305176</ele>
        <time>2014-11-23T07:57:36.000Z</time>
      </trkpt>
      <trkpt lat="48.96859" lon="0.97036">
        <ele>144</ele>
        <time>2014-11-23T07:57:46.000Z</time>
      </trkpt>
      <trkpt lat="48.9685" lon="0.97059">
        <ele>145.19999694824</ele>
        <time>2014-11-23T07:57:56.000Z</time>
      </trkpt>
      <trkpt lat="48.96843" lon="0.97067">
        <ele>145.60000610352</ele>
        <time>2014-11-23T07:58:02.000Z</time>
      </trkpt>
      <trkpt lat="48.96815" lon="0.97073">
        <ele>146.60000610352</ele>
        <time>2014-11-23T07:58:15.000Z</time>
      </trkpt>
      <trkpt lat="48.96772" lon="0.97081">
        <ele>147.80000305176</ele>
        <time>2014-11-23T07:58:31.000Z</time>
      </trkpt>
      <trkpt lat="48.96735" lon="0.97085">
        <ele>148</ele>
        <time>2014-11-23T07:58:45.000Z</time>
      </trkpt>
      <trkpt lat="48.96696" lon="0.97097">
        <ele>148.39999389648</ele>
        <time>2014-11-23T07:59:00.000Z</time>
      </trkpt>
      <trkpt lat="48.9667" lon="0.97121">
        <ele>149.80000305176</ele>
        <time>2014-11-23T07:59:14.000Z</time>
      </trkpt>
      <trkpt lat="48.96651" lon="0.97152">
        <ele>150.19999694824</ele>
        <time>2014-11-23T07:59:26.000Z</time>
      </trkpt>
      <trkpt lat="48.96641" lon="0.97191">
        <ele>151</ele>
        <time>2014-11-23T07:59:40.000Z</time>
      </trkpt>
      <trkpt lat="48.96635" lon="0.97228">
        <ele>151.39999389648</ele>
        <time>2014-11-23T07:59:51.000Z</time>
      </trkpt>
      <trkpt lat="48.96634" lon="0.9725">
        <ele>152</ele>
        <time>2014-11-23T07:59:57.000Z</time>
      </trkpt>
      <trkpt lat="48.96622" lon="0.97292">
        <ele>154</ele>
        <time>2014-11-23T08:00:10.000Z</time>
      </trkpt>
      <trkpt lat="48.96621" lon="0.97299">
        <ele>154.39999389648</ele>
        <time>2014-11-23T08:00:12.000Z</time>
      </trkpt>
      <trkpt lat="48.96596" lon="0.97335">
        <ele>156.39999389648</ele>
        <time>2014-11-23T08:00:24.000Z</time>
      </trkpt>
      <trkpt lat="48.96587" lon="0.97359">
        <ele>157.80000305176</ele>
        <time>2014-11-23T08:00:32.000Z</time>
      </trkpt>
      <trkpt lat="48.96597" lon="0.97407">
        <ele>161</ele>
        <time>2014-11-23T08:00:44.000Z</time>
      </trkpt>
      <trkpt lat="48.96613" lon="0.97435">
        <ele>162.60000610352</ele>
        <time>2014-11-23T08:00:53.000Z</time>
      </trkpt>
      <trkpt lat="48.96607" lon="0.97469">
        <ele>163.80000305176</ele>
        <time>2014-11-23T08:01:03.000Z</time>
      </trkpt>
      <trkpt lat="48.96608" lon="0.9748">
        <ele>164</ele>
        <time>2014-11-23T08:01:06.000Z</time>
      </trkpt>
      <trkpt lat="48.9661" lon="0.97487">
        <ele>163.80000305176</ele>
        <time>2014-11-23T08:01:08.000Z</time>
      </trkpt>
      <trkpt lat="48.9662" lon="0.97526">
        <ele>163.60000610352</ele>
        <time>2014-11-23T08:01:19.000Z</time>
      </trkpt>
      <trkpt lat="48.9664" lon="0.97579">
        <ele>163.19999694824</ele>
        <time>2014-11-23T08:01:31.000Z</time>
      </trkpt>
      <trkpt lat="48.96648" lon="0.97597">
        <ele>163</ele>
        <time>2014-11-23T08:01:37.000Z</time>
      </trkpt>
      <trkpt lat="48.9667" lon="0.97581">
        <ele>164</ele>
        <time>2014-11-23T08:01:49.000Z</time>
      </trkpt>
      <trkpt lat="48.96695" lon="0.97566">
        <ele>164.60000610352</ele>
        <time>2014-11-23T08:01:59.000Z</time>
      </trkpt>
      <trkpt lat="48.96721" lon="0.9755">
        <ele>161.60000610352</ele>
        <time>2014-11-23T08:02:08.000Z</time>
      </trkpt>
      <trkpt lat="48.96769" lon="0.97524">
        <ele>156.80000305176</ele>
        <time>2014-11-23T08:02:21.000Z</time>
      </trkpt>
      <trkpt lat="48.96796" lon="0.97507">
        <ele>155.80000305176</ele>
        <time>2014-11-23T08:02:28.000Z</time>
      </trkpt>
      <trkpt lat="48.96807" lon="0.97499">
        <ele>155.19999694824</ele>
        <time>2014-11-23T08:02:31.000Z</time>
      </trkpt>
      <trkpt lat="48.96823" lon="0.9749">
        <ele>153.80000305176</ele>
        <time>2014-11-23T08:02:35.000Z</time>
      </trkpt>
      <trkpt lat="48.9685" lon="0.97472">
        <ele>151.39999389648</ele>
        <time>2014-11-23T08:02:42.000Z</time>
      </trkpt>
      <trkpt lat="48.96869" lon="0.97491">
        <ele>151.19999694824</ele>
        <time>2014-11-23T08:02:48.000Z</time>
      </trkpt>
      <trkpt lat="48.96875" lon="0.97508">
        <ele>151.39999389648</ele>
        <time>2014-11-23T08:02:51.000Z</time>
      </trkpt>
      <trkpt lat="48.96905" lon="0.97585">
        <ele>152.19999694824</ele>
        <time>2014-11-23T08:03:08.000Z</time>
      </trkpt>
      <trkpt lat="48.96928" lon="0.97639">
        <ele>152.39999389648</ele>
        <time>2014-11-23T08:03:20.000Z</time>
      </trkpt>
      <trkpt lat="48.96934" lon="0.97658">
        <ele>152.39999389648</ele>
        <time>2014-11-23T08:03:24.000Z</time>
      </trkpt>
      <trkpt lat="48.96944" lon="0.97637">
        <ele>151.60000610352</ele>
        <time>2014-11-23T08:03:31.000Z</time>
      </trkpt>
      <trkpt lat="48.96965" lon="0.97569">
        <ele>149.60000610352</ele>
        <time>2014-11-23T08:03:44.000Z</time>
      </trkpt>
      <trkpt lat="48.96999" lon="0.97463">
        <ele>146.19999694824</ele>
        <time>2014-11-23T08:04:00.000Z</time>
      </trkpt>
      <trkpt lat="48.97024" lon="0.97387">
        <ele>143</ele>
        <time>2014-11-23T08:04:11.000Z</time>
      </trkpt>
      <trkpt lat="48.97031" lon="0.97363">
        <ele>142.60000610352</ele>
        <time>2014-11-23T08:04:15.000Z</time>
      </trkpt>
      <trkpt lat="48.9704" lon="0.97342">
        <ele>142</ele>
        <time>2014-11-23T08:04:19.000Z</time>
      </trkpt>
      <trkpt lat="48.97074" lon="0.9723">
        <ele>140</ele>
        <time>2014-11-23T08:04:37.000Z</time>
      </trkpt>
      <trkpt lat="48.9708" lon="0.97206">
        <ele>139.60000610352</ele>
        <time>2014-11-23T08:04:41.000Z</time>
      </trkpt>
      <trkpt lat="48.97091" lon="0.972">
        <ele>139.39999389648</ele>
        <time>2014-11-23T08:04:48.000Z</time>
      </trkpt>
      <trkpt lat="48.97129" lon="0.97206">
        <ele>138.80000305176</ele>
        <time>2014-11-23T08:04:59.000Z</time>
      </trkpt>
      <trkpt lat="48.97166" lon="0.97212">
        <ele>138.39999389648</ele>
        <time>2014-11-23T08:05:10.000Z</time>
      </trkpt>
      <trkpt lat="48.97207" lon="0.97216">
        <ele>137.19999694824</ele>
        <time>2014-11-23T08:05:22.000Z</time>
      </trkpt>
      <trkpt lat="48.97233" lon="0.97223">
        <ele>136.39999389648</ele>
        <time>2014-11-23T08:05:28.000Z</time>
      </trkpt>
      <trkpt lat="48.97258" lon="0.97228">
        <ele>135.60000610352</ele>
        <time>2014-11-23T08:05:33.000Z</time>
      </trkpt>
      <trkpt lat="48.97311" lon="0.97239">
        <ele>133</ele>
        <time>2014-11-23T08:05:44.000Z</time>
      </trkpt>
      <trkpt lat="48.97356" lon="0.97246">
        <ele>131</ele>
        <time>2014-11-23T08:05:54.000Z</time>
      </trkpt>
      <trkpt lat="48.97395" lon="0.97265">
        <ele>129.60000610352</ele>
        <time>2014-11-23T08:06:04.000Z</time>
      </trkpt>
      <trkpt lat="48.97405" lon="0.97288">
        <ele>128.39999389648</ele>
        <time>2014-11-23T08:06:09.000Z</time>
      </trkpt>
      <trkpt lat="48.97386" lon="0.973">
        <ele>128</ele>
        <time>2014-11-23T08:06:16.000Z</time>
      </trkpt>
      <trkpt lat="48.97368" lon="0.97304">
        <ele>128</ele>
        <time>2014-11-23T08:06:21.000Z</time>
      </trkpt>
      <trkpt lat="48.97311" lon="0.97315">
        <ele>130.19999694824</ele>
        <time>2014-11-23T08:06:35.000Z</time>
      </trkpt>
      <trkpt lat="48.97261" lon="0.97322">
        <ele>132.60000610352</ele>
        <time>2014-11-23T08:06:49.000Z</time>
      </trkpt>
      <trkpt lat="48.9721" lon="0.9733">
        <ele>134.19999694824</ele>
        <time>2014-11-23T08:07:04.000Z</time>
      </trkpt>
      <trkpt lat="48.97201" lon="0.97332">
        <ele>135.80000305176</ele>
        <time>2014-11-23T08:07:07.000Z</time>
      </trkpt>
      <trkpt lat="48.97183" lon="0.97369">
        <ele>136.80000305176</ele>
        <time>2014-11-23T08:07:20.000Z</time>
      </trkpt>
      <trkpt lat="48.97176" lon="0.97386">
        <ele>136.80000305176</ele>
        <time>2014-11-23T08:07:33.000Z</time>
      </trkpt>
      <trkpt lat="48.97166" lon="0.97407">
        <ele>136.39999389648</ele>
        <time>2014-11-23T08:07:47.000Z</time>
      </trkpt>
      <trkpt lat="48.97165" lon="0.9741">
        <ele>136.19999694824</ele>
        <time>2014-11-23T08:07:49.000Z</time>
      </trkpt>
      <trkpt lat="48.97147" lon="0.97447">
        <ele>135.80000305176</ele>
        <time>2014-11-23T08:08:04.000Z</time>
      </trkpt>
      <trkpt lat="48.97136" lon="0.9748">
        <ele>137</ele>
        <time>2014-11-23T08:08:13.000Z</time>
      </trkpt>
      <trkpt lat="48.97134" lon="0.97505">
        <ele>135.60000610352</ele>
        <time>2014-11-23T08:08:19.000Z</time>
      </trkpt>
      <trkpt lat="48.97134" lon="0.97518">
        <ele>135.80000305176</ele>
        <time>2014-11-23T08:08:22.000Z</time>
      </trkpt>
      <trkpt lat="48.97115" lon="0.97546">
        <ele>140.19999694824</ele>
        <time>2014-11-23T08:08:31.000Z</time>
      </trkpt>
      <trkpt lat="48.97109" lon="0.97549">
        <ele>141.60000610352</ele>
        <time>2014-11-23T08:08:33.000Z</time>
      </trkpt>
      <trkpt lat="48.97104" lon="0.97552">
        <ele>142.19999694824</ele>
        <time>2014-11-23T08:08:35.000Z</time>
      </trkpt>
      <trkpt lat="48.97088" lon="0.97601">
        <ele>140.80000305176</ele>
        <time>2014-11-23T08:08:49.000Z</time>
      </trkpt>
      <trkpt lat="48.97088" lon="0.97606">
        <ele>140.60000610352</ele>
        <time>2014-11-23T08:08:50.000Z</time>
      </trkpt>
      <trkpt lat="48.97093" lon="0.9763">
        <ele>138.80000305176</ele>
        <time>2014-11-23T08:08:58.000Z</time>
      </trkpt>
      <trkpt lat="48.97097" lon="0.9764">
        <ele>138</ele>
        <time>2014-11-23T08:09:00.000Z</time>
      </trkpt>
      <trkpt lat="48.971" lon="0.97664">
        <ele>135</ele>
        <time>2014-11-23T08:09:04.000Z</time>
      </trkpt>
      <trkpt lat="48.97092" lon="0.97697">
        <ele>131.80000305176</ele>
        <time>2014-11-23T08:09:12.000Z</time>
      </trkpt>
      <trkpt lat="48.9709" lon="0.97703">
        <ele>131.19999694824</ele>
        <time>2014-11-23T08:09:14.000Z</time>
      </trkpt>
      <trkpt lat="48.97088" lon="0.97736">
        <ele>129.80000305176</ele>
        <time>2014-11-23T08:09:22.000Z</time>
      </trkpt>
      <trkpt lat="48.9708" lon="0.97757">
        <ele>131</ele>
        <time>2014-11-23T08:09:31.000Z</time>
      </trkpt>
      <trkpt lat="48.97076" lon="0.97766">
        <ele>131.80000305176</ele>
        <time>2014-11-23T08:09:38.000Z</time>
      </trkpt>
      <trkpt lat="48.97074" lon="0.97782">
        <ele>132.39999389648</ele>
        <time>2014-11-23T08:09:43.000Z</time>
      </trkpt>
      <trkpt lat="48.97073" lon="0.97782">
        <ele>132.60000610352</ele>
        <time>2014-11-23T08:09:44.000Z</time>
      </trkpt>
      <trkpt lat="48.97069" lon="0.97781">
        <ele>133</ele>
        <time>2014-11-23T08:09:47.000Z</time>
      </trkpt>
      <trkpt lat="48.97068" lon="0.9778">
        <ele>133.19999694824</ele>
        <time>2014-11-23T08:09:48.000Z</time>
      </trkpt>
      <trkpt lat="48.97067" lon="0.9778">
        <ele>133.39999389648</ele>
        <time>2014-11-23T08:09:49.000Z</time>
      </trkpt>
      <trkpt lat="48.97065" lon="0.9778">
        <ele>133.60000610352</ele>
        <time>2014-11-23T08:09:50.000Z</time>
      </trkpt>
      <trkpt lat="48.97064" lon="0.9778">
        <ele>133.80000305176</ele>
        <time>2014-11-23T08:09:51.000Z</time>
      </trkpt>
      <trkpt lat="48.97063" lon="0.9778">
        <ele>134</ele>
        <time>2014-11-23T08:09:52.000Z</time>
      </trkpt>
      <trkpt lat="48.97055" lon="0.97785">
        <ele>135.39999389648</ele>
        <time>2014-11-23T08:10:00.000Z</time>
      </trkpt>
      <trkpt lat="48.97055" lon="0.97786">
        <ele>135.60000610352</ele>
        <time>2014-11-23T08:10:01.000Z</time>
      </trkpt>
      <trkpt lat="48.97054" lon="0.97787">
        <ele>135.60000610352</ele>
        <time>2014-11-23T08:10:02.000Z</time>
      </trkpt>
      <trkpt lat="48.97053" lon="0.97788">
        <ele>135.80000305176</ele>
        <time>2014-11-23T08:10:03.000Z</time>
      </trkpt>
      <trkpt lat="48.97052" lon="0.97789">
        <ele>136</ele>
        <time>2014-11-23T08:10:04.000Z</time>
      </trkpt>
      <trkpt lat="48.97051" lon="0.9779">
        <ele>136.19999694824</ele>
        <time>2014-11-23T08:10:05.000Z</time>
      </trkpt>
      <trkpt lat="48.9705" lon="0.97791">
        <ele>136.39999389648</ele>
        <time>2014-11-23T08:10:06.000Z</time>
      </trkpt>
      <trkpt lat="48.97049" lon="0.97792">
        <ele>136.60000610352</ele>
        <time>2014-11-23T08:10:07.000Z</time>
      </trkpt>
      <trkpt lat="48.97048" lon="0.97792">
        <ele>136.80000305176</ele>
        <time>2014-11-23T08:10:08.000Z</time>
      </trkpt>
      <trkpt lat="48.97047" lon="0.97793">
        <ele>137</ele>
        <time>2014-11-23T08:10:09.000Z</time>
      </trkpt>
      <trkpt lat="48.97046" lon="0.97794">
        <ele>137.19999694824</ele>
        <time>2014-11-23T08:10:10.000Z</time>
      </trkpt>
      <trkpt lat="48.97044" lon="0.97795">
        <ele>137.39999389648</ele>
        <time>2014-11-23T08:10:11.000Z</time>
      </trkpt>
      <trkpt lat="48.97043" lon="0.97796">
        <ele>137.60000610352</ele>
        <time>2014-11-23T08:10:12.000Z</time>
      </trkpt>
      <trkpt lat="48.97027" lon="0.97812">
        <ele>141</ele>
        <time>2014-11-23T08:10:28.000Z</time>
      </trkpt>
      <trkpt lat="48.97012" lon="0.97827">
        <ele>144</ele>
        <time>2014-11-23T08:10:40.000Z</time>
      </trkpt>
      <trkpt lat="48.96984" lon="0.97844">
        <ele>149</ele>
        <time>2014-11-23T08:10:57.000Z</time>
      </trkpt>
      <trkpt lat="48.96964" lon="0.97854">
        <ele>151</ele>
        <time>2014-11-23T08:11:09.000Z</time>
      </trkpt>
      <trkpt lat="48.96949" lon="0.97871">
        <ele>152.19999694824</ele>
        <time>2014-11-23T08:11:20.000Z</time>
      </trkpt>
      <trkpt lat="48.96948" lon="0.97873">
        <ele>152.19999694824</ele>
        <time>2014-11-23T08:11:21.000Z</time>
      </trkpt>
      <trkpt lat="48.96947" lon="0.97875">
        <ele>152.39999389648</ele>
        <time>2014-11-23T08:11:22.000Z</time>
      </trkpt>
      <trkpt lat="48.96946" lon="0.97876">
        <ele>152.39999389648</ele>
        <time>2014-11-23T08:11:23.000Z</time>
      </trkpt>
      <trkpt lat="48.96944" lon="0.97878">
        <ele>152.60000610352</ele>
        <time>2014-11-23T08:11:24.000Z</time>
      </trkpt>
      <trkpt lat="48.96943" lon="0.9788">
        <ele>152.80000305176</ele>
        <time>2014-11-23T08:11:25.000Z</time>
      </trkpt>
      <trkpt lat="48.96928" lon="0.97906">
        <ele>154</ele>
        <time>2014-11-23T08:11:38.000Z</time>
      </trkpt>
      <trkpt lat="48.96912" lon="0.97942">
        <ele>155.80000305176</ele>
        <time>2014-11-23T08:11:50.000Z</time>
      </trkpt>
      <trkpt lat="48.9689" lon="0.97982">
        <ele>156.60000610352</ele>
        <time>2014-11-23T08:12:03.000Z</time>
      </trkpt>
      <trkpt lat="48.96888" lon="0.97984">
        <ele>156.80000305176</ele>
        <time>2014-11-23T08:12:04.000Z</time>
      </trkpt>
      <trkpt lat="48.96886" lon="0.97987">
        <ele>156.80000305176</ele>
        <time>2014-11-23T08:12:05.000Z</time>
      </trkpt>
      <trkpt lat="48.96863" lon="0.98017">
        <ele>157</ele>
        <time>2014-11-23T08:12:18.000Z</time>
      </trkpt>
      <trkpt lat="48.96863" lon="0.98021">
        <ele>157</ele>
        <time>2014-11-23T08:12:19.000Z</time>
      </trkpt>
      <trkpt lat="48.96862" lon="0.98024">
        <ele>157</ele>
        <time>2014-11-23T08:12:20.000Z</time>
      </trkpt>
      <trkpt lat="48.96862" lon="0.98027">
        <ele>157</ele>
        <time>2014-11-23T08:12:21.000Z</time>
      </trkpt>
      <trkpt lat="48.96862" lon="0.98029">
        <ele>157</ele>
        <time>2014-11-23T08:12:22.000Z</time>
      </trkpt>
      <trkpt lat="48.96862" lon="0.98032">
        <ele>157</ele>
        <time>2014-11-23T08:12:23.000Z</time>
      </trkpt>
      <trkpt lat="48.96861" lon="0.98035">
        <ele>157</ele>
        <time>2014-11-23T08:12:24.000Z</time>
      </trkpt>
      <trkpt lat="48.9686" lon="0.98037">
        <ele>157</ele>
        <time>2014-11-23T08:12:25.000Z</time>
      </trkpt>
      <trkpt lat="48.96858" lon="0.98043">
        <ele>157</ele>
        <time>2014-11-23T08:12:28.000Z</time>
      </trkpt>
      <trkpt lat="48.96859" lon="0.98046">
        <ele>157</ele>
        <time>2014-11-23T08:12:29.000Z</time>
      </trkpt>
      <trkpt lat="48.96863" lon="0.98055">
        <ele>157</ele>
        <time>2014-11-23T08:12:40.000Z</time>
      </trkpt>
      <trkpt lat="48.96873" lon="0.98057">
        <ele>157</ele>
        <time>2014-11-23T08:12:47.000Z</time>
      </trkpt>
      <trkpt lat="48.96898" lon="0.98053">
        <ele>157</ele>
        <time>2014-11-23T08:12:59.000Z</time>
      </trkpt>
      <trkpt lat="48.96929" lon="0.98055">
        <ele>157</ele>
        <time>2014-11-23T08:13:11.000Z</time>
      </trkpt>
      <trkpt lat="48.96958" lon="0.98035">
        <ele>155.39999389648</ele>
        <time>2014-11-23T08:13:23.000Z</time>
      </trkpt>
      <trkpt lat="48.96982" lon="0.98022">
        <ele>153</ele>
        <time>2014-11-23T08:13:33.000Z</time>
      </trkpt>
      <trkpt lat="48.96988" lon="0.9802">
        <ele>152.60000610352</ele>
        <time>2014-11-23T08:13:35.000Z</time>
      </trkpt>
      <trkpt lat="48.97002" lon="0.98046">
        <ele>151.80000305176</ele>
        <time>2014-11-23T08:13:41.000Z</time>
      </trkpt>
      <trkpt lat="48.9701" lon="0.98048">
        <ele>151.19999694824</ele>
        <time>2014-11-23T08:13:43.000Z</time>
      </trkpt>
      <trkpt lat="48.97021" lon="0.98045">
        <ele>150.19999694824</ele>
        <time>2014-11-23T08:13:46.000Z</time>
      </trkpt>
      <trkpt lat="48.97026" lon="0.9804">
        <ele>149.80000305176</ele>
        <time>2014-11-23T08:13:49.000Z</time>
      </trkpt>
      <trkpt lat="48.97029" lon="0.98013">
        <ele>149.60000610352</ele>
        <time>2014-11-23T08:13:59.000Z</time>
      </trkpt>
      <trkpt lat="48.97028" lon="0.98011">
        <ele>149.60000610352</ele>
        <time>2014-11-23T08:14:00.000Z</time>
      </trkpt>
      <trkpt lat="48.97027" lon="0.97995">
        <ele>149.80000305176</ele>
        <time>2014-11-23T08:14:05.000Z</time>
      </trkpt>
      <trkpt lat="48.97028" lon="0.97986">
        <ele>149.60000610352</ele>
        <time>2014-11-23T08:14:09.000Z</time>
      </trkpt>
      <trkpt lat="48.97041" lon="0.97968">
        <ele>147.80000305176</ele>
        <time>2014-11-23T08:14:18.000Z</time>
      </trkpt>
      <trkpt lat="48.97043" lon="0.97968">
        <ele>147.60000610352</ele>
        <time>2014-11-23T08:14:19.000Z</time>
      </trkpt>
      <trkpt lat="48.97047" lon="0.97967">
        <ele>147</ele>
        <time>2014-11-23T08:14:21.000Z</time>
      </trkpt>
      <trkpt lat="48.97053" lon="0.97963">
        <ele>146.19999694824</ele>
        <time>2014-11-23T08:14:34.000Z</time>
      </trkpt>
      <trkpt lat="48.97057" lon="0.97963">
        <ele>145.60000610352</ele>
        <time>2014-11-23T08:14:52.000Z</time>
      </trkpt>
      <trkpt lat="48.97061" lon="0.97964">
        <ele>145.19999694824</ele>
        <time>2014-11-23T08:15:18.000Z</time>
      </trkpt>
      <trkpt lat="48.97059" lon="0.97964">
        <ele>145.39999389648</ele>
        <time>2014-11-23T08:15:48.000Z</time>
      </trkpt>
      <trkpt lat="48.9706" lon="0.97964">
        <ele>145.39999389648</ele>
        <time>2014-11-23T08:16:10.000Z</time>
      </trkpt>
      <trkpt lat="48.97059" lon="0.97962">
        <ele>145.39999389648</ele>
        <time>2014-11-23T08:16:32.000Z</time>
      </trkpt>
      <trkpt lat="48.97057" lon="0.97964">
        <ele>145.80000305176</ele>
        <time>2014-11-23T08:17:07.000Z</time>
      </trkpt>
      <trkpt lat="48.97058" lon="0.97965">
        <ele>145.60000610352</ele>
        <time>2014-11-23T08:17:28.000Z</time>
      </trkpt>
      <trkpt lat="48.97056" lon="0.97975">
        <ele>146.19999694824</ele>
        <time>2014-11-23T08:17:33.000Z</time>
      </trkpt>
      <trkpt lat="48.97061" lon="0.98004">
        <ele>146</ele>
        <time>2014-11-23T08:17:40.000Z</time>
      </trkpt>
      <trkpt lat="48.97065" lon="0.98007">
        <ele>145.60000610352</ele>
        <time>2014-11-23T08:17:42.000Z</time>
      </trkpt>
      <trkpt lat="48.97069" lon="0.98015">
        <ele>145.19999694824</ele>
        <time>2014-11-23T08:17:44.000Z</time>
      </trkpt>
      <trkpt lat="48.9706" lon="0.9805">
        <ele>146.19999694824</ele>
        <time>2014-11-23T08:17:55.000Z</time>
      </trkpt>
      <trkpt lat="48.97059" lon="0.98052">
        <ele>146.19999694824</ele>
        <time>2014-11-23T08:17:56.000Z</time>
      </trkpt>
      <trkpt lat="48.97049" lon="0.98081">
        <ele>148.19999694824</ele>
        <time>2014-11-23T08:18:08.000Z</time>
      </trkpt>
      <trkpt lat="48.97041" lon="0.98092">
        <ele>149</ele>
        <time>2014-11-23T08:18:13.000Z</time>
      </trkpt>
      <trkpt lat="48.97039" lon="0.98097">
        <ele>149.19999694824</ele>
        <time>2014-11-23T08:18:15.000Z</time>
      </trkpt>
      <trkpt lat="48.9703" lon="0.98121">
        <ele>150.19999694824</ele>
        <time>2014-11-23T08:18:27.000Z</time>
      </trkpt>
      <trkpt lat="48.97028" lon="0.98163">
        <ele>151</ele>
        <time>2014-11-23T08:18:40.000Z</time>
      </trkpt>
      <trkpt lat="48.97023" lon="0.98192">
        <ele>151.80000305176</ele>
        <time>2014-11-23T08:18:51.000Z</time>
      </trkpt>
      <trkpt lat="48.97019" lon="0.98201">
        <ele>152</ele>
        <time>2014-11-23T08:18:56.000Z</time>
      </trkpt>
      <trkpt lat="48.97014" lon="0.98235">
        <ele>151.80000305176</ele>
        <time>2014-11-23T08:19:08.000Z</time>
      </trkpt>
      <trkpt lat="48.97014" lon="0.98254">
        <ele>151.39999389648</ele>
        <time>2014-11-23T08:19:15.000Z</time>
      </trkpt>
      <trkpt lat="48.97037" lon="0.98244">
        <ele>151.19999694824</ele>
        <time>2014-11-23T08:19:29.000Z</time>
      </trkpt>
      <trkpt lat="48.97055" lon="0.98235">
        <ele>150.39999389648</ele>
        <time>2014-11-23T08:19:40.000Z</time>
      </trkpt>
      <trkpt lat="48.97079" lon="0.98218">
        <ele>148.60000610352</ele>
        <time>2014-11-23T08:19:52.000Z</time>
      </trkpt>
      <trkpt lat="48.97091" lon="0.98213">
        <ele>147.80000305176</ele>
        <time>2014-11-23T08:19:57.000Z</time>
      </trkpt>
      <trkpt lat="48.97105" lon="0.98192">
        <ele>146</ele>
        <time>2014-11-23T08:20:06.000Z</time>
      </trkpt>
      <trkpt lat="48.97101" lon="0.98179">
        <ele>146</ele>
        <time>2014-11-23T08:20:12.000Z</time>
      </trkpt>
      <trkpt lat="48.97097" lon="0.98151">
        <ele>145.19999694824</ele>
        <time>2014-11-23T08:20:22.000Z</time>
      </trkpt>
      <trkpt lat="48.97097" lon="0.98147">
        <ele>145.19999694824</ele>
        <time>2014-11-23T08:20:23.000Z</time>
      </trkpt>
      <trkpt lat="48.97084" lon="0.98114">
        <ele>145.60000610352</ele>
        <time>2014-11-23T08:20:31.000Z</time>
      </trkpt>
      <trkpt lat="48.97094" lon="0.98096">
        <ele>144</ele>
        <time>2014-11-23T08:20:40.000Z</time>
      </trkpt>
      <trkpt lat="48.97099" lon="0.98093">
        <ele>143.19999694824</ele>
        <time>2014-11-23T08:20:42.000Z</time>
      </trkpt>
      <trkpt lat="48.97104" lon="0.98087">
        <ele>142.39999389648</ele>
        <time>2014-11-23T08:20:45.000Z</time>
      </trkpt>
      <trkpt lat="48.97109" lon="0.98075">
        <ele>141.39999389648</ele>
        <time>2014-11-23T08:20:49.000Z</time>
      </trkpt>
      <trkpt lat="48.97113" lon="0.98066">
        <ele>139.80000305176</ele>
        <time>2014-11-23T08:20:58.000Z</time>
      </trkpt>
      <trkpt lat="48.97128" lon="0.9805">
        <ele>133.80000305176</ele>
        <time>2014-11-23T08:21:16.000Z</time>
      </trkpt>
      <trkpt lat="48.97133" lon="0.98051">
        <ele>132.39999389648</ele>
        <time>2014-11-23T08:21:28.000Z</time>
      </trkpt>
      <trkpt lat="48.97133" lon="0.98048">
        <ele>132</ele>
        <time>2014-11-23T08:21:40.000Z</time>
      </trkpt>
      <trkpt lat="48.97138" lon="0.98035">
        <ele>130.39999389648</ele>
        <time>2014-11-23T08:21:45.000Z</time>
      </trkpt>
      <trkpt lat="48.97142" lon="0.98004">
        <ele>128.39999389648</ele>
        <time>2014-11-23T08:21:55.000Z</time>
      </trkpt>
      <trkpt lat="48.9714" lon="0.97994">
        <ele>129</ele>
        <time>2014-11-23T08:22:12.000Z</time>
      </trkpt>
      <trkpt lat="48.9714" lon="0.97991">
        <ele>128.80000305176</ele>
        <time>2014-11-23T08:22:16.000Z</time>
      </trkpt>
      <trkpt lat="48.97142" lon="0.97948">
        <ele>126.80000305176</ele>
        <time>2014-11-23T08:22:28.000Z</time>
      </trkpt>
      <trkpt lat="48.97145" lon="0.97884">
        <ele>123</ele>
        <time>2014-11-23T08:22:41.000Z</time>
      </trkpt>
      <trkpt lat="48.97145" lon="0.97837">
        <ele>118.59999847412</ele>
        <time>2014-11-23T08:22:52.000Z</time>
      </trkpt>
      <trkpt lat="48.97145" lon="0.97834">
        <ele>118.59999847412</ele>
        <time>2014-11-23T08:22:55.000Z</time>
      </trkpt>
      <trkpt lat="48.97149" lon="0.9785">
        <ele>117.80000305176</ele>
        <time>2014-11-23T08:23:04.000Z</time>
      </trkpt>
      <trkpt lat="48.97149" lon="0.97862">
        <ele>119.19999694824</ele>
        <time>2014-11-23T08:23:07.000Z</time>
      </trkpt>
      <trkpt lat="48.97155" lon="0.97914">
        <ele>120.80000305176</ele>
        <time>2014-11-23T08:23:17.000Z</time>
      </trkpt>
      <trkpt lat="48.97164" lon="0.97967">
        <ele>119.59999847412</ele>
        <time>2014-11-23T08:23:29.000Z</time>
      </trkpt>
      <trkpt lat="48.97168" lon="0.98">
        <ele>119</ele>
        <time>2014-11-23T08:23:37.000Z</time>
      </trkpt>
      <trkpt lat="48.97179" lon="0.98052">
        <ele>116.40000152588</ele>
        <time>2014-11-23T08:23:49.000Z</time>
      </trkpt>
      <trkpt lat="48.97182" lon="0.98064">
        <ele>115.80000305176</ele>
        <time>2014-11-23T08:23:52.000Z</time>
      </trkpt>
      <trkpt lat="48.97186" lon="0.98087">
        <ele>116.80000305176</ele>
        <time>2014-11-23T08:23:57.000Z</time>
      </trkpt>
      <trkpt lat="48.97205" lon="0.98147">
        <ele>117.80000305176</ele>
        <time>2014-11-23T08:24:11.000Z</time>
      </trkpt>
      <trkpt lat="48.97225" lon="0.98195">
        <ele>116.80000305176</ele>
        <time>2014-11-23T08:24:24.000Z</time>
      </trkpt>
      <trkpt lat="48.97242" lon="0.98236">
        <ele>116.59999847412</ele>
        <time>2014-11-23T08:24:35.000Z</time>
      </trkpt>
      <trkpt lat="48.9725" lon="0.98252">
        <ele>116.59999847412</ele>
        <time>2014-11-23T08:24:40.000Z</time>
      </trkpt>
      <trkpt lat="48.97264" lon="0.98276">
        <ele>115.59999847412</ele>
        <time>2014-11-23T08:24:48.000Z</time>
      </trkpt>
      <trkpt lat="48.97287" lon="0.98308">
        <ele>114.40000152588</ele>
        <time>2014-11-23T08:25:00.000Z</time>
      </trkpt>
      <trkpt lat="48.97318" lon="0.98354">
        <ele>114.19999694824</ele>
        <time>2014-11-23T08:25:16.000Z</time>
      </trkpt>
      <trkpt lat="48.97349" lon="0.98389">
        <ele>112.80000305176</ele>
        <time>2014-11-23T08:25:28.000Z</time>
      </trkpt>
      <trkpt lat="48.97372" lon="0.98424">
        <ele>113.59999847412</ele>
        <time>2014-11-23T08:25:38.000Z</time>
      </trkpt>
      <trkpt lat="48.97393" lon="0.9845">
        <ele>113.80000305176</ele>
        <time>2014-11-23T08:25:46.000Z</time>
      </trkpt>
      <trkpt lat="48.97398" lon="0.98463">
        <ele>114.80000305176</ele>
        <time>2014-11-23T08:25:58.000Z</time>
      </trkpt>
      <trkpt lat="48.974" lon="0.98473">
        <ele>116.19999694824</ele>
        <time>2014-11-23T08:26:10.000Z</time>
      </trkpt>
      <trkpt lat="48.97402" lon="0.98478">
        <ele>116.59999847412</ele>
        <time>2014-11-23T08:26:18.000Z</time>
      </trkpt>
      <trkpt lat="48.97411" lon="0.9849">
        <ele>116.80000305176</ele>
        <time>2014-11-23T08:26:24.000Z</time>
      </trkpt>
      <trkpt lat="48.97423" lon="0.98511">
        <ele>118.40000152588</ele>
        <time>2014-11-23T08:26:39.000Z</time>
      </trkpt>
      <trkpt lat="48.97428" lon="0.98527">
        <ele>120</ele>
        <time>2014-11-23T08:26:51.000Z</time>
      </trkpt>
      <trkpt lat="48.97434" lon="0.98541">
        <ele>121.40000152588</ele>
        <time>2014-11-23T08:27:05.000Z</time>
      </trkpt>
      <trkpt lat="48.97442" lon="0.98561">
        <ele>123.19999694824</ele>
        <time>2014-11-23T08:27:22.000Z</time>
      </trkpt>
      <trkpt lat="48.97448" lon="0.98579">
        <ele>123.80000305176</ele>
        <time>2014-11-23T08:27:36.000Z</time>
      </trkpt>
      <trkpt lat="48.97452" lon="0.986">
        <ele>125</ele>
        <time>2014-11-23T08:27:50.000Z</time>
      </trkpt>
      <trkpt lat="48.97456" lon="0.98615">
        <ele>125.80000305176</ele>
        <time>2014-11-23T08:28:03.000Z</time>
      </trkpt>
      <trkpt lat="48.97462" lon="0.98635">
        <ele>126.59999847412</ele>
        <time>2014-11-23T08:28:16.000Z</time>
      </trkpt>
      <trkpt lat="48.97467" lon="0.98661">
        <ele>128.39999389648</ele>
        <time>2014-11-23T08:28:32.000Z</time>
      </trkpt>
      <trkpt lat="48.97471" lon="0.98682">
        <ele>129.39999389648</ele>
        <time>2014-11-23T08:28:47.000Z</time>
      </trkpt>
      <trkpt lat="48.97479" lon="0.98691">
        <ele>128.60000610352</ele>
        <time>2014-11-23T08:28:54.000Z</time>
      </trkpt>
      <trkpt lat="48.97484" lon="0.98671">
        <ele>125.80000305176</ele>
        <time>2014-11-23T08:29:01.000Z</time>
      </trkpt>
      <trkpt lat="48.97489" lon="0.98666">
        <ele>124.19999694824</ele>
        <time>2014-11-23T08:29:03.000Z</time>
      </trkpt>
      <trkpt lat="48.9749" lon="0.98639">
        <ele>120.59999847412</ele>
        <time>2014-11-23T08:29:08.000Z</time>
      </trkpt>
      <trkpt lat="48.97503" lon="0.98642">
        <ele>118</ele>
        <time>2014-11-23T08:29:15.000Z</time>
      </trkpt>
      <trkpt lat="48.97509" lon="0.9864">
        <ele>116.40000152588</ele>
        <time>2014-11-23T08:29:32.000Z</time>
      </trkpt>
      <trkpt lat="48.9751" lon="0.98646">
        <ele>117</ele>
        <time>2014-11-23T08:29:49.000Z</time>
      </trkpt>
      <trkpt lat="48.97522" lon="0.98675">
        <ele>117.80000305176</ele>
        <time>2014-11-23T08:30:02.000Z</time>
      </trkpt>
      <trkpt lat="48.97535" lon="0.98722">
        <ele>119.59999847412</ele>
        <time>2014-11-23T08:30:15.000Z</time>
      </trkpt>
      <trkpt lat="48.97545" lon="0.98769">
        <ele>119.59999847412</ele>
        <time>2014-11-23T08:30:27.000Z</time>
      </trkpt>
      <trkpt lat="48.97555" lon="0.98809">
        <ele>119</ele>
        <time>2014-11-23T08:30:37.000Z</time>
      </trkpt>
      <trkpt lat="48.97574" lon="0.98885">
        <ele>117</ele>
        <time>2014-11-23T08:30:52.000Z</time>
      </trkpt>
      <trkpt lat="48.97589" lon="0.98938">
        <ele>115.19999694824</ele>
        <time>2014-11-23T08:31:02.000Z</time>
      </trkpt>
      <trkpt lat="48.97591" lon="0.9895">
        <ele>115.19999694824</ele>
        <time>2014-11-23T08:31:04.000Z</time>
      </trkpt>
      <trkpt lat="48.97608" lon="0.99013">
        <ele>111.19999694824</ele>
        <time>2014-11-23T08:31:13.000Z</time>
      </trkpt>
      <trkpt lat="48.97611" lon="0.99048">
        <ele>109.59999847412</ele>
        <time>2014-11-23T08:31:21.000Z</time>
      </trkpt>
      <trkpt lat="48.97607" lon="0.9905">
        <ele>110.19999694824</ele>
        <time>2014-11-23T08:31:34.000Z</time>
      </trkpt>
      <trkpt lat="48.97602" lon="0.99049">
        <ele>111.19999694824</ele>
        <time>2014-11-23T08:31:46.000Z</time>
      </trkpt>
      <trkpt lat="48.97593" lon="0.99046">
        <ele>112.40000152588</ele>
        <time>2014-11-23T08:31:58.000Z</time>
      </trkpt>
      <trkpt lat="48.97591" lon="0.99045">
        <ele>112.80000305176</ele>
        <time>2014-11-23T08:32:03.000Z</time>
      </trkpt>
      <trkpt lat="48.97575" lon="0.99038">
        <ele>115</ele>
        <time>2014-11-23T08:32:12.000Z</time>
      </trkpt>
      <trkpt lat="48.97565" lon="0.99033">
        <ele>116.59999847412</ele>
        <time>2014-11-23T08:32:17.000Z</time>
      </trkpt>
      <trkpt lat="48.97541" lon="0.99025">
        <ele>120</ele>
        <time>2014-11-23T08:32:32.000Z</time>
      </trkpt>
      <trkpt lat="48.97525" lon="0.99017">
        <ele>122.40000152588</ele>
        <time>2014-11-23T08:32:44.000Z</time>
      </trkpt>
      <trkpt lat="48.97506" lon="0.99006">
        <ele>124.19999694824</ele>
        <time>2014-11-23T08:32:56.000Z</time>
      </trkpt>
      <trkpt lat="48.97504" lon="0.99005">
        <ele>124.40000152588</ele>
        <time>2014-11-23T08:32:57.000Z</time>
      </trkpt>
      <trkpt lat="48.97486" lon="0.98984">
        <ele>126.40000152588</ele>
        <time>2014-11-23T08:33:10.000Z</time>
      </trkpt>
      <trkpt lat="48.97475" lon="0.98971">
        <ele>127.80000305176</ele>
        <time>2014-11-23T08:33:21.000Z</time>
      </trkpt>
      <trkpt lat="48.97473" lon="0.98974">
        <ele>127.80000305176</ele>
        <time>2014-11-23T08:33:45.000Z</time>
      </trkpt>
      <trkpt lat="48.97469" lon="0.98975">
        <ele>128</ele>
        <time>2014-11-23T08:33:58.000Z</time>
      </trkpt>
      <trkpt lat="48.97459" lon="0.98977">
        <ele>128.60000610352</ele>
        <time>2014-11-23T08:34:06.000Z</time>
      </trkpt>
      <trkpt lat="48.97434" lon="0.98971">
        <ele>130.39999389648</ele>
        <time>2014-11-23T08:34:21.000Z</time>
      </trkpt>
      <trkpt lat="48.9742" lon="0.9896">
        <ele>131.39999389648</ele>
        <time>2014-11-23T08:34:29.000Z</time>
      </trkpt>
      <trkpt lat="48.97406" lon="0.98951">
        <ele>132.39999389648</ele>
        <time>2014-11-23T08:34:36.000Z</time>
      </trkpt>
      <trkpt lat="48.97371" lon="0.98927">
        <ele>134.80000305176</ele>
        <time>2014-11-23T08:34:50.000Z</time>
      </trkpt>
      <trkpt lat="48.97344" lon="0.98915">
        <ele>136.19999694824</ele>
        <time>2014-11-23T08:35:03.000Z</time>
      </trkpt>
      <trkpt lat="48.9732" lon="0.98892">
        <ele>137.80000305176</ele>
        <time>2014-11-23T08:35:14.000Z</time>
      </trkpt>
      <trkpt lat="48.9729" lon="0.98884">
        <ele>138.60000610352</ele>
        <time>2014-11-23T08:35:26.000Z</time>
      </trkpt>
      <trkpt lat="48.97264" lon="0.98866">
        <ele>139.60000610352</ele>
        <time>2014-11-23T08:35:39.000Z</time>
      </trkpt>
      <trkpt lat="48.97237" lon="0.98842">
        <ele>140.80000305176</ele>
        <time>2014-11-23T08:35:52.000Z</time>
      </trkpt>
      <trkpt lat="48.97213" lon="0.98828">
        <ele>142</ele>
        <time>2014-11-23T08:36:03.000Z</time>
      </trkpt>
      <trkpt lat="48.97181" lon="0.98826">
        <ele>143.80000305176</ele>
        <time>2014-11-23T08:36:13.000Z</time>
      </trkpt>
      <trkpt lat="48.97157" lon="0.98816">
        <ele>144.80000305176</ele>
        <time>2014-11-23T08:36:22.000Z</time>
      </trkpt>
      <trkpt lat="48.97132" lon="0.98782">
        <ele>145.60000610352</ele>
        <time>2014-11-23T08:36:35.000Z</time>
      </trkpt>
      <trkpt lat="48.97112" lon="0.98751">
        <ele>146.19999694824</ele>
        <time>2014-11-23T08:36:47.000Z</time>
      </trkpt>
      <trkpt lat="48.97094" lon="0.98721">
        <ele>146.60000610352</ele>
        <time>2014-11-23T08:36:58.000Z</time>
      </trkpt>
      <trkpt lat="48.97075" lon="0.98685">
        <ele>147.19999694824</ele>
        <time>2014-11-23T08:37:11.000Z</time>
      </trkpt>
      <trkpt lat="48.97057" lon="0.98663">
        <ele>147.80000305176</ele>
        <time>2014-11-23T08:37:21.000Z</time>
      </trkpt>
      <trkpt lat="48.97036" lon="0.98669">
        <ele>148.80000305176</ele>
        <time>2014-11-23T08:37:30.000Z</time>
      </trkpt>
      <trkpt lat="48.97031" lon="0.98683">
        <ele>149.19999694824</ele>
        <time>2014-11-23T08:37:35.000Z</time>
      </trkpt>
      <trkpt lat="48.97039" lon="0.98733">
        <ele>149.39999389648</ele>
        <time>2014-11-23T08:37:49.000Z</time>
      </trkpt>
      <trkpt lat="48.9704" lon="0.98743">
        <ele>149.39999389648</ele>
        <time>2014-11-23T08:37:51.000Z</time>
      </trkpt>
      <trkpt lat="48.97054" lon="0.98793">
        <ele>149</ele>
        <time>2014-11-23T08:38:03.000Z</time>
      </trkpt>
      <trkpt lat="48.97067" lon="0.98839">
        <ele>148.80000305176</ele>
        <time>2014-11-23T08:38:14.000Z</time>
      </trkpt>
      <trkpt lat="48.97084" lon="0.98895">
        <ele>148</ele>
        <time>2014-11-23T08:38:26.000Z</time>
      </trkpt>
      <trkpt lat="48.97093" lon="0.98901">
        <ele>147.80000305176</ele>
        <time>2014-11-23T08:38:30.000Z</time>
      </trkpt>
      <trkpt lat="48.97117" lon="0.98911">
        <ele>147.39999389648</ele>
        <time>2014-11-23T08:38:37.000Z</time>
      </trkpt>
      <trkpt lat="48.97149" lon="0.98937">
        <ele>146</ele>
        <time>2014-11-23T08:38:46.000Z</time>
      </trkpt>
      <trkpt lat="48.97171" lon="0.98953">
        <ele>145</ele>
        <time>2014-11-23T08:38:51.000Z</time>
      </trkpt>
      <trkpt lat="48.97194" lon="0.98959">
        <ele>143.80000305176</ele>
        <time>2014-11-23T08:38:55.000Z</time>
      </trkpt>
      <trkpt lat="48.97219" lon="0.9897">
        <ele>142</ele>
        <time>2014-11-23T08:38:59.000Z</time>
      </trkpt>
      <trkpt lat="48.97274" lon="0.99002">
        <ele>138.60000610352</ele>
        <time>2014-11-23T08:39:09.000Z</time>
      </trkpt>
      <trkpt lat="48.97305" lon="0.99016">
        <ele>137.19999694824</ele>
        <time>2014-11-23T08:39:15.000Z</time>
      </trkpt>
      <trkpt lat="48.97336" lon="0.99033">
        <ele>135.80000305176</ele>
        <time>2014-11-23T08:39:21.000Z</time>
      </trkpt>
      <trkpt lat="48.97355" lon="0.99043">
        <ele>134.80000305176</ele>
        <time>2014-11-23T08:39:25.000Z</time>
      </trkpt>
      <trkpt lat="48.97383" lon="0.99053">
        <ele>132.80000305176</ele>
        <time>2014-11-23T08:39:31.000Z</time>
      </trkpt>
      <trkpt lat="48.97425" lon="0.99081">
        <ele>130.19999694824</ele>
        <time>2014-11-23T08:39:39.000Z</time>
      </trkpt>
      <trkpt lat="48.9746" lon="0.99092">
        <ele>128.39999389648</ele>
        <time>2014-11-23T08:39:46.000Z</time>
      </trkpt>
      <trkpt lat="48.97477" lon="0.99101">
        <ele>127.80000305176</ele>
        <time>2014-11-23T08:39:49.000Z</time>
      </trkpt>
      <trkpt lat="48.97504" lon="0.99135">
        <ele>127.80000305176</ele>
        <time>2014-11-23T08:39:56.000Z</time>
      </trkpt>
      <trkpt lat="48.97519" lon="0.99169">
        <ele>128.19999694824</ele>
        <time>2014-11-23T08:40:01.000Z</time>
      </trkpt>
      <trkpt lat="48.97531" lon="0.99196">
        <ele>128.19999694824</ele>
        <time>2014-11-23T08:40:06.000Z</time>
      </trkpt>
      <trkpt lat="48.97552" lon="0.99228">
        <ele>127.19999694824</ele>
        <time>2014-11-23T08:40:13.000Z</time>
      </trkpt>
      <trkpt lat="48.9757" lon="0.99261">
        <ele>126.80000305176</ele>
        <time>2014-11-23T08:40:23.000Z</time>
      </trkpt>
      <trkpt lat="48.97575" lon="0.99279">
        <ele>127</ele>
        <time>2014-11-23T08:40:27.000Z</time>
      </trkpt>
      <trkpt lat="48.97583" lon="0.99299">
        <ele>126.59999847412</ele>
        <time>2014-11-23T08:40:30.000Z</time>
      </trkpt>
      <trkpt lat="48.97607" lon="0.99319">
        <ele>125.40000152588</ele>
        <time>2014-11-23T08:40:35.000Z</time>
      </trkpt>
      <trkpt lat="48.97624" lon="0.99322">
        <ele>121.59999847412</ele>
        <time>2014-11-23T08:40:38.000Z</time>
      </trkpt>
      <trkpt lat="48.97644" lon="0.99365">
        <ele>118.40000152588</ele>
        <time>2014-11-23T08:40:46.000Z</time>
      </trkpt>
      <trkpt lat="48.97647" lon="0.99378">
        <ele>118</ele>
        <time>2014-11-23T08:40:48.000Z</time>
      </trkpt>
      <trkpt lat="48.97671" lon="0.99453">
        <ele>116.59999847412</ele>
        <time>2014-11-23T08:41:00.000Z</time>
      </trkpt>
      <trkpt lat="48.97678" lon="0.99481">
        <ele>115.59999847412</ele>
        <time>2014-11-23T08:41:04.000Z</time>
      </trkpt>
      <trkpt lat="48.97688" lon="0.99533">
        <ele>114.40000152588</ele>
        <time>2014-11-23T08:41:11.000Z</time>
      </trkpt>
      <trkpt lat="48.97692" lon="0.99567">
        <ele>114</ele>
        <time>2014-11-23T08:41:16.000Z</time>
      </trkpt>
      <trkpt lat="48.9768" lon="0.99576">
        <ele>116.40000152588</ele>
        <time>2014-11-23T08:41:25.000Z</time>
      </trkpt>
      <trkpt lat="48.97676" lon="0.99578">
        <ele>117</ele>
        <time>2014-11-23T08:41:28.000Z</time>
      </trkpt>
      <trkpt lat="48.97662" lon="0.99584">
        <ele>119.59999847412</ele>
        <time>2014-11-23T08:41:40.000Z</time>
      </trkpt>
      <trkpt lat="48.97649" lon="0.99583">
        <ele>121.59999847412</ele>
        <time>2014-11-23T08:41:48.000Z</time>
      </trkpt>
      <trkpt lat="48.97643" lon="0.99579">
        <ele>122.59999847412</ele>
        <time>2014-11-23T08:41:53.000Z</time>
      </trkpt>
      <trkpt lat="48.97637" lon="0.9957">
        <ele>123.40000152588</ele>
        <time>2014-11-23T08:41:58.000Z</time>
      </trkpt>
      <trkpt lat="48.97628" lon="0.99548">
        <ele>124.80000305176</ele>
        <time>2014-11-23T08:42:10.000Z</time>
      </trkpt>
      <trkpt lat="48.97604" lon="0.9953">
        <ele>128.39999389648</ele>
        <time>2014-11-23T08:42:23.000Z</time>
      </trkpt>
      <trkpt lat="48.97577" lon="0.99536">
        <ele>129.19999694824</ele>
        <time>2014-11-23T08:42:37.000Z</time>
      </trkpt>
      <trkpt lat="48.97556" lon="0.9953">
        <ele>129.60000610352</ele>
        <time>2014-11-23T08:42:49.000Z</time>
      </trkpt>
      <trkpt lat="48.97537" lon="0.99522">
        <ele>130.19999694824</ele>
        <time>2014-11-23T08:43:01.000Z</time>
      </trkpt>
      <trkpt lat="48.97512" lon="0.99514">
        <ele>130.80000305176</ele>
        <time>2014-11-23T08:43:14.000Z</time>
      </trkpt>
      <trkpt lat="48.97478" lon="0.9952">
        <ele>131.60000610352</ele>
        <time>2014-11-23T08:43:29.000Z</time>
      </trkpt>
      <trkpt lat="48.97452" lon="0.99537">
        <ele>131.60000610352</ele>
        <time>2014-11-23T08:43:42.000Z</time>
      </trkpt>
      <trkpt lat="48.97422" lon="0.99556">
        <ele>130.80000305176</ele>
        <time>2014-11-23T08:43:57.000Z</time>
      </trkpt>
      <trkpt lat="48.97396" lon="0.9957">
        <ele>130.80000305176</ele>
        <time>2014-11-23T08:44:10.000Z</time>
      </trkpt>
      <trkpt lat="48.97394" lon="0.99571">
        <ele>130.80000305176</ele>
        <time>2014-11-23T08:44:23.000Z</time>
      </trkpt>
      <trkpt lat="48.97394" lon="0.99571">
        <ele>130.80000305176</ele>
        <time>2014-11-23T08:44:26.000Z</time>
      </trkpt>
      <trkpt lat="48.97378" lon="0.99585">
        <ele>131</ele>
        <time>2014-11-23T08:44:34.000Z</time>
      </trkpt>
      <trkpt lat="48.97316" lon="0.99627">
        <ele>138</ele>
        <time>2014-11-23T08:44:53.000Z</time>
      </trkpt>
      <trkpt lat="48.97268" lon="0.99641">
        <ele>144.39999389648</ele>
        <time>2014-11-23T08:45:07.000Z</time>
      </trkpt>
      <trkpt lat="48.97217" lon="0.99641">
        <ele>146.80000305176</ele>
        <time>2014-11-23T08:45:22.000Z</time>
      </trkpt>
      <trkpt lat="48.97171" lon="0.99644">
        <ele>147.60000610352</ele>
        <time>2014-11-23T08:45:36.000Z</time>
      </trkpt>
      <trkpt lat="48.97132" lon="0.99679">
        <ele>146</ele>
        <time>2014-11-23T08:45:49.000Z</time>
      </trkpt>
      <trkpt lat="48.97111" lon="0.99726">
        <ele>145</ele>
        <time>2014-11-23T08:45:59.000Z</time>
      </trkpt>
      <trkpt lat="48.97081" lon="0.99797">
        <ele>145</ele>
        <time>2014-11-23T08:46:13.000Z</time>
      </trkpt>
      <trkpt lat="48.97079" lon="0.99802">
        <ele>144.80000305176</ele>
        <time>2014-11-23T08:46:14.000Z</time>
      </trkpt>
      <trkpt lat="48.97077" lon="0.99807">
        <ele>144.39999389648</ele>
        <time>2014-11-23T08:46:15.000Z</time>
      </trkpt>
      <trkpt lat="48.97075" lon="0.99813">
        <ele>144.60000610352</ele>
        <time>2014-11-23T08:46:16.000Z</time>
      </trkpt>
      <trkpt lat="48.97073" lon="0.99818">
        <ele>144.80000305176</ele>
        <time>2014-11-23T08:46:17.000Z</time>
      </trkpt>
      <trkpt lat="48.97032" lon="0.9992">
        <ele>144.60000610352</ele>
        <time>2014-11-23T08:46:34.000Z</time>
      </trkpt>
      <trkpt lat="48.97017" lon="0.99956">
        <ele>143.19999694824</ele>
        <time>2014-11-23T08:46:41.000Z</time>
      </trkpt>
      <trkpt lat="48.97014" lon="0.99961">
        <ele>143</ele>
        <time>2014-11-23T08:46:42.000Z</time>
      </trkpt>
      <trkpt lat="48.97004" lon="0.99986">
        <ele>142.80000305176</ele>
        <time>2014-11-23T08:46:46.000Z</time>
      </trkpt>
      <trkpt lat="48.97001" lon="0.99992">
        <ele>142.80000305176</ele>
        <time>2014-11-23T08:46:47.000Z</time>
      </trkpt>
      <trkpt lat="48.96995" lon="1.00005">
        <ele>142.60000610352</ele>
        <time>2014-11-23T08:46:49.000Z</time>
      </trkpt>
      <trkpt lat="48.96954" lon="1.00107">
        <ele>140.39999389648</ele>
        <time>2014-11-23T08:47:06.000Z</time>
      </trkpt>
      <trkpt lat="48.9693" lon="1.00172">
        <ele>141</ele>
        <time>2014-11-23T08:47:17.000Z</time>
      </trkpt>
      <trkpt lat="48.96899" lon="1.00274">
        <ele>141.39999389648</ele>
        <time>2014-11-23T08:47:33.000Z</time>
      </trkpt>
      <trkpt lat="48.96897" lon="1.00282">
        <ele>141.19999694824</ele>
        <time>2014-11-23T08:47:34.000Z</time>
      </trkpt>
      <trkpt lat="48.9686" lon="1.00389">
        <ele>142</ele>
        <time>2014-11-23T08:47:46.000Z</time>
      </trkpt>
      <trkpt lat="48.96844" lon="1.00422">
        <ele>143.39999389648</ele>
        <time>2014-11-23T08:47:50.000Z</time>
      </trkpt>
      <trkpt lat="48.96833" lon="1.00441">
        <ele>144.39999389648</ele>
        <time>2014-11-23T08:47:53.000Z</time>
      </trkpt>
      <trkpt lat="48.96793" lon="1.00494">
        <ele>146.39999389648</ele>
        <time>2014-11-23T08:48:06.000Z</time>
      </trkpt>
      <trkpt lat="48.96743" lon="1.00549">
        <ele>150</ele>
        <time>2014-11-23T08:48:21.000Z</time>
      </trkpt>
      <trkpt lat="48.9674" lon="1.00553">
        <ele>150.39999389648</ele>
        <time>2014-11-23T08:48:22.000Z</time>
      </trkpt>
      <trkpt lat="48.96737" lon="1.00558">
        <ele>150.80000305176</ele>
        <time>2014-11-23T08:48:23.000Z</time>
      </trkpt>
      <trkpt lat="48.96706" lon="1.00614">
        <ele>152.39999389648</ele>
        <time>2014-11-23T08:48:35.000Z</time>
      </trkpt>
      <trkpt lat="48.96702" lon="1.00629">
        <ele>152.80000305176</ele>
        <time>2014-11-23T08:48:38.000Z</time>
      </trkpt>
      <trkpt lat="48.96703" lon="1.00636">
        <ele>152.80000305176</ele>
        <time>2014-11-23T08:48:39.000Z</time>
      </trkpt>
      <trkpt lat="48.96704" lon="1.00641">
        <ele>152.80000305176</ele>
        <time>2014-11-23T08:48:40.000Z</time>
      </trkpt>
      <trkpt lat="48.96707" lon="1.00645">
        <ele>152.80000305176</ele>
        <time>2014-11-23T08:48:41.000Z</time>
      </trkpt>
      <trkpt lat="48.9671" lon="1.0065">
        <ele>152.60000610352</ele>
        <time>2014-11-23T08:48:42.000Z</time>
      </trkpt>
      <trkpt lat="48.96719" lon="1.00663">
        <ele>152.19999694824</ele>
        <time>2014-11-23T08:48:45.000Z</time>
      </trkpt>
      <trkpt lat="48.96722" lon="1.00667">
        <ele>152</ele>
        <time>2014-11-23T08:48:46.000Z</time>
      </trkpt>
      <trkpt lat="48.96764" lon="1.00729">
        <ele>150.19999694824</ele>
        <time>2014-11-23T08:48:59.000Z</time>
      </trkpt>
      <trkpt lat="48.96765" lon="1.00734">
        <ele>150</ele>
        <time>2014-11-23T08:49:00.000Z</time>
      </trkpt>
      <trkpt lat="48.96761" lon="1.00742">
        <ele>150</ele>
        <time>2014-11-23T08:49:02.000Z</time>
      </trkpt>
      <trkpt lat="48.96758" lon="1.00744">
        <ele>150</ele>
        <time>2014-11-23T08:49:03.000Z</time>
      </trkpt>
      <trkpt lat="48.96756" lon="1.00746">
        <ele>150</ele>
        <time>2014-11-23T08:49:04.000Z</time>
      </trkpt>
      <trkpt lat="48.96753" lon="1.00747">
        <ele>150</ele>
        <time>2014-11-23T08:49:05.000Z</time>
      </trkpt>
      <trkpt lat="48.9675" lon="1.00749">
        <ele>150</ele>
        <time>2014-11-23T08:49:06.000Z</time>
      </trkpt>
      <trkpt lat="48.96747" lon="1.00751">
        <ele>150</ele>
        <time>2014-11-23T08:49:07.000Z</time>
      </trkpt>
      <trkpt lat="48.96745" lon="1.00755">
        <ele>150</ele>
        <time>2014-11-23T08:49:08.000Z</time>
      </trkpt>
      <trkpt lat="48.96743" lon="1.00758">
        <ele>150</ele>
        <time>2014-11-23T08:49:09.000Z</time>
      </trkpt>
      <trkpt lat="48.96739" lon="1.00762">
        <ele>150</ele>
        <time>2014-11-23T08:49:10.000Z</time>
      </trkpt>
      <trkpt lat="48.96736" lon="1.00765">
        <ele>150</ele>
        <time>2014-11-23T08:49:11.000Z</time>
      </trkpt>
      <trkpt lat="48.96702" lon="1.0082">
        <ele>150.39999389648</ele>
        <time>2014-11-23T08:49:24.000Z</time>
      </trkpt>
      <trkpt lat="48.96662" lon="1.00871">
        <ele>148.19999694824</ele>
        <time>2014-11-23T08:49:37.000Z</time>
      </trkpt>
      <trkpt lat="48.96619" lon="1.00927">
        <ele>146.39999389648</ele>
        <time>2014-11-23T08:49:51.000Z</time>
      </trkpt>
      <trkpt lat="48.96593" lon="1.00961">
        <ele>146.60000610352</ele>
        <time>2014-11-23T08:50:00.000Z</time>
      </trkpt>
      <trkpt lat="48.96551" lon="1.01007">
        <ele>147.39999389648</ele>
        <time>2014-11-23T08:50:13.000Z</time>
      </trkpt>
      <trkpt lat="48.96509" lon="1.01056">
        <ele>148.39999389648</ele>
        <time>2014-11-23T08:50:26.000Z</time>
      </trkpt>
      <trkpt lat="48.96436" lon="1.01129">
        <ele>146.80000305176</ele>
        <time>2014-11-23T08:50:45.000Z</time>
      </trkpt>
      <trkpt lat="48.96373" lon="1.01189">
        <ele>148.19999694824</ele>
        <time>2014-11-23T08:51:00.000Z</time>
      </trkpt>
      <trkpt lat="48.96369" lon="1.01193">
        <ele>148.60000610352</ele>
        <time>2014-11-23T08:51:01.000Z</time>
      </trkpt>
      <trkpt lat="48.96332" lon="1.01233">
        <ele>150</ele>
        <time>2014-11-23T08:51:12.000Z</time>
      </trkpt>
      <trkpt lat="48.96331" lon="1.01237">
        <ele>150</ele>
        <time>2014-11-23T08:51:13.000Z</time>
      </trkpt>
      <trkpt lat="48.96332" lon="1.01243">
        <ele>150</ele>
        <time>2014-11-23T08:51:14.000Z</time>
      </trkpt>
      <trkpt lat="48.96333" lon="1.01248">
        <ele>150</ele>
        <time>2014-11-23T08:51:15.000Z</time>
      </trkpt>
      <trkpt lat="48.96334" lon="1.01252">
        <ele>150</ele>
        <time>2014-11-23T08:51:16.000Z</time>
      </trkpt>
      <trkpt lat="48.96336" lon="1.01257">
        <ele>150</ele>
        <time>2014-11-23T08:51:17.000Z</time>
      </trkpt>
      <trkpt lat="48.96338" lon="1.01262">
        <ele>150</ele>
        <time>2014-11-23T08:51:18.000Z</time>
      </trkpt>
      <trkpt lat="48.9635" lon="1.01293">
        <ele>150</ele>
        <time>2014-11-23T08:51:24.000Z</time>
      </trkpt>
      <trkpt lat="48.96374" lon="1.01377">
        <ele>148.60000610352</ele>
        <time>2014-11-23T08:51:40.000Z</time>
      </trkpt>
      <trkpt lat="48.96388" lon="1.01428">
        <ele>148</ele>
        <time>2014-11-23T08:51:52.000Z</time>
      </trkpt>
      <trkpt lat="48.96405" lon="1.01485">
        <ele>145.80000305176</ele>
        <time>2014-11-23T08:52:05.000Z</time>
      </trkpt>
      <trkpt lat="48.9642" lon="1.01557">
        <ele>145</ele>
        <time>2014-11-23T08:52:19.000Z</time>
      </trkpt>
      <trkpt lat="48.96432" lon="1.01607">
        <ele>143.19999694824</ele>
        <time>2014-11-23T08:52:30.000Z</time>
      </trkpt>
      <trkpt lat="48.96433" lon="1.01611">
        <ele>143.19999694824</ele>
        <time>2014-11-23T08:52:31.000Z</time>
      </trkpt>
      <trkpt lat="48.96434" lon="1.01615">
        <ele>143</ele>
        <time>2014-11-23T08:52:32.000Z</time>
      </trkpt>
      <trkpt lat="48.96443" lon="1.01665">
        <ele>140.80000305176</ele>
        <time>2014-11-23T08:52:44.000Z</time>
      </trkpt>
      <trkpt lat="48.96434" lon="1.01713">
        <ele>138.80000305176</ele>
        <time>2014-11-23T08:52:53.000Z</time>
      </trkpt>
      <trkpt lat="48.96431" lon="1.01718">
        <ele>138.60000610352</ele>
        <time>2014-11-23T08:52:54.000Z</time>
      </trkpt>
      <trkpt lat="48.96428" lon="1.01723">
        <ele>138.39999389648</ele>
        <time>2014-11-23T08:52:55.000Z</time>
      </trkpt>
      <trkpt lat="48.96424" lon="1.01727">
        <ele>138</ele>
        <time>2014-11-23T08:52:56.000Z</time>
      </trkpt>
      <trkpt lat="48.9642" lon="1.01731">
        <ele>137.39999389648</ele>
        <time>2014-11-23T08:52:57.000Z</time>
      </trkpt>
      <trkpt lat="48.96417" lon="1.01735">
        <ele>136.60000610352</ele>
        <time>2014-11-23T08:52:58.000Z</time>
      </trkpt>
      <trkpt lat="48.96411" lon="1.01743">
        <ele>135.19999694824</ele>
        <time>2014-11-23T08:53:00.000Z</time>
      </trkpt>
      <trkpt lat="48.96393" lon="1.01768">
        <ele>130.80000305176</ele>
        <time>2014-11-23T08:53:05.000Z</time>
      </trkpt>
      <trkpt lat="48.96387" lon="1.01779">
        <ele>130.19999694824</ele>
        <time>2014-11-23T08:53:07.000Z</time>
      </trkpt>
      <trkpt lat="48.96384" lon="1.01784">
        <ele>129.80000305176</ele>
        <time>2014-11-23T08:53:08.000Z</time>
      </trkpt>
      <trkpt lat="48.96381" lon="1.01788">
        <ele>129.39999389648</ele>
        <time>2014-11-23T08:53:09.000Z</time>
      </trkpt>
      <trkpt lat="48.9637" lon="1.01803">
        <ele>128.39999389648</ele>
        <time>2014-11-23T08:53:12.000Z</time>
      </trkpt>
      <trkpt lat="48.96358" lon="1.01819">
        <ele>127.40000152588</ele>
        <time>2014-11-23T08:53:15.000Z</time>
      </trkpt>
      <trkpt lat="48.96327" lon="1.0186">
        <ele>122.80000305176</ele>
        <time>2014-11-23T08:53:25.000Z</time>
      </trkpt>
      <trkpt lat="48.96313" lon="1.01886">
        <ele>121.40000152588</ele>
        <time>2014-11-23T08:53:31.000Z</time>
      </trkpt>
      <trkpt lat="48.96314" lon="1.0189">
        <ele>121</ele>
        <time>2014-11-23T08:53:32.000Z</time>
      </trkpt>
      <trkpt lat="48.96315" lon="1.01894">
        <ele>120.40000152588</ele>
        <time>2014-11-23T08:53:33.000Z</time>
      </trkpt>
      <trkpt lat="48.96316" lon="1.01898">
        <ele>119.80000305176</ele>
        <time>2014-11-23T08:53:34.000Z</time>
      </trkpt>
      <trkpt lat="48.96318" lon="1.01901">
        <ele>119.19999694824</ele>
        <time>2014-11-23T08:53:35.000Z</time>
      </trkpt>
      <trkpt lat="48.96325" lon="1.01902">
        <ele>118.40000152588</ele>
        <time>2014-11-23T08:53:40.000Z</time>
      </trkpt>
      <trkpt lat="48.96325" lon="1.01898">
        <ele>118.80000305176</ele>
        <time>2014-11-23T08:53:41.000Z</time>
      </trkpt>
      <trkpt lat="48.96325" lon="1.01896">
        <ele>119</ele>
        <time>2014-11-23T08:53:42.000Z</time>
      </trkpt>
      <trkpt lat="48.96326" lon="1.01892">
        <ele>119.40000152588</ele>
        <time>2014-11-23T08:53:43.000Z</time>
      </trkpt>
      <trkpt lat="48.96326" lon="1.01889">
        <ele>119.80000305176</ele>
        <time>2014-11-23T08:53:44.000Z</time>
      </trkpt>
      <trkpt lat="48.96326" lon="1.01886">
        <ele>120</ele>
        <time>2014-11-23T08:53:45.000Z</time>
      </trkpt>
      <trkpt lat="48.96348" lon="1.01859">
        <ele>121.80000305176</ele>
        <time>2014-11-23T08:53:56.000Z</time>
      </trkpt>
      <trkpt lat="48.96389" lon="1.01836">
        <ele>121.80000305176</ele>
        <time>2014-11-23T08:54:08.000Z</time>
      </trkpt>
      <trkpt lat="48.96425" lon="1.01814">
        <ele>121.80000305176</ele>
        <time>2014-11-23T08:54:17.000Z</time>
      </trkpt>
      <trkpt lat="48.96442" lon="1.01806">
        <ele>121.59999847412</ele>
        <time>2014-11-23T08:54:21.000Z</time>
      </trkpt>
      <trkpt lat="48.96484" lon="1.0178">
        <ele>122.59999847412</ele>
        <time>2014-11-23T08:54:32.000Z</time>
      </trkpt>
      <trkpt lat="48.96515" lon="1.01777">
        <ele>121</ele>
        <time>2014-11-23T08:54:41.000Z</time>
      </trkpt>
      <trkpt lat="48.96523" lon="1.01775">
        <ele>120.59999847412</ele>
        <time>2014-11-23T08:54:43.000Z</time>
      </trkpt>
      <trkpt lat="48.96528" lon="1.01776">
        <ele>120.40000152588</ele>
        <time>2014-11-23T08:54:44.000Z</time>
      </trkpt>
      <trkpt lat="48.96579" lon="1.01772">
        <ele>118.59999847412</ele>
        <time>2014-11-23T08:54:56.000Z</time>
      </trkpt>
      <trkpt lat="48.96606" lon="1.0177">
        <ele>117.40000152588</ele>
        <time>2014-11-23T08:55:02.000Z</time>
      </trkpt>
      <trkpt lat="48.96632" lon="1.0179">
        <ele>110.19999694824</ele>
        <time>2014-11-23T08:55:11.000Z</time>
      </trkpt>
      <trkpt lat="48.96634" lon="1.01793">
        <ele>109.19999694824</ele>
        <time>2014-11-23T08:55:12.000Z</time>
      </trkpt>
      <trkpt lat="48.96649" lon="1.01837">
        <ele>102.19999694824</ele>
        <time>2014-11-23T08:55:22.000Z</time>
      </trkpt>
      <trkpt lat="48.96654" lon="1.01849">
        <ele>101</ele>
        <time>2014-11-23T08:55:24.000Z</time>
      </trkpt>
      <trkpt lat="48.96655" lon="1.01856">
        <ele>100.40000152588</ele>
        <time>2014-11-23T08:55:25.000Z</time>
      </trkpt>
      <trkpt lat="48.96656" lon="1.01863">
        <ele>99.599998474121</ele>
        <time>2014-11-23T08:55:26.000Z</time>
      </trkpt>
      <trkpt lat="48.96656" lon="1.0187">
        <ele>98.800003051758</ele>
        <time>2014-11-23T08:55:27.000Z</time>
      </trkpt>
      <trkpt lat="48.96656" lon="1.01879">
        <ele>98</ele>
        <time>2014-11-23T08:55:28.000Z</time>
      </trkpt>
      <trkpt lat="48.96653" lon="1.01902">
        <ele>96.400001525879</ele>
        <time>2014-11-23T08:55:31.000Z</time>
      </trkpt>
      <trkpt lat="48.96649" lon="1.01927">
        <ele>95.800003051758</ele>
        <time>2014-11-23T08:55:34.000Z</time>
      </trkpt>
      <trkpt lat="48.96647" lon="1.01935">
        <ele>95.599998474121</ele>
        <time>2014-11-23T08:55:35.000Z</time>
      </trkpt>
      <trkpt lat="48.96646" lon="1.01943">
        <ele>95.400001525879</ele>
        <time>2014-11-23T08:55:36.000Z</time>
      </trkpt>
      <trkpt lat="48.96627" lon="1.02014">
        <ele>94.400001525879</ele>
        <time>2014-11-23T08:55:47.000Z</time>
      </trkpt>
      <trkpt lat="48.96596" lon="1.02122">
        <ele>93.800003051758</ele>
        <time>2014-11-23T08:56:03.000Z</time>
      </trkpt>
      <trkpt lat="48.96592" lon="1.02199">
        <ele>94.599998474121</ele>
        <time>2014-11-23T08:56:17.000Z</time>
      </trkpt>
      <trkpt lat="48.96592" lon="1.02202">
        <ele>94.599998474121</ele>
        <time>2014-11-23T08:56:18.000Z</time>
      </trkpt>
      <trkpt lat="48.96591" lon="1.02205">
        <ele>94.800003051758</ele>
        <time>2014-11-23T08:56:19.000Z</time>
      </trkpt>
      <trkpt lat="48.9659" lon="1.0221">
        <ele>94.800003051758</ele>
        <time>2014-11-23T08:56:20.000Z</time>
      </trkpt>
      <trkpt lat="48.9659" lon="1.02215">
        <ele>94.800003051758</ele>
        <time>2014-11-23T08:56:21.000Z</time>
      </trkpt>
      <trkpt lat="48.9659" lon="1.0222">
        <ele>94.800003051758</ele>
        <time>2014-11-23T08:56:22.000Z</time>
      </trkpt>
      <trkpt lat="48.96586" lon="1.02252">
        <ele>95.400001525879</ele>
        <time>2014-11-23T08:56:28.000Z</time>
      </trkpt>
      <trkpt lat="48.96583" lon="1.02254">
        <ele>95.599998474121</ele>
        <time>2014-11-23T08:56:29.000Z</time>
      </trkpt>
      <trkpt lat="48.9658" lon="1.02255">
        <ele>95.599998474121</ele>
        <time>2014-11-23T08:56:30.000Z</time>
      </trkpt>
      <trkpt lat="48.96577" lon="1.02255">
        <ele>95.800003051758</ele>
        <time>2014-11-23T08:56:31.000Z</time>
      </trkpt>
      <trkpt lat="48.96573" lon="1.02255">
        <ele>96</ele>
        <time>2014-11-23T08:56:32.000Z</time>
      </trkpt>
      <trkpt lat="48.9652" lon="1.02263">
        <ele>96.599998474121</ele>
        <time>2014-11-23T08:56:48.000Z</time>
      </trkpt>
      <trkpt lat="48.96505" lon="1.02284">
        <ele>96.599998474121</ele>
        <time>2014-11-23T08:56:58.000Z</time>
      </trkpt>
      <trkpt lat="48.96513" lon="1.02334">
        <ele>96.400001525879</ele>
        <time>2014-11-23T08:57:08.000Z</time>
      </trkpt>
      <trkpt lat="48.96523" lon="1.02406">
        <ele>97.199996948242</ele>
        <time>2014-11-23T08:57:23.000Z</time>
      </trkpt>
      <trkpt lat="48.96537" lon="1.02471">
        <ele>97.199996948242</ele>
        <time>2014-11-23T08:57:36.000Z</time>
      </trkpt>
      <trkpt lat="48.96536" lon="1.02476">
        <ele>97.400001525879</ele>
        <time>2014-11-23T08:57:37.000Z</time>
      </trkpt>
      <trkpt lat="48.96533" lon="1.02478">
        <ele>97.400001525879</ele>
        <time>2014-11-23T08:57:38.000Z</time>
      </trkpt>
      <trkpt lat="48.96498" lon="1.02512">
        <ele>98.800003051758</ele>
        <time>2014-11-23T08:57:51.000Z</time>
      </trkpt>
      <trkpt lat="48.96451" lon="1.02547">
        <ele>100.40000152588</ele>
        <time>2014-11-23T08:58:06.000Z</time>
      </trkpt>
      <trkpt lat="48.96403" lon="1.02569">
        <ele>101.40000152588</ele>
        <time>2014-11-23T08:58:21.000Z</time>
      </trkpt>
      <trkpt lat="48.96364" lon="1.0255">
        <ele>101</ele>
        <time>2014-11-23T08:58:34.000Z</time>
      </trkpt>
      <trkpt lat="48.96313" lon="1.02537">
        <ele>101.80000305176</ele>
        <time>2014-11-23T08:58:51.000Z</time>
      </trkpt>
      <trkpt lat="48.96258" lon="1.02522">
        <ele>103</ele>
        <time>2014-11-23T08:59:07.000Z</time>
      </trkpt>
      <trkpt lat="48.96206" lon="1.0254">
        <ele>103.19999694824</ele>
        <time>2014-11-23T08:59:23.000Z</time>
      </trkpt>
      <trkpt lat="48.96157" lon="1.02569">
        <ele>104</ele>
        <time>2014-11-23T08:59:40.000Z</time>
      </trkpt>
      <trkpt lat="48.96113" lon="1.02593">
        <ele>105.40000152588</ele>
        <time>2014-11-23T08:59:55.000Z</time>
      </trkpt>
      <trkpt lat="48.96063" lon="1.02619">
        <ele>108.40000152588</ele>
        <time>2014-11-23T09:00:12.000Z</time>
      </trkpt>
      <trkpt lat="48.9602" lon="1.02622">
        <ele>112.19999694824</ele>
        <time>2014-11-23T09:00:27.000Z</time>
      </trkpt>
      <trkpt lat="48.95979" lon="1.02618">
        <ele>121.80000305176</ele>
        <time>2014-11-23T09:00:45.000Z</time>
      </trkpt>
      <trkpt lat="48.95955" lon="1.02618">
        <ele>127.59999847412</ele>
        <time>2014-11-23T09:01:00.000Z</time>
      </trkpt>
      <trkpt lat="48.95939" lon="1.02615">
        <ele>131.39999389648</ele>
        <time>2014-11-23T09:01:14.000Z</time>
      </trkpt>
      <trkpt lat="48.95937" lon="1.02614">
        <ele>131.60000610352</ele>
        <time>2014-11-23T09:01:15.000Z</time>
      </trkpt>
      <trkpt lat="48.9593" lon="1.02604">
        <ele>132.39999389648</ele>
        <time>2014-11-23T09:01:24.000Z</time>
      </trkpt>
      <trkpt lat="48.95919" lon="1.02589">
        <ele>133.39999389648</ele>
        <time>2014-11-23T09:01:35.000Z</time>
      </trkpt>
      <trkpt lat="48.95904" lon="1.02575">
        <ele>135.19999694824</ele>
        <time>2014-11-23T09:01:49.000Z</time>
      </trkpt>
      <trkpt lat="48.95894" lon="1.0256">
        <ele>136</ele>
        <time>2014-11-23T09:02:00.000Z</time>
      </trkpt>
      <trkpt lat="48.95894" lon="1.02558">
        <ele>136</ele>
        <time>2014-11-23T09:02:01.000Z</time>
      </trkpt>
      <trkpt lat="48.95893" lon="1.02555">
        <ele>136.19999694824</ele>
        <time>2014-11-23T09:02:02.000Z</time>
      </trkpt>
      <trkpt lat="48.95892" lon="1.02553">
        <ele>136.19999694824</ele>
        <time>2014-11-23T09:02:03.000Z</time>
      </trkpt>
      <trkpt lat="48.95892" lon="1.0255">
        <ele>136.39999389648</ele>
        <time>2014-11-23T09:02:04.000Z</time>
      </trkpt>
      <trkpt lat="48.95891" lon="1.02548">
        <ele>136.60000610352</ele>
        <time>2014-11-23T09:02:05.000Z</time>
      </trkpt>
      <trkpt lat="48.9589" lon="1.02545">
        <ele>136.60000610352</ele>
        <time>2014-11-23T09:02:06.000Z</time>
      </trkpt>
      <trkpt lat="48.95889" lon="1.02543">
        <ele>136.80000305176</ele>
        <time>2014-11-23T09:02:07.000Z</time>
      </trkpt>
      <trkpt lat="48.95883" lon="1.02516">
        <ele>137.60000610352</ele>
        <time>2014-11-23T09:02:21.000Z</time>
      </trkpt>
      <trkpt lat="48.95884" lon="1.02511">
        <ele>137.39999389648</ele>
        <time>2014-11-23T09:02:23.000Z</time>
      </trkpt>
      <trkpt lat="48.95884" lon="1.02509">
        <ele>137.39999389648</ele>
        <time>2014-11-23T09:02:24.000Z</time>
      </trkpt>
      <trkpt lat="48.95884" lon="1.02506">
        <ele>137.39999389648</ele>
        <time>2014-11-23T09:02:25.000Z</time>
      </trkpt>
      <trkpt lat="48.95877" lon="1.02473">
        <ele>137</ele>
        <time>2014-11-23T09:02:38.000Z</time>
      </trkpt>
      <trkpt lat="48.95877" lon="1.02469">
        <ele>137.19999694824</ele>
        <time>2014-11-23T09:02:40.000Z</time>
      </trkpt>
      <trkpt lat="48.95876" lon="1.02465">
        <ele>137.19999694824</ele>
        <time>2014-11-23T09:02:42.000Z</time>
      </trkpt>
      <trkpt lat="48.95876" lon="1.02463">
        <ele>137.39999389648</ele>
        <time>2014-11-23T09:02:43.000Z</time>
      </trkpt>
      <trkpt lat="48.95875" lon="1.0246">
        <ele>137.60000610352</ele>
        <time>2014-11-23T09:02:44.000Z</time>
      </trkpt>
      <trkpt lat="48.95875" lon="1.02457">
        <ele>137.60000610352</ele>
        <time>2014-11-23T09:02:45.000Z</time>
      </trkpt>
      <trkpt lat="48.95875" lon="1.02455">
        <ele>137.80000305176</ele>
        <time>2014-11-23T09:02:46.000Z</time>
      </trkpt>
      <trkpt lat="48.95871" lon="1.02448">
        <ele>138.60000610352</ele>
        <time>2014-11-23T09:02:50.000Z</time>
      </trkpt>
      <trkpt lat="48.95867" lon="1.02458">
        <ele>139.60000610352</ele>
        <time>2014-11-23T09:02:59.000Z</time>
      </trkpt>
      <trkpt lat="48.95868" lon="1.02462">
        <ele>139.39999389648</ele>
        <time>2014-11-23T09:03:01.000Z</time>
      </trkpt>
      <trkpt lat="48.95868" lon="1.0249">
        <ele>140.19999694824</ele>
        <time>2014-11-23T09:03:15.000Z</time>
      </trkpt>
      <trkpt lat="48.95866" lon="1.02505">
        <ele>140.80000305176</ele>
        <time>2014-11-23T09:03:21.000Z</time>
      </trkpt>
      <trkpt lat="48.95865" lon="1.02515">
        <ele>141.19999694824</ele>
        <time>2014-11-23T09:03:25.000Z</time>
      </trkpt>
      <trkpt lat="48.95861" lon="1.02539">
        <ele>142</ele>
        <time>2014-11-23T09:03:36.000Z</time>
      </trkpt>
      <trkpt lat="48.95851" lon="1.02557">
        <ele>143.39999389648</ele>
        <time>2014-11-23T09:03:46.000Z</time>
      </trkpt>
      <trkpt lat="48.95831" lon="1.02566">
        <ele>144.60000610352</ele>
        <time>2014-11-23T09:03:59.000Z</time>
      </trkpt>
      <trkpt lat="48.95805" lon="1.02576">
        <ele>146</ele>
        <time>2014-11-23T09:04:14.000Z</time>
      </trkpt>
      <trkpt lat="48.95777" lon="1.02582">
        <ele>147.60000610352</ele>
        <time>2014-11-23T09:04:27.000Z</time>
      </trkpt>
      <trkpt lat="48.95769" lon="1.02585">
        <ele>147.60000610352</ele>
        <time>2014-11-23T09:04:37.000Z</time>
      </trkpt>
      <trkpt lat="48.95764" lon="1.02591">
        <ele>147.39999389648</ele>
        <time>2014-11-23T09:04:58.000Z</time>
      </trkpt>
      <trkpt lat="48.9576" lon="1.02588">
        <ele>147.39999389648</ele>
        <time>2014-11-23T09:05:40.000Z</time>
      </trkpt>
      <trkpt lat="48.95759" lon="1.0259">
        <ele>147.39999389648</ele>
        <time>2014-11-23T09:06:13.000Z</time>
      </trkpt>
      <trkpt lat="48.95761" lon="1.02588">
        <ele>147.39999389648</ele>
        <time>2014-11-23T09:06:34.000Z</time>
      </trkpt>
      <trkpt lat="48.94558" lon="1.04978">
        <ele>116</ele>
        <time>2014-11-23T09:20:35.000Z</time>
      </trkpt>
      <trkpt lat="48.94555" lon="1.04994">
        <ele>116.40000152588</ele>
        <time>2014-11-23T09:20:38.000Z</time>
      </trkpt>
      <trkpt lat="48.9455" lon="1.05082">
        <ele>121.80000305176</ele>
        <time>2014-11-23T09:20:52.000Z</time>
      </trkpt>
      <trkpt lat="48.9455" lon="1.05089">
        <ele>122</ele>
        <time>2014-11-23T09:20:53.000Z</time>
      </trkpt>
      <trkpt lat="48.94551" lon="1.05095">
        <ele>122.40000152588</ele>
        <time>2014-11-23T09:20:54.000Z</time>
      </trkpt>
      <trkpt lat="48.94552" lon="1.05101">
        <ele>122.80000305176</ele>
        <time>2014-11-23T09:20:55.000Z</time>
      </trkpt>
      <trkpt lat="48.94553" lon="1.05108">
        <ele>123</ele>
        <time>2014-11-23T09:20:56.000Z</time>
      </trkpt>
      <trkpt lat="48.94557" lon="1.05132">
        <ele>124</ele>
        <time>2014-11-23T09:21:00.000Z</time>
      </trkpt>
      <trkpt lat="48.9457" lon="1.05178">
        <ele>126.19999694824</ele>
        <time>2014-11-23T09:21:08.000Z</time>
      </trkpt>
      <trkpt lat="48.94571" lon="1.05183">
        <ele>126.59999847412</ele>
        <time>2014-11-23T09:21:09.000Z</time>
      </trkpt>
      <trkpt lat="48.94588" lon="1.05218">
        <ele>126.59999847412</ele>
        <time>2014-11-23T09:21:18.000Z</time>
      </trkpt>
      <trkpt lat="48.9459" lon="1.05225">
        <ele>126.59999847412</ele>
        <time>2014-11-23T09:21:19.000Z</time>
      </trkpt>
      <trkpt lat="48.9461" lon="1.05278">
        <ele>129.39999389648</ele>
        <time>2014-11-23T09:21:28.000Z</time>
      </trkpt>
      <trkpt lat="48.94613" lon="1.05283">
        <ele>129.19999694824</ele>
        <time>2014-11-23T09:21:29.000Z</time>
      </trkpt>
      <trkpt lat="48.94615" lon="1.05288">
        <ele>129</ele>
        <time>2014-11-23T09:21:30.000Z</time>
      </trkpt>
      <trkpt lat="48.94618" lon="1.05293">
        <ele>129</ele>
        <time>2014-11-23T09:21:31.000Z</time>
      </trkpt>
      <trkpt lat="48.94621" lon="1.05298">
        <ele>128.80000305176</ele>
        <time>2014-11-23T09:21:32.000Z</time>
      </trkpt>
      <trkpt lat="48.94624" lon="1.05303">
        <ele>128.60000610352</ele>
        <time>2014-11-23T09:21:33.000Z</time>
      </trkpt>
      <trkpt lat="48.94627" lon="1.05308">
        <ele>128.19999694824</ele>
        <time>2014-11-23T09:21:34.000Z</time>
      </trkpt>
      <trkpt lat="48.94633" lon="1.0532">
        <ele>128.19999694824</ele>
        <time>2014-11-23T09:21:36.000Z</time>
      </trkpt>
      <trkpt lat="48.94636" lon="1.05326">
        <ele>128.39999389648</ele>
        <time>2014-11-23T09:21:37.000Z</time>
      </trkpt>
      <trkpt lat="48.94638" lon="1.05331">
        <ele>128.60000610352</ele>
        <time>2014-11-23T09:21:38.000Z</time>
      </trkpt>
      <trkpt lat="48.9464" lon="1.05335">
        <ele>128.60000610352</ele>
        <time>2014-11-23T09:21:39.000Z</time>
      </trkpt>
      <trkpt lat="48.94641" lon="1.05339">
        <ele>128.80000305176</ele>
        <time>2014-11-23T09:21:40.000Z</time>
      </trkpt>
      <trkpt lat="48.94644" lon="1.05348">
        <ele>129.19999694824</ele>
        <time>2014-11-23T09:21:43.000Z</time>
      </trkpt>
      <trkpt lat="48.94667" lon="1.05391">
        <ele>127.80000305176</ele>
        <time>2014-11-23T09:21:54.000Z</time>
      </trkpt>
      <trkpt lat="48.94681" lon="1.05412">
        <ele>128</ele>
        <time>2014-11-23T09:22:00.000Z</time>
      </trkpt>
      <trkpt lat="48.94685" lon="1.05415">
        <ele>128</ele>
        <time>2014-11-23T09:22:01.000Z</time>
      </trkpt>
      <trkpt lat="48.94698" lon="1.05431">
        <ele>128.19999694824</ele>
        <time>2014-11-23T09:22:10.000Z</time>
      </trkpt>
      <trkpt lat="48.94709" lon="1.05442">
        <ele>128.39999389648</ele>
        <time>2014-11-23T09:22:19.000Z</time>
      </trkpt>
      <trkpt lat="48.94711" lon="1.05444">
        <ele>128.39999389648</ele>
        <time>2014-11-23T09:22:20.000Z</time>
      </trkpt>
      <trkpt lat="48.94713" lon="1.05447">
        <ele>128.60000610352</ele>
        <time>2014-11-23T09:22:21.000Z</time>
      </trkpt>
      <trkpt lat="48.94715" lon="1.05449">
        <ele>128.60000610352</ele>
        <time>2014-11-23T09:22:23.000Z</time>
      </trkpt>
      <trkpt lat="48.94717" lon="1.0545">
        <ele>128.60000610352</ele>
        <time>2014-11-23T09:22:24.000Z</time>
      </trkpt>
      <trkpt lat="48.94718" lon="1.05452">
        <ele>128.60000610352</ele>
        <time>2014-11-23T09:22:25.000Z</time>
      </trkpt>
      <trkpt lat="48.94719" lon="1.05453">
        <ele>128.60000610352</ele>
        <time>2014-11-23T09:22:26.000Z</time>
      </trkpt>
      <trkpt lat="48.94721" lon="1.05454">
        <ele>128.39999389648</ele>
        <time>2014-11-23T09:22:27.000Z</time>
      </trkpt>
      <trkpt lat="48.94722" lon="1.05455">
        <ele>128.39999389648</ele>
        <time>2014-11-23T09:22:28.000Z</time>
      </trkpt>
      <trkpt lat="48.94751" lon="1.05479">
        <ele>128.19999694824</ele>
        <time>2014-11-23T09:22:39.000Z</time>
      </trkpt>
      <trkpt lat="48.94753" lon="1.05482">
        <ele>128.39999389648</ele>
        <time>2014-11-23T09:22:40.000Z</time>
      </trkpt>
      <trkpt lat="48.94753" lon="1.05484">
        <ele>128.80000305176</ele>
        <time>2014-11-23T09:22:41.000Z</time>
      </trkpt>
      <trkpt lat="48.94754" lon="1.05487">
        <ele>129.19999694824</ele>
        <time>2014-11-23T09:22:42.000Z</time>
      </trkpt>
      <trkpt lat="48.94755" lon="1.0549">
        <ele>129.60000610352</ele>
        <time>2014-11-23T09:22:43.000Z</time>
      </trkpt>
      <trkpt lat="48.94758" lon="1.05495">
        <ele>129.80000305176</ele>
        <time>2014-11-23T09:22:44.000Z</time>
      </trkpt>
      <trkpt lat="48.94762" lon="1.055">
        <ele>130.19999694824</ele>
        <time>2014-11-23T09:22:45.000Z</time>
      </trkpt>
      <trkpt lat="48.94765" lon="1.05505">
        <ele>130.60000610352</ele>
        <time>2014-11-23T09:22:46.000Z</time>
      </trkpt>
      <trkpt lat="48.94789" lon="1.05535">
        <ele>132.39999389648</ele>
        <time>2014-11-23T09:22:54.000Z</time>
      </trkpt>
      <trkpt lat="48.94791" lon="1.05535">
        <ele>132</ele>
        <time>2014-11-23T09:22:55.000Z</time>
      </trkpt>
      <trkpt lat="48.94793" lon="1.05535">
        <ele>131.80000305176</ele>
        <time>2014-11-23T09:22:56.000Z</time>
      </trkpt>
      <trkpt lat="48.94794" lon="1.05536">
        <ele>131.80000305176</ele>
        <time>2014-11-23T09:22:57.000Z</time>
      </trkpt>
      <trkpt lat="48.94797" lon="1.05539">
        <ele>131.80000305176</ele>
        <time>2014-11-23T09:22:59.000Z</time>
      </trkpt>
      <trkpt lat="48.94799" lon="1.05541">
        <ele>132</ele>
        <time>2014-11-23T09:23:00.000Z</time>
      </trkpt>
      <trkpt lat="48.94802" lon="1.05544">
        <ele>132</ele>
        <time>2014-11-23T09:23:01.000Z</time>
      </trkpt>
      <trkpt lat="48.94806" lon="1.05549">
        <ele>132</ele>
        <time>2014-11-23T09:23:03.000Z</time>
      </trkpt>
      <trkpt lat="48.94808" lon="1.05551">
        <ele>132.19999694824</ele>
        <time>2014-11-23T09:23:04.000Z</time>
      </trkpt>
      <trkpt lat="48.94811" lon="1.05554">
        <ele>132.19999694824</ele>
        <time>2014-11-23T09:23:05.000Z</time>
      </trkpt>
      <trkpt lat="48.94814" lon="1.05556">
        <ele>132.19999694824</ele>
        <time>2014-11-23T09:23:06.000Z</time>
      </trkpt>
      <trkpt lat="48.94816" lon="1.05558">
        <ele>132.19999694824</ele>
        <time>2014-11-23T09:23:07.000Z</time>
      </trkpt>
      <trkpt lat="48.94836" lon="1.05576">
        <ele>132.60000610352</ele>
        <time>2014-11-23T09:23:14.000Z</time>
      </trkpt>
      <trkpt lat="48.94839" lon="1.05577">
        <ele>132.60000610352</ele>
        <time>2014-11-23T09:23:15.000Z</time>
      </trkpt>
      <trkpt lat="48.94841" lon="1.05578">
        <ele>132.39999389648</ele>
        <time>2014-11-23T09:23:16.000Z</time>
      </trkpt>
      <trkpt lat="48.94843" lon="1.05581">
        <ele>132.39999389648</ele>
        <time>2014-11-23T09:23:17.000Z</time>
      </trkpt>
      <trkpt lat="48.94845" lon="1.05583">
        <ele>132.60000610352</ele>
        <time>2014-11-23T09:23:18.000Z</time>
      </trkpt>
      <trkpt lat="48.94848" lon="1.05585">
        <ele>132.60000610352</ele>
        <time>2014-11-23T09:23:19.000Z</time>
      </trkpt>
      <trkpt lat="48.94851" lon="1.05586">
        <ele>132.39999389648</ele>
        <time>2014-11-23T09:23:20.000Z</time>
      </trkpt>
      <trkpt lat="48.94885" lon="1.05603">
        <ele>131.39999389648</ele>
        <time>2014-11-23T09:23:29.000Z</time>
      </trkpt>
      <trkpt lat="48.949" lon="1.05605">
        <ele>130</ele>
        <time>2014-11-23T09:23:32.000Z</time>
      </trkpt>
      <trkpt lat="48.94906" lon="1.05605">
        <ele>129.19999694824</ele>
        <time>2014-11-23T09:23:33.000Z</time>
      </trkpt>
      <trkpt lat="48.94949" lon="1.05612">
        <ele>124</ele>
        <time>2014-11-23T09:23:39.000Z</time>
      </trkpt>
      <trkpt lat="48.94963" lon="1.05617">
        <ele>123.59999847412</ele>
        <time>2014-11-23T09:23:41.000Z</time>
      </trkpt>
      <trkpt lat="48.94969" lon="1.05619">
        <ele>123.40000152588</ele>
        <time>2014-11-23T09:23:42.000Z</time>
      </trkpt>
      <trkpt lat="48.94993" lon="1.05628">
        <ele>122.40000152588</ele>
        <time>2014-11-23T09:23:46.000Z</time>
      </trkpt>
      <trkpt lat="48.94998" lon="1.0563">
        <ele>122.19999694824</ele>
        <time>2014-11-23T09:23:47.000Z</time>
      </trkpt>
      <trkpt lat="48.95002" lon="1.05631">
        <ele>122</ele>
        <time>2014-11-23T09:23:48.000Z</time>
      </trkpt>
      <trkpt lat="48.95019" lon="1.05631">
        <ele>120.19999694824</ele>
        <time>2014-11-23T09:23:52.000Z</time>
      </trkpt>
      <trkpt lat="48.95022" lon="1.05629">
        <ele>119.59999847412</ele>
        <time>2014-11-23T09:23:53.000Z</time>
      </trkpt>
      <trkpt lat="48.95025" lon="1.05628">
        <ele>119.19999694824</ele>
        <time>2014-11-23T09:23:54.000Z</time>
      </trkpt>
      <trkpt lat="48.95029" lon="1.05628">
        <ele>119</ele>
        <time>2014-11-23T09:23:55.000Z</time>
      </trkpt>
      <trkpt lat="48.95032" lon="1.05628">
        <ele>119</ele>
        <time>2014-11-23T09:23:56.000Z</time>
      </trkpt>
      <trkpt lat="48.95035" lon="1.05629">
        <ele>119</ele>
        <time>2014-11-23T09:23:57.000Z</time>
      </trkpt>
      <trkpt lat="48.95074" lon="1.05636">
        <ele>119</ele>
        <time>2014-11-23T09:24:10.000Z</time>
      </trkpt>
      <trkpt lat="48.95105" lon="1.0564">
        <ele>118.59999847412</ele>
        <time>2014-11-23T09:24:18.000Z</time>
      </trkpt>
      <trkpt lat="48.95108" lon="1.05638">
        <ele>118.19999694824</ele>
        <time>2014-11-23T09:24:19.000Z</time>
      </trkpt>
      <trkpt lat="48.95152" lon="1.05622">
        <ele>119</ele>
        <time>2014-11-23T09:24:31.000Z</time>
      </trkpt>
      <trkpt lat="48.95156" lon="1.05621">
        <ele>119.19999694824</ele>
        <time>2014-11-23T09:24:32.000Z</time>
      </trkpt>
      <trkpt lat="48.9516" lon="1.05619">
        <ele>119.19999694824</ele>
        <time>2014-11-23T09:24:33.000Z</time>
      </trkpt>
      <trkpt lat="48.95164" lon="1.05616">
        <ele>119</ele>
        <time>2014-11-23T09:24:34.000Z</time>
      </trkpt>
      <trkpt lat="48.95168" lon="1.05614">
        <ele>118.59999847412</ele>
        <time>2014-11-23T09:24:35.000Z</time>
      </trkpt>
      <trkpt lat="48.95172" lon="1.05611">
        <ele>118.40000152588</ele>
        <time>2014-11-23T09:24:36.000Z</time>
      </trkpt>
      <trkpt lat="48.95175" lon="1.05609">
        <ele>118.19999694824</ele>
        <time>2014-11-23T09:24:37.000Z</time>
      </trkpt>
      <trkpt lat="48.95179" lon="1.05606">
        <ele>117.80000305176</ele>
        <time>2014-11-23T09:24:38.000Z</time>
      </trkpt>
      <trkpt lat="48.95203" lon="1.05585">
        <ele>116.80000305176</ele>
        <time>2014-11-23T09:24:48.000Z</time>
      </trkpt>
      <trkpt lat="48.95218" lon="1.0557">
        <ele>117.19999694824</ele>
        <time>2014-11-23T09:24:57.000Z</time>
      </trkpt>
      <trkpt lat="48.9522" lon="1.05569">
        <ele>117.40000152588</ele>
        <time>2014-11-23T09:24:58.000Z</time>
      </trkpt>
      <trkpt lat="48.95222" lon="1.05567">
        <ele>117.59999847412</ele>
        <time>2014-11-23T09:24:59.000Z</time>
      </trkpt>
      <trkpt lat="48.95223" lon="1.05565">
        <ele>117.40000152588</ele>
        <time>2014-11-23T09:25:00.000Z</time>
      </trkpt>
      <trkpt lat="48.95224" lon="1.05563">
        <ele>117.19999694824</ele>
        <time>2014-11-23T09:25:01.000Z</time>
      </trkpt>
      <trkpt lat="48.95224" lon="1.05561">
        <ele>116.80000305176</ele>
        <time>2014-11-23T09:25:02.000Z</time>
      </trkpt>
      <trkpt lat="48.95225" lon="1.05559">
        <ele>116.59999847412</ele>
        <time>2014-11-23T09:25:03.000Z</time>
      </trkpt>
      <trkpt lat="48.95226" lon="1.05557">
        <ele>116.80000305176</ele>
        <time>2014-11-23T09:25:04.000Z</time>
      </trkpt>
      <trkpt lat="48.95227" lon="1.05554">
        <ele>116.80000305176</ele>
        <time>2014-11-23T09:25:05.000Z</time>
      </trkpt>
      <trkpt lat="48.95228" lon="1.05553">
        <ele>117</ele>
        <time>2014-11-23T09:25:06.000Z</time>
      </trkpt>
      <trkpt lat="48.9523" lon="1.05551">
        <ele>117.19999694824</ele>
        <time>2014-11-23T09:25:07.000Z</time>
      </trkpt>
      <trkpt lat="48.95232" lon="1.05549">
        <ele>117.40000152588</ele>
        <time>2014-11-23T09:25:08.000Z</time>
      </trkpt>
      <trkpt lat="48.95234" lon="1.05548">
        <ele>117.80000305176</ele>
        <time>2014-11-23T09:25:09.000Z</time>
      </trkpt>
      <trkpt lat="48.95236" lon="1.05546">
        <ele>118.19999694824</ele>
        <time>2014-11-23T09:25:10.000Z</time>
      </trkpt>
      <trkpt lat="48.95237" lon="1.05544">
        <ele>118.19999694824</ele>
        <time>2014-11-23T09:25:11.000Z</time>
      </trkpt>
      <trkpt lat="48.95238" lon="1.05541">
        <ele>118.19999694824</ele>
        <time>2014-11-23T09:25:12.000Z</time>
      </trkpt>
      <trkpt lat="48.95239" lon="1.05538">
        <ele>118.19999694824</ele>
        <time>2014-11-23T09:25:13.000Z</time>
      </trkpt>
      <trkpt lat="48.95242" lon="1.05534">
        <ele>118.40000152588</ele>
        <time>2014-11-23T09:25:14.000Z</time>
      </trkpt>
      <trkpt lat="48.95248" lon="1.05519">
        <ele>117.40000152588</ele>
        <time>2014-11-23T09:25:17.000Z</time>
      </trkpt>
      <trkpt lat="48.95265" lon="1.05487">
        <ele>113.80000305176</ele>
        <time>2014-11-23T09:25:22.000Z</time>
      </trkpt>
      <trkpt lat="48.95287" lon="1.05428">
        <ele>112</ele>
        <time>2014-11-23T09:25:29.000Z</time>
      </trkpt>
      <trkpt lat="48.95295" lon="1.05409">
        <ele>112.59999847412</ele>
        <time>2014-11-23T09:25:32.000Z</time>
      </trkpt>
      <trkpt lat="48.95306" lon="1.05375">
        <ele>113.59999847412</ele>
        <time>2014-11-23T09:25:38.000Z</time>
      </trkpt>
      <trkpt lat="48.95309" lon="1.0537">
        <ele>114</ele>
        <time>2014-11-23T09:25:39.000Z</time>
      </trkpt>
      <trkpt lat="48.95311" lon="1.05365">
        <ele>114.59999847412</ele>
        <time>2014-11-23T09:25:40.000Z</time>
      </trkpt>
      <trkpt lat="48.95312" lon="1.0536">
        <ele>114.80000305176</ele>
        <time>2014-11-23T09:25:41.000Z</time>
      </trkpt>
      <trkpt lat="48.95314" lon="1.05356">
        <ele>115.19999694824</ele>
        <time>2014-11-23T09:25:42.000Z</time>
      </trkpt>
      <trkpt lat="48.95318" lon="1.05347">
        <ele>115.19999694824</ele>
        <time>2014-11-23T09:25:44.000Z</time>
      </trkpt>
      <trkpt lat="48.9532" lon="1.05343">
        <ele>115.40000152588</ele>
        <time>2014-11-23T09:25:45.000Z</time>
      </trkpt>
      <trkpt lat="48.95323" lon="1.05341">
        <ele>115.59999847412</ele>
        <time>2014-11-23T09:25:46.000Z</time>
      </trkpt>
      <trkpt lat="48.95326" lon="1.05339">
        <ele>115.80000305176</ele>
        <time>2014-11-23T09:25:47.000Z</time>
      </trkpt>
      <trkpt lat="48.95329" lon="1.05336">
        <ele>116</ele>
        <time>2014-11-23T09:25:48.000Z</time>
      </trkpt>
      <trkpt lat="48.95332" lon="1.05332">
        <ele>116</ele>
        <time>2014-11-23T09:25:49.000Z</time>
      </trkpt>
      <trkpt lat="48.95334" lon="1.05327">
        <ele>115.80000305176</ele>
        <time>2014-11-23T09:25:50.000Z</time>
      </trkpt>
      <trkpt lat="48.95336" lon="1.05323">
        <ele>115.59999847412</ele>
        <time>2014-11-23T09:25:51.000Z</time>
      </trkpt>
      <trkpt lat="48.95338" lon="1.05317">
        <ele>115.19999694824</ele>
        <time>2014-11-23T09:25:52.000Z</time>
      </trkpt>
      <trkpt lat="48.95357" lon="1.05255">
        <ele>111.40000152588</ele>
        <time>2014-11-23T09:26:05.000Z</time>
      </trkpt>
      <trkpt lat="48.95373" lon="1.05219">
        <ele>112</ele>
        <time>2014-11-23T09:26:15.000Z</time>
      </trkpt>
      <trkpt lat="48.95373" lon="1.05212">
        <ele>111.59999847412</ele>
        <time>2014-11-23T09:26:17.000Z</time>
      </trkpt>
      <trkpt lat="48.95375" lon="1.05209">
        <ele>111.80000305176</ele>
        <time>2014-11-23T09:26:18.000Z</time>
      </trkpt>
      <trkpt lat="48.95376" lon="1.05206">
        <ele>111.80000305176</ele>
        <time>2014-11-23T09:26:19.000Z</time>
      </trkpt>
      <trkpt lat="48.95376" lon="1.05202">
        <ele>111.80000305176</ele>
        <time>2014-11-23T09:26:20.000Z</time>
      </trkpt>
      <trkpt lat="48.95377" lon="1.05197">
        <ele>111.59999847412</ele>
        <time>2014-11-23T09:26:21.000Z</time>
      </trkpt>
      <trkpt lat="48.95378" lon="1.05192">
        <ele>111.59999847412</ele>
        <time>2014-11-23T09:26:22.000Z</time>
      </trkpt>
      <trkpt lat="48.95379" lon="1.05188">
        <ele>111.40000152588</ele>
        <time>2014-11-23T09:26:23.000Z</time>
      </trkpt>
      <trkpt lat="48.95379" lon="1.05183">
        <ele>111.40000152588</ele>
        <time>2014-11-23T09:26:24.000Z</time>
      </trkpt>
      <trkpt lat="48.95384" lon="1.05143">
        <ele>109.80000305176</ele>
        <time>2014-11-23T09:26:35.000Z</time>
      </trkpt>
      <trkpt lat="48.95396" lon="1.05091">
        <ele>113.19999694824</ele>
        <time>2014-11-23T09:26:47.000Z</time>
      </trkpt>
      <trkpt lat="48.9541" lon="1.0502">
        <ele>113</ele>
        <time>2014-11-23T09:27:00.000Z</time>
      </trkpt>
      <trkpt lat="48.95431" lon="1.04968">
        <ele>112</ele>
        <time>2014-11-23T09:27:10.000Z</time>
      </trkpt>
      <trkpt lat="48.95453" lon="1.04912">
        <ele>110.59999847412</ele>
        <time>2014-11-23T09:27:21.000Z</time>
      </trkpt>
      <trkpt lat="48.95451" lon="1.04867">
        <ele>107.40000152588</ele>
        <time>2014-11-23T09:27:27.000Z</time>
      </trkpt>
      <trkpt lat="48.95449" lon="1.04863">
        <ele>106.80000305176</ele>
        <time>2014-11-23T09:27:28.000Z</time>
      </trkpt>
      <trkpt lat="48.95451" lon="1.04857">
        <ele>107.19999694824</ele>
        <time>2014-11-23T09:27:29.000Z</time>
      </trkpt>
      <trkpt lat="48.95453" lon="1.04853">
        <ele>107.19999694824</ele>
        <time>2014-11-23T09:27:30.000Z</time>
      </trkpt>
      <trkpt lat="48.95456" lon="1.04848">
        <ele>107.80000305176</ele>
        <time>2014-11-23T09:27:31.000Z</time>
      </trkpt>
      <trkpt lat="48.95472" lon="1.04811">
        <ele>109.40000152588</ele>
        <time>2014-11-23T09:27:40.000Z</time>
      </trkpt>
      <trkpt lat="48.95489" lon="1.04761">
        <ele>110.80000305176</ele>
        <time>2014-11-23T09:27:52.000Z</time>
      </trkpt>
      <trkpt lat="48.95509" lon="1.04719">
        <ele>110.19999694824</ele>
        <time>2014-11-23T09:28:04.000Z</time>
      </trkpt>
      <trkpt lat="48.95528" lon="1.04701">
        <ele>110.59999847412</ele>
        <time>2014-11-23T09:28:15.000Z</time>
      </trkpt>
      <trkpt lat="48.9554" lon="1.04687">
        <ele>111.40000152588</ele>
        <time>2014-11-23T09:28:22.000Z</time>
      </trkpt>
      <trkpt lat="48.95541" lon="1.04685">
        <ele>111.40000152588</ele>
        <time>2014-11-23T09:28:23.000Z</time>
      </trkpt>
      <trkpt lat="48.95549" lon="1.0465">
        <ele>108.59999847412</ele>
        <time>2014-11-23T09:28:36.000Z</time>
      </trkpt>
      <trkpt lat="48.95569" lon="1.04578">
        <ele>105.80000305176</ele>
        <time>2014-11-23T09:28:51.000Z</time>
      </trkpt>
      <trkpt lat="48.956" lon="1.04489">
        <ele>104.80000305176</ele>
        <time>2014-11-23T09:29:06.000Z</time>
      </trkpt>
      <trkpt lat="48.95605" lon="1.04473">
        <ele>104.80000305176</ele>
        <time>2014-11-23T09:29:08.000Z</time>
      </trkpt>
      <trkpt lat="48.95621" lon="1.04409">
        <ele>103</ele>
        <time>2014-11-23T09:29:15.000Z</time>
      </trkpt>
      <trkpt lat="48.95625" lon="1.04401">
        <ele>102.80000305176</ele>
        <time>2014-11-23T09:29:16.000Z</time>
      </trkpt>
      <trkpt lat="48.95629" lon="1.04396">
        <ele>102.59999847412</ele>
        <time>2014-11-23T09:29:17.000Z</time>
      </trkpt>
      <trkpt lat="48.95635" lon="1.04393">
        <ele>102.40000152588</ele>
        <time>2014-11-23T09:29:18.000Z</time>
      </trkpt>
      <trkpt lat="48.9564" lon="1.04391">
        <ele>102.19999694824</ele>
        <time>2014-11-23T09:29:19.000Z</time>
      </trkpt>
      <trkpt lat="48.95645" lon="1.0439">
        <ele>102</ele>
        <time>2014-11-23T09:29:20.000Z</time>
      </trkpt>
      <trkpt lat="48.9565" lon="1.0439">
        <ele>102</ele>
        <time>2014-11-23T09:29:21.000Z</time>
      </trkpt>
      <trkpt lat="48.95654" lon="1.04389">
        <ele>101.80000305176</ele>
        <time>2014-11-23T09:29:22.000Z</time>
      </trkpt>
      <trkpt lat="48.95659" lon="1.04388">
        <ele>101.59999847412</ele>
        <time>2014-11-23T09:29:23.000Z</time>
      </trkpt>
      <trkpt lat="48.95664" lon="1.04388">
        <ele>101.59999847412</ele>
        <time>2014-11-23T09:29:24.000Z</time>
      </trkpt>
      <trkpt lat="48.95672" lon="1.04386">
        <ele>101.19999694824</ele>
        <time>2014-11-23T09:29:26.000Z</time>
      </trkpt>
      <trkpt lat="48.95677" lon="1.04385">
        <ele>101.19999694824</ele>
        <time>2014-11-23T09:29:27.000Z</time>
      </trkpt>
      <trkpt lat="48.9573" lon="1.04389">
        <ele>100</ele>
        <time>2014-11-23T09:29:40.000Z</time>
      </trkpt>
      <trkpt lat="48.9577" lon="1.04405">
        <ele>99.400001525879</ele>
        <time>2014-11-23T09:29:51.000Z</time>
      </trkpt>
      <trkpt lat="48.95798" lon="1.04417">
        <ele>99</ele>
        <time>2014-11-23T09:29:58.000Z</time>
      </trkpt>
      <trkpt lat="48.95802" lon="1.04419">
        <ele>99</ele>
        <time>2014-11-23T09:29:59.000Z</time>
      </trkpt>
      <trkpt lat="48.9581" lon="1.04422">
        <ele>98.800003051758</ele>
        <time>2014-11-23T09:30:01.000Z</time>
      </trkpt>
      <trkpt lat="48.95872" lon="1.04447">
        <ele>98.199996948242</ele>
        <time>2014-11-23T09:30:14.000Z</time>
      </trkpt>
      <trkpt lat="48.95965" lon="1.04466">
        <ele>98</ele>
        <time>2014-11-23T09:30:31.000Z</time>
      </trkpt>
      <trkpt lat="48.96042" lon="1.04495">
        <ele>97.800003051758</ele>
        <time>2014-11-23T09:30:46.000Z</time>
      </trkpt>
      <trkpt lat="48.96049" lon="1.04502">
        <ele>97.800003051758</ele>
        <time>2014-11-23T09:30:48.000Z</time>
      </trkpt>
      <trkpt lat="48.96052" lon="1.04506">
        <ele>97.599998474121</ele>
        <time>2014-11-23T09:30:49.000Z</time>
      </trkpt>
      <trkpt lat="48.9607" lon="1.04528">
        <ele>97.400001525879</ele>
        <time>2014-11-23T09:30:54.000Z</time>
      </trkpt>
      <trkpt lat="48.96073" lon="1.04533">
        <ele>97.400001525879</ele>
        <time>2014-11-23T09:30:55.000Z</time>
      </trkpt>
      <trkpt lat="48.96076" lon="1.04537">
        <ele>97.400001525879</ele>
        <time>2014-11-23T09:30:56.000Z</time>
      </trkpt>
      <trkpt lat="48.96088" lon="1.04548">
        <ele>97.199996948242</ele>
        <time>2014-11-23T09:30:59.000Z</time>
      </trkpt>
      <trkpt lat="48.96092" lon="1.04551">
        <ele>97.199996948242</ele>
        <time>2014-11-23T09:31:00.000Z</time>
      </trkpt>
      <trkpt lat="48.961" lon="1.04557">
        <ele>97</ele>
        <time>2014-11-23T09:31:02.000Z</time>
      </trkpt>
      <trkpt lat="48.96132" lon="1.04574">
        <ele>96.800003051758</ele>
        <time>2014-11-23T09:31:10.000Z</time>
      </trkpt>
      <trkpt lat="48.96146" lon="1.04577">
        <ele>96.800003051758</ele>
        <time>2014-11-23T09:31:13.000Z</time>
      </trkpt>
      <trkpt lat="48.96221" lon="1.04571">
        <ele>96.800003051758</ele>
        <time>2014-11-23T09:31:28.000Z</time>
      </trkpt>
      <trkpt lat="48.96226" lon="1.0457">
        <ele>96.800003051758</ele>
        <time>2014-11-23T09:31:29.000Z</time>
      </trkpt>
      <trkpt lat="48.96255" lon="1.04563">
        <ele>96.199996948242</ele>
        <time>2014-11-23T09:31:36.000Z</time>
      </trkpt>
      <trkpt lat="48.96257" lon="1.04558">
        <ele>96.199996948242</ele>
        <time>2014-11-23T09:31:37.000Z</time>
      </trkpt>
      <trkpt lat="48.96259" lon="1.04553">
        <ele>96.199996948242</ele>
        <time>2014-11-23T09:31:38.000Z</time>
      </trkpt>
      <trkpt lat="48.9626" lon="1.04547">
        <ele>96.199996948242</ele>
        <time>2014-11-23T09:31:39.000Z</time>
      </trkpt>
      <trkpt lat="48.96261" lon="1.04541">
        <ele>96.199996948242</ele>
        <time>2014-11-23T09:31:40.000Z</time>
      </trkpt>
      <trkpt lat="48.96263" lon="1.04496">
        <ele>96.800003051758</ele>
        <time>2014-11-23T09:31:50.000Z</time>
      </trkpt>
      <trkpt lat="48.96258" lon="1.04474">
        <ele>97.199996948242</ele>
        <time>2014-11-23T09:31:54.000Z</time>
      </trkpt>
      <trkpt lat="48.96259" lon="1.04467">
        <ele>97.599998474121</ele>
        <time>2014-11-23T09:31:55.000Z</time>
      </trkpt>
      <trkpt lat="48.96276" lon="1.04389">
        <ele>102</ele>
        <time>2014-11-23T09:32:08.000Z</time>
      </trkpt>
      <trkpt lat="48.9628" lon="1.04378">
        <ele>102.40000152588</ele>
        <time>2014-11-23T09:32:10.000Z</time>
      </trkpt>
      <trkpt lat="48.96284" lon="1.04373">
        <ele>102.40000152588</ele>
        <time>2014-11-23T09:32:11.000Z</time>
      </trkpt>
      <trkpt lat="48.96289" lon="1.04369">
        <ele>102.19999694824</ele>
        <time>2014-11-23T09:32:12.000Z</time>
      </trkpt>
      <trkpt lat="48.96293" lon="1.04367">
        <ele>102</ele>
        <time>2014-11-23T09:32:13.000Z</time>
      </trkpt>
      <trkpt lat="48.96298" lon="1.04365">
        <ele>101.59999847412</ele>
        <time>2014-11-23T09:32:14.000Z</time>
      </trkpt>
      <trkpt lat="48.96304" lon="1.04362">
        <ele>101.40000152588</ele>
        <time>2014-11-23T09:32:15.000Z</time>
      </trkpt>
      <trkpt lat="48.96309" lon="1.04359">
        <ele>101.19999694824</ele>
        <time>2014-11-23T09:32:16.000Z</time>
      </trkpt>
      <trkpt lat="48.96355" lon="1.04328">
        <ele>96.199996948242</ele>
        <time>2014-11-23T09:32:26.000Z</time>
      </trkpt>
      <trkpt lat="48.96405" lon="1.04276">
        <ele>95.800003051758</ele>
        <time>2014-11-23T09:32:40.000Z</time>
      </trkpt>
      <trkpt lat="48.96413" lon="1.0426">
        <ele>96</ele>
        <time>2014-11-23T09:32:43.000Z</time>
      </trkpt>
      <trkpt lat="48.9642" lon="1.04242">
        <ele>96</ele>
        <time>2014-11-23T09:32:46.000Z</time>
      </trkpt>
      <trkpt lat="48.96455" lon="1.04122">
        <ele>96.400001525879</ele>
        <time>2014-11-23T09:33:04.000Z</time>
      </trkpt>
      <trkpt lat="48.96479" lon="1.04012">
        <ele>96.800003051758</ele>
        <time>2014-11-23T09:33:20.000Z</time>
      </trkpt>
      <trkpt lat="48.96489" lon="1.03892">
        <ele>95.599998474121</ele>
        <time>2014-11-23T09:33:37.000Z</time>
      </trkpt>
      <trkpt lat="48.96491" lon="1.03867">
        <ele>95.599998474121</ele>
        <time>2014-11-23T09:33:42.000Z</time>
      </trkpt>
      <trkpt lat="48.96497" lon="1.03845">
        <ele>95.199996948242</ele>
        <time>2014-11-23T09:33:45.000Z</time>
      </trkpt>
      <trkpt lat="48.96501" lon="1.03837">
        <ele>95</ele>
        <time>2014-11-23T09:33:46.000Z</time>
      </trkpt>
      <trkpt lat="48.96505" lon="1.03831">
        <ele>94.800003051758</ele>
        <time>2014-11-23T09:33:47.000Z</time>
      </trkpt>
      <trkpt lat="48.9651" lon="1.03826">
        <ele>94.599998474121</ele>
        <time>2014-11-23T09:33:48.000Z</time>
      </trkpt>
      <trkpt lat="48.96514" lon="1.03822">
        <ele>94.400001525879</ele>
        <time>2014-11-23T09:33:49.000Z</time>
      </trkpt>
      <trkpt lat="48.96518" lon="1.0382">
        <ele>94.400001525879</ele>
        <time>2014-11-23T09:33:50.000Z</time>
      </trkpt>
      <trkpt lat="48.96563" lon="1.03798">
        <ele>98.199996948242</ele>
        <time>2014-11-23T09:34:02.000Z</time>
      </trkpt>
      <trkpt lat="48.9659" lon="1.03779">
        <ele>100.19999694824</ele>
        <time>2014-11-23T09:34:10.000Z</time>
      </trkpt>
      <trkpt lat="48.96594" lon="1.03775">
        <ele>100</ele>
        <time>2014-11-23T09:34:11.000Z</time>
      </trkpt>
      <trkpt lat="48.96597" lon="1.0377">
        <ele>99.800003051758</ele>
        <time>2014-11-23T09:34:12.000Z</time>
      </trkpt>
      <trkpt lat="48.96608" lon="1.0375">
        <ele>98.800003051758</ele>
        <time>2014-11-23T09:34:16.000Z</time>
      </trkpt>
      <trkpt lat="48.96621" lon="1.03719">
        <ele>99.400001525879</ele>
        <time>2014-11-23T09:34:21.000Z</time>
      </trkpt>
      <trkpt lat="48.96623" lon="1.03711">
        <ele>99.800003051758</ele>
        <time>2014-11-23T09:34:22.000Z</time>
      </trkpt>
      <trkpt lat="48.96628" lon="1.03688">
        <ele>100.40000152588</ele>
        <time>2014-11-23T09:34:25.000Z</time>
      </trkpt>
      <trkpt lat="48.96628" lon="1.03679">
        <ele>100.19999694824</ele>
        <time>2014-11-23T09:34:26.000Z</time>
      </trkpt>
      <trkpt lat="48.96627" lon="1.03671">
        <ele>100</ele>
        <time>2014-11-23T09:34:27.000Z</time>
      </trkpt>
      <trkpt lat="48.96625" lon="1.03664">
        <ele>99.599998474121</ele>
        <time>2014-11-23T09:34:28.000Z</time>
      </trkpt>
      <trkpt lat="48.96622" lon="1.03656">
        <ele>99</ele>
        <time>2014-11-23T09:34:29.000Z</time>
      </trkpt>
      <trkpt lat="48.9662" lon="1.03648">
        <ele>98.199996948242</ele>
        <time>2014-11-23T09:34:30.000Z</time>
      </trkpt>
      <trkpt lat="48.96613" lon="1.03616">
        <ele>96</ele>
        <time>2014-11-23T09:34:34.000Z</time>
      </trkpt>
      <trkpt lat="48.96613" lon="1.03607">
        <ele>95.800003051758</ele>
        <time>2014-11-23T09:34:35.000Z</time>
      </trkpt>
      <trkpt lat="48.96614" lon="1.03599">
        <ele>95.800003051758</ele>
        <time>2014-11-23T09:34:36.000Z</time>
      </trkpt>
      <trkpt lat="48.96615" lon="1.03591">
        <ele>95.800003051758</ele>
        <time>2014-11-23T09:34:37.000Z</time>
      </trkpt>
      <trkpt lat="48.96616" lon="1.03582">
        <ele>95.800003051758</ele>
        <time>2014-11-23T09:34:38.000Z</time>
      </trkpt>
      <trkpt lat="48.96626" lon="1.03465">
        <ele>95.199996948242</ele>
        <time>2014-11-23T09:34:52.000Z</time>
      </trkpt>
      <trkpt lat="48.96628" lon="1.03456">
        <ele>95.199996948242</ele>
        <time>2014-11-23T09:34:53.000Z</time>
      </trkpt>
      <trkpt lat="48.9664" lon="1.03386">
        <ele>94.599998474121</ele>
        <time>2014-11-23T09:35:01.000Z</time>
      </trkpt>
      <trkpt lat="48.96662" lon="1.03272">
        <ele>95.199996948242</ele>
        <time>2014-11-23T09:35:15.000Z</time>
      </trkpt>
      <trkpt lat="48.96664" lon="1.03256">
        <ele>95</ele>
        <time>2014-11-23T09:35:17.000Z</time>
      </trkpt>
      <trkpt lat="48.96666" lon="1.03248">
        <ele>95</ele>
        <time>2014-11-23T09:35:18.000Z</time>
      </trkpt>
      <trkpt lat="48.96676" lon="1.0322">
        <ele>94.599998474121</ele>
        <time>2014-11-23T09:35:22.000Z</time>
      </trkpt>
      <trkpt lat="48.96694" lon="1.03193">
        <ele>94.599998474121</ele>
        <time>2014-11-23T09:35:27.000Z</time>
      </trkpt>
      <trkpt lat="48.96699" lon="1.03189">
        <ele>94.800003051758</ele>
        <time>2014-11-23T09:35:28.000Z</time>
      </trkpt>
      <trkpt lat="48.96704" lon="1.03186">
        <ele>94.800003051758</ele>
        <time>2014-11-23T09:35:29.000Z</time>
      </trkpt>
      <trkpt lat="48.96709" lon="1.03183">
        <ele>95</ele>
        <time>2014-11-23T09:35:30.000Z</time>
      </trkpt>
      <trkpt lat="48.96713" lon="1.03182">
        <ele>95</ele>
        <time>2014-11-23T09:35:31.000Z</time>
      </trkpt>
      <trkpt lat="48.96718" lon="1.03182">
        <ele>95.199996948242</ele>
        <time>2014-11-23T09:35:32.000Z</time>
      </trkpt>
      <trkpt lat="48.96723" lon="1.03182">
        <ele>95.199996948242</ele>
        <time>2014-11-23T09:35:33.000Z</time>
      </trkpt>
      <trkpt lat="48.96728" lon="1.03184">
        <ele>95.400001525879</ele>
        <time>2014-11-23T09:35:34.000Z</time>
      </trkpt>
      <trkpt lat="48.96749" lon="1.03203">
        <ele>96.199996948242</ele>
        <time>2014-11-23T09:35:43.000Z</time>
      </trkpt>
      <trkpt lat="48.96768" lon="1.03242">
        <ele>97.599998474121</ele>
        <time>2014-11-23T09:35:57.000Z</time>
      </trkpt>
      <trkpt lat="48.96778" lon="1.03285">
        <ele>100.80000305176</ele>
        <time>2014-11-23T09:36:10.000Z</time>
      </trkpt>
      <trkpt lat="48.96781" lon="1.03302">
        <ele>102.19999694824</ele>
        <time>2014-11-23T09:36:16.000Z</time>
      </trkpt>
      <trkpt lat="48.9678" lon="1.03304">
        <ele>102.19999694824</ele>
        <time>2014-11-23T09:36:17.000Z</time>
      </trkpt>
      <trkpt lat="48.9678" lon="1.03308">
        <ele>102.40000152588</ele>
        <time>2014-11-23T09:36:18.000Z</time>
      </trkpt>
      <trkpt lat="48.96781" lon="1.03311">
        <ele>102.40000152588</ele>
        <time>2014-11-23T09:36:19.000Z</time>
      </trkpt>
      <trkpt lat="48.96781" lon="1.03314">
        <ele>102.40000152588</ele>
        <time>2014-11-23T09:36:20.000Z</time>
      </trkpt>
      <trkpt lat="48.96781" lon="1.03317">
        <ele>102.59999847412</ele>
        <time>2014-11-23T09:36:21.000Z</time>
      </trkpt>
      <trkpt lat="48.96781" lon="1.03319">
        <ele>102.80000305176</ele>
        <time>2014-11-23T09:36:22.000Z</time>
      </trkpt>
      <trkpt lat="48.96781" lon="1.03322">
        <ele>103</ele>
        <time>2014-11-23T09:36:23.000Z</time>
      </trkpt>
      <trkpt lat="48.96778" lon="1.03335">
        <ele>103.40000152588</ele>
        <time>2014-11-23T09:36:28.000Z</time>
      </trkpt>
      <trkpt lat="48.96777" lon="1.03338">
        <ele>103.40000152588</ele>
        <time>2014-11-23T09:36:29.000Z</time>
      </trkpt>
      <trkpt lat="48.96776" lon="1.03341">
        <ele>103.59999847412</ele>
        <time>2014-11-23T09:36:30.000Z</time>
      </trkpt>
      <trkpt lat="48.96775" lon="1.03343">
        <ele>103.59999847412</ele>
        <time>2014-11-23T09:36:31.000Z</time>
      </trkpt>
      <trkpt lat="48.96775" lon="1.03346">
        <ele>103.59999847412</ele>
        <time>2014-11-23T09:36:32.000Z</time>
      </trkpt>
      <trkpt lat="48.96774" lon="1.03382">
        <ele>106.19999694824</ele>
        <time>2014-11-23T09:36:45.000Z</time>
      </trkpt>
      <trkpt lat="48.96777" lon="1.03409">
        <ele>108.19999694824</ele>
        <time>2014-11-23T09:36:57.000Z</time>
      </trkpt>
      <trkpt lat="48.96778" lon="1.03411">
        <ele>108.40000152588</ele>
        <time>2014-11-23T09:36:58.000Z</time>
      </trkpt>
      <trkpt lat="48.96779" lon="1.03422">
        <ele>109.19999694824</ele>
        <time>2014-11-23T09:37:04.000Z</time>
      </trkpt>
      <trkpt lat="48.96779" lon="1.03424">
        <ele>109.40000152588</ele>
        <time>2014-11-23T09:37:05.000Z</time>
      </trkpt>
      <trkpt lat="48.96781" lon="1.03444">
        <ele>110.80000305176</ele>
        <time>2014-11-23T09:37:15.000Z</time>
      </trkpt>
      <trkpt lat="48.96781" lon="1.03447">
        <ele>111</ele>
        <time>2014-11-23T09:37:16.000Z</time>
      </trkpt>
      <trkpt lat="48.96783" lon="1.03463">
        <ele>112.19999694824</ele>
        <time>2014-11-23T09:37:23.000Z</time>
      </trkpt>
      <trkpt lat="48.96784" lon="1.03466">
        <ele>112.40000152588</ele>
        <time>2014-11-23T09:37:24.000Z</time>
      </trkpt>
      <trkpt lat="48.96785" lon="1.03468">
        <ele>112.59999847412</ele>
        <time>2014-11-23T09:37:25.000Z</time>
      </trkpt>
      <trkpt lat="48.96785" lon="1.0347">
        <ele>112.80000305176</ele>
        <time>2014-11-23T09:37:26.000Z</time>
      </trkpt>
      <trkpt lat="48.96786" lon="1.03473">
        <ele>113</ele>
        <time>2014-11-23T09:37:27.000Z</time>
      </trkpt>
      <trkpt lat="48.96786" lon="1.03475">
        <ele>113.19999694824</ele>
        <time>2014-11-23T09:37:28.000Z</time>
      </trkpt>
      <trkpt lat="48.96787" lon="1.03478">
        <ele>113.59999847412</ele>
        <time>2014-11-23T09:37:29.000Z</time>
      </trkpt>
      <trkpt lat="48.96788" lon="1.0348">
        <ele>113.80000305176</ele>
        <time>2014-11-23T09:37:30.000Z</time>
      </trkpt>
      <trkpt lat="48.96789" lon="1.03482">
        <ele>114</ele>
        <time>2014-11-23T09:37:31.000Z</time>
      </trkpt>
      <trkpt lat="48.96789" lon="1.03484">
        <ele>114.19999694824</ele>
        <time>2014-11-23T09:37:32.000Z</time>
      </trkpt>
      <trkpt lat="48.96789" lon="1.03487">
        <ele>114.59999847412</ele>
        <time>2014-11-23T09:37:33.000Z</time>
      </trkpt>
      <trkpt lat="48.96789" lon="1.03489">
        <ele>114.80000305176</ele>
        <time>2014-11-23T09:37:34.000Z</time>
      </trkpt>
      <trkpt lat="48.9679" lon="1.03498">
        <ele>115.59999847412</ele>
        <time>2014-11-23T09:37:38.000Z</time>
      </trkpt>
      <trkpt lat="48.96791" lon="1.035">
        <ele>115.80000305176</ele>
        <time>2014-11-23T09:37:39.000Z</time>
      </trkpt>
      <trkpt lat="48.96792" lon="1.03503">
        <ele>116.19999694824</ele>
        <time>2014-11-23T09:37:40.000Z</time>
      </trkpt>
      <trkpt lat="48.96792" lon="1.03505">
        <ele>116.40000152588</ele>
        <time>2014-11-23T09:37:41.000Z</time>
      </trkpt>
      <trkpt lat="48.96793" lon="1.03508">
        <ele>116.80000305176</ele>
        <time>2014-11-23T09:37:42.000Z</time>
      </trkpt>
      <trkpt lat="48.96794" lon="1.03511">
        <ele>117.19999694824</ele>
        <time>2014-11-23T09:37:43.000Z</time>
      </trkpt>
      <trkpt lat="48.96794" lon="1.03515">
        <ele>117.40000152588</ele>
        <time>2014-11-23T09:37:44.000Z</time>
      </trkpt>
      <trkpt lat="48.96802" lon="1.0354">
        <ele>120.40000152588</ele>
        <time>2014-11-23T09:37:53.000Z</time>
      </trkpt>
      <trkpt lat="48.96803" lon="1.03543">
        <ele>120.80000305176</ele>
        <time>2014-11-23T09:37:54.000Z</time>
      </trkpt>
      <trkpt lat="48.96804" lon="1.03545">
        <ele>121</ele>
        <time>2014-11-23T09:37:55.000Z</time>
      </trkpt>
      <trkpt lat="48.96807" lon="1.03547">
        <ele>121.40000152588</ele>
        <time>2014-11-23T09:37:56.000Z</time>
      </trkpt>
      <trkpt lat="48.96808" lon="1.03549">
        <ele>121.80000305176</ele>
        <time>2014-11-23T09:37:57.000Z</time>
      </trkpt>
      <trkpt lat="48.96818" lon="1.03563">
        <ele>123.80000305176</ele>
        <time>2014-11-23T09:38:05.000Z</time>
      </trkpt>
      <trkpt lat="48.9682" lon="1.03564">
        <ele>124</ele>
        <time>2014-11-23T09:38:06.000Z</time>
      </trkpt>
      <trkpt lat="48.96829" lon="1.03571">
        <ele>125.19999694824</ele>
        <time>2014-11-23T09:38:13.000Z</time>
      </trkpt>
      <trkpt lat="48.9684" lon="1.03573">
        <ele>126.40000152588</ele>
        <time>2014-11-23T09:38:21.000Z</time>
      </trkpt>
      <trkpt lat="48.9684" lon="1.03574">
        <ele>126.40000152588</ele>
        <time>2014-11-23T09:38:22.000Z</time>
      </trkpt>
      <trkpt lat="48.96842" lon="1.03574">
        <ele>126.59999847412</ele>
        <time>2014-11-23T09:38:23.000Z</time>
      </trkpt>
      <trkpt lat="48.96857" lon="1.03576">
        <ele>128.39999389648</ele>
        <time>2014-11-23T09:38:36.000Z</time>
      </trkpt>
      <trkpt lat="48.96872" lon="1.03573">
        <ele>130.19999694824</ele>
        <time>2014-11-23T09:38:49.000Z</time>
      </trkpt>
      <trkpt lat="48.9688" lon="1.03572">
        <ele>131</ele>
        <time>2014-11-23T09:38:58.000Z</time>
      </trkpt>
      <trkpt lat="48.96892" lon="1.03568">
        <ele>131.80000305176</ele>
        <time>2014-11-23T09:39:08.000Z</time>
      </trkpt>
      <trkpt lat="48.96915" lon="1.0356">
        <ele>133.60000610352</ele>
        <time>2014-11-23T09:39:21.000Z</time>
      </trkpt>
      <trkpt lat="48.9693" lon="1.03555">
        <ele>134.60000610352</ele>
        <time>2014-11-23T09:39:28.000Z</time>
      </trkpt>
      <trkpt lat="48.96937" lon="1.03552">
        <ele>135</ele>
        <time>2014-11-23T09:39:32.000Z</time>
      </trkpt>
      <trkpt lat="48.96958" lon="1.03542">
        <ele>137.39999389648</ele>
        <time>2014-11-23T09:39:47.000Z</time>
      </trkpt>
      <trkpt lat="48.96961" lon="1.03541">
        <ele>137.80000305176</ele>
        <time>2014-11-23T09:39:49.000Z</time>
      </trkpt>
      <trkpt lat="48.9698" lon="1.03535">
        <ele>139.80000305176</ele>
        <time>2014-11-23T09:40:03.000Z</time>
      </trkpt>
      <trkpt lat="48.96995" lon="1.0353">
        <ele>141.39999389648</ele>
        <time>2014-11-23T09:40:13.000Z</time>
      </trkpt>
      <trkpt lat="48.9701" lon="1.03522">
        <ele>142.60000610352</ele>
        <time>2014-11-23T09:40:26.000Z</time>
      </trkpt>
      <trkpt lat="48.97026" lon="1.03508">
        <ele>143.60000610352</ele>
        <time>2014-11-23T09:40:39.000Z</time>
      </trkpt>
      <trkpt lat="48.97028" lon="1.03505">
        <ele>143.80000305176</ele>
        <time>2014-11-23T09:40:41.000Z</time>
      </trkpt>
      <trkpt lat="48.97044" lon="1.03494">
        <ele>144.60000610352</ele>
        <time>2014-11-23T09:40:53.000Z</time>
      </trkpt>
      <trkpt lat="48.97045" lon="1.03493">
        <ele>144.80000305176</ele>
        <time>2014-11-23T09:40:54.000Z</time>
      </trkpt>
      <trkpt lat="48.97055" lon="1.03483">
        <ele>145.60000610352</ele>
        <time>2014-11-23T09:41:04.000Z</time>
      </trkpt>
      <trkpt lat="48.97058" lon="1.03479">
        <ele>145.80000305176</ele>
        <time>2014-11-23T09:41:07.000Z</time>
      </trkpt>
      <trkpt lat="48.97061" lon="1.03473">
        <ele>146</ele>
        <time>2014-11-23T09:41:11.000Z</time>
      </trkpt>
      <trkpt lat="48.97081" lon="1.03456">
        <ele>148</ele>
        <time>2014-11-23T09:41:24.000Z</time>
      </trkpt>
      <trkpt lat="48.97101" lon="1.03446">
        <ele>149.19999694824</ele>
        <time>2014-11-23T09:41:32.000Z</time>
      </trkpt>
      <trkpt lat="48.97111" lon="1.03445">
        <ele>149.60000610352</ele>
        <time>2014-11-23T09:41:46.000Z</time>
      </trkpt>
      <trkpt lat="48.97122" lon="1.03448">
        <ele>150.19999694824</ele>
        <time>2014-11-23T09:42:08.000Z</time>
      </trkpt>
      <trkpt lat="48.97125" lon="1.03446">
        <ele>150.19999694824</ele>
        <time>2014-11-23T09:42:26.000Z</time>
      </trkpt>
      <trkpt lat="48.97128" lon="1.03444">
        <ele>150.19999694824</ele>
        <time>2014-11-23T09:42:29.000Z</time>
      </trkpt>
      <trkpt lat="48.9713" lon="1.03443">
        <ele>150.19999694824</ele>
        <time>2014-11-23T09:42:31.000Z</time>
      </trkpt>
      <trkpt lat="48.97146" lon="1.03431">
        <ele>150.19999694824</ele>
        <time>2014-11-23T09:42:45.000Z</time>
      </trkpt>
      <trkpt lat="48.97162" lon="1.03422">
        <ele>150.19999694824</ele>
        <time>2014-11-23T09:42:54.000Z</time>
      </trkpt>
      <trkpt lat="48.97185" lon="1.03407">
        <ele>149.80000305176</ele>
        <time>2014-11-23T09:43:07.000Z</time>
      </trkpt>
      <trkpt lat="48.97209" lon="1.03403">
        <ele>149.39999389648</ele>
        <time>2014-11-23T09:43:18.000Z</time>
      </trkpt>
      <trkpt lat="48.97234" lon="1.034">
        <ele>149</ele>
        <time>2014-11-23T09:43:29.000Z</time>
      </trkpt>
      <trkpt lat="48.97256" lon="1.03401">
        <ele>148.80000305176</ele>
        <time>2014-11-23T09:43:38.000Z</time>
      </trkpt>
      <trkpt lat="48.97281" lon="1.03408">
        <ele>148.80000305176</ele>
        <time>2014-11-23T09:43:46.000Z</time>
      </trkpt>
      <trkpt lat="48.97306" lon="1.03435">
        <ele>149.39999389648</ele>
        <time>2014-11-23T09:43:56.000Z</time>
      </trkpt>
      <trkpt lat="48.97338" lon="1.03474">
        <ele>150.60000610352</ele>
        <time>2014-11-23T09:44:07.000Z</time>
      </trkpt>
      <trkpt lat="48.97341" lon="1.03478">
        <ele>150.60000610352</ele>
        <time>2014-11-23T09:44:08.000Z</time>
      </trkpt>
      <trkpt lat="48.97344" lon="1.03482">
        <ele>150.39999389648</ele>
        <time>2014-11-23T09:44:09.000Z</time>
      </trkpt>
      <trkpt lat="48.97348" lon="1.03487">
        <ele>150.39999389648</ele>
        <time>2014-11-23T09:44:10.000Z</time>
      </trkpt>
      <trkpt lat="48.97351" lon="1.0349">
        <ele>150.19999694824</ele>
        <time>2014-11-23T09:44:11.000Z</time>
      </trkpt>
      <trkpt lat="48.97354" lon="1.03494">
        <ele>150.19999694824</ele>
        <time>2014-11-23T09:44:12.000Z</time>
      </trkpt>
      <trkpt lat="48.97356" lon="1.03498">
        <ele>150</ele>
        <time>2014-11-23T09:44:13.000Z</time>
      </trkpt>
      <trkpt lat="48.97359" lon="1.03501">
        <ele>150</ele>
        <time>2014-11-23T09:44:14.000Z</time>
      </trkpt>
      <trkpt lat="48.97385" lon="1.03537">
        <ele>150.39999389648</ele>
        <time>2014-11-23T09:44:24.000Z</time>
      </trkpt>
      <trkpt lat="48.97413" lon="1.03571">
        <ele>150.80000305176</ele>
        <time>2014-11-23T09:44:34.000Z</time>
      </trkpt>
      <trkpt lat="48.97446" lon="1.03597">
        <ele>151.39999389648</ele>
        <time>2014-11-23T09:44:45.000Z</time>
      </trkpt>
      <trkpt lat="48.97478" lon="1.03629">
        <ele>151.80000305176</ele>
        <time>2014-11-23T09:44:57.000Z</time>
      </trkpt>
      <trkpt lat="48.97506" lon="1.03651">
        <ele>152</ele>
        <time>2014-11-23T09:45:07.000Z</time>
      </trkpt>
      <trkpt lat="48.97508" lon="1.03653">
        <ele>152.19999694824</ele>
        <time>2014-11-23T09:45:08.000Z</time>
      </trkpt>
      <trkpt lat="48.97541" lon="1.03679">
        <ele>152.19999694824</ele>
        <time>2014-11-23T09:45:20.000Z</time>
      </trkpt>
      <trkpt lat="48.97569" lon="1.03701">
        <ele>152.19999694824</ele>
        <time>2014-11-23T09:45:31.000Z</time>
      </trkpt>
      <trkpt lat="48.97592" lon="1.03724">
        <ele>152.19999694824</ele>
        <time>2014-11-23T09:45:40.000Z</time>
      </trkpt>
      <trkpt lat="48.97618" lon="1.0375">
        <ele>151.60000610352</ele>
        <time>2014-11-23T09:45:51.000Z</time>
      </trkpt>
      <trkpt lat="48.97643" lon="1.03772">
        <ele>151.80000305176</ele>
        <time>2014-11-23T09:46:02.000Z</time>
      </trkpt>
      <trkpt lat="48.97676" lon="1.03798">
        <ele>152</ele>
        <time>2014-11-23T09:46:13.000Z</time>
      </trkpt>
      <trkpt lat="48.97715" lon="1.03838">
        <ele>152.19999694824</ele>
        <time>2014-11-23T09:46:26.000Z</time>
      </trkpt>
      <trkpt lat="48.97728" lon="1.03851">
        <ele>152.39999389648</ele>
        <time>2014-11-23T09:46:30.000Z</time>
      </trkpt>
      <trkpt lat="48.97732" lon="1.03855">
        <ele>152.39999389648</ele>
        <time>2014-11-23T09:46:31.000Z</time>
      </trkpt>
      <trkpt lat="48.97748" lon="1.03866">
        <ele>152.60000610352</ele>
        <time>2014-11-23T09:46:35.000Z</time>
      </trkpt>
      <trkpt lat="48.97801" lon="1.03888">
        <ele>150.60000610352</ele>
        <time>2014-11-23T09:46:49.000Z</time>
      </trkpt>
      <trkpt lat="48.97828" lon="1.03877">
        <ele>148</ele>
        <time>2014-11-23T09:46:59.000Z</time>
      </trkpt>
      <trkpt lat="48.97853" lon="1.03869">
        <ele>146</ele>
        <time>2014-11-23T09:47:08.000Z</time>
      </trkpt>
      <trkpt lat="48.9788" lon="1.03858">
        <ele>145.39999389648</ele>
        <time>2014-11-23T09:47:15.000Z</time>
      </trkpt>
      <trkpt lat="48.97916" lon="1.03823">
        <ele>145</ele>
        <time>2014-11-23T09:47:25.000Z</time>
      </trkpt>
      <trkpt lat="48.97957" lon="1.03784">
        <ele>145.39999389648</ele>
        <time>2014-11-23T09:47:37.000Z</time>
      </trkpt>
      <trkpt lat="48.98001" lon="1.03762">
        <ele>144.80000305176</ele>
        <time>2014-11-23T09:47:48.000Z</time>
      </trkpt>
      <trkpt lat="48.98006" lon="1.0376">
        <ele>144.60000610352</ele>
        <time>2014-11-23T09:47:49.000Z</time>
      </trkpt>
      <trkpt lat="48.98011" lon="1.03757">
        <ele>144.60000610352</ele>
        <time>2014-11-23T09:47:50.000Z</time>
      </trkpt>
      <trkpt lat="48.9804" lon="1.03741">
        <ele>144.19999694824</ele>
        <time>2014-11-23T09:47:57.000Z</time>
      </trkpt>
      <trkpt lat="48.98045" lon="1.03739">
        <ele>144</ele>
        <time>2014-11-23T09:47:58.000Z</time>
      </trkpt>
      <trkpt lat="48.98049" lon="1.03737">
        <ele>143.80000305176</ele>
        <time>2014-11-23T09:47:59.000Z</time>
      </trkpt>
      <trkpt lat="48.98079" lon="1.0372">
        <ele>142.80000305176</ele>
        <time>2014-11-23T09:48:06.000Z</time>
      </trkpt>
      <trkpt lat="48.9808" lon="1.03716">
        <ele>142.60000610352</ele>
        <time>2014-11-23T09:48:07.000Z</time>
      </trkpt>
      <trkpt lat="48.9808" lon="1.03711">
        <ele>142.60000610352</ele>
        <time>2014-11-23T09:48:08.000Z</time>
      </trkpt>
      <trkpt lat="48.98079" lon="1.03705">
        <ele>142.80000305176</ele>
        <time>2014-11-23T09:48:09.000Z</time>
      </trkpt>
      <trkpt lat="48.98078" lon="1.037">
        <ele>142.80000305176</ele>
        <time>2014-11-23T09:48:10.000Z</time>
      </trkpt>
      <trkpt lat="48.9806" lon="1.03593">
        <ele>144.39999389648</ele>
        <time>2014-11-23T09:48:25.000Z</time>
      </trkpt>
      <trkpt lat="48.98058" lon="1.03578">
        <ele>144.60000610352</ele>
        <time>2014-11-23T09:48:27.000Z</time>
      </trkpt>
      <trkpt lat="48.98038" lon="1.03457">
        <ele>145.19999694824</ele>
        <time>2014-11-23T09:48:43.000Z</time>
      </trkpt>
      <trkpt lat="48.98019" lon="1.03343">
        <ele>142.80000305176</ele>
        <time>2014-11-23T09:48:59.000Z</time>
      </trkpt>
      <trkpt lat="48.97999" lon="1.03243">
        <ele>141.19999694824</ele>
        <time>2014-11-23T09:49:12.000Z</time>
      </trkpt>
      <trkpt lat="48.97998" lon="1.03235">
        <ele>141.19999694824</ele>
        <time>2014-11-23T09:49:13.000Z</time>
      </trkpt>
      <trkpt lat="48.97991" lon="1.03197">
        <ele>140.80000305176</ele>
        <time>2014-11-23T09:49:18.000Z</time>
      </trkpt>
      <trkpt lat="48.97989" lon="1.03189">
        <ele>140.60000610352</ele>
        <time>2014-11-23T09:49:19.000Z</time>
      </trkpt>
      <trkpt lat="48.97972" lon="1.03093">
        <ele>139.19999694824</ele>
        <time>2014-11-23T09:49:32.000Z</time>
      </trkpt>
      <trkpt lat="48.9796" lon="1.03023">
        <ele>137.60000610352</ele>
        <time>2014-11-23T09:49:45.000Z</time>
      </trkpt>
      <trkpt lat="48.97949" lon="1.02962">
        <ele>136.60000610352</ele>
        <time>2014-11-23T09:49:56.000Z</time>
      </trkpt>
      <trkpt lat="48.97946" lon="1.02937">
        <ele>136.39999389648</ele>
        <time>2014-11-23T09:50:01.000Z</time>
      </trkpt>
      <trkpt lat="48.97948" lon="1.02934">
        <ele>136.19999694824</ele>
        <time>2014-11-23T09:50:02.000Z</time>
      </trkpt>
      <trkpt lat="48.9795" lon="1.02931">
        <ele>136.19999694824</ele>
        <time>2014-11-23T09:50:03.000Z</time>
      </trkpt>
      <trkpt lat="48.97953" lon="1.02929">
        <ele>136</ele>
        <time>2014-11-23T09:50:04.000Z</time>
      </trkpt>
      <trkpt lat="48.97956" lon="1.02926">
        <ele>135.80000305176</ele>
        <time>2014-11-23T09:50:05.000Z</time>
      </trkpt>
      <trkpt lat="48.97963" lon="1.02922">
        <ele>135.60000610352</ele>
        <time>2014-11-23T09:50:07.000Z</time>
      </trkpt>
      <trkpt lat="48.97967" lon="1.0292">
        <ele>135.39999389648</ele>
        <time>2014-11-23T09:50:08.000Z</time>
      </trkpt>
      <trkpt lat="48.9797" lon="1.02918">
        <ele>135.19999694824</ele>
        <time>2014-11-23T09:50:09.000Z</time>
      </trkpt>
      <trkpt lat="48.98017" lon="1.02889">
        <ele>130.60000610352</ele>
        <time>2014-11-23T09:50:22.000Z</time>
      </trkpt>
      <trkpt lat="48.98026" lon="1.02884">
        <ele>129.60000610352</ele>
        <time>2014-11-23T09:50:24.000Z</time>
      </trkpt>
      <trkpt lat="48.9803" lon="1.02881">
        <ele>129</ele>
        <time>2014-11-23T09:50:25.000Z</time>
      </trkpt>
      <trkpt lat="48.98034" lon="1.02878">
        <ele>128.60000610352</ele>
        <time>2014-11-23T09:50:26.000Z</time>
      </trkpt>
      <trkpt lat="48.98048" lon="1.0287">
        <ele>127.19999694824</ele>
        <time>2014-11-23T09:50:29.000Z</time>
      </trkpt>
      <trkpt lat="48.98053" lon="1.02868">
        <ele>126.80000305176</ele>
        <time>2014-11-23T09:50:30.000Z</time>
      </trkpt>
      <trkpt lat="48.98059" lon="1.02865">
        <ele>126.19999694824</ele>
        <time>2014-11-23T09:50:31.000Z</time>
      </trkpt>
      <trkpt lat="48.98063" lon="1.02862">
        <ele>125.80000305176</ele>
        <time>2014-11-23T09:50:32.000Z</time>
      </trkpt>
      <trkpt lat="48.98068" lon="1.0286">
        <ele>125.40000152588</ele>
        <time>2014-11-23T09:50:33.000Z</time>
      </trkpt>
      <trkpt lat="48.98094" lon="1.02842">
        <ele>122.19999694824</ele>
        <time>2014-11-23T09:50:43.000Z</time>
      </trkpt>
      <trkpt lat="48.98112" lon="1.02822">
        <ele>119</ele>
        <time>2014-11-23T09:50:51.000Z</time>
      </trkpt>
      <trkpt lat="48.98113" lon="1.02822">
        <ele>118.59999847412</ele>
        <time>2014-11-23T09:50:52.000Z</time>
      </trkpt>
      <trkpt lat="48.98115" lon="1.02825">
        <ele>118.40000152588</ele>
        <time>2014-11-23T09:51:04.000Z</time>
      </trkpt>
      <trkpt lat="48.98121" lon="1.02824">
        <ele>117</ele>
        <time>2014-11-23T09:51:23.000Z</time>
      </trkpt>
      <trkpt lat="48.98133" lon="1.02859">
        <ele>116.40000152588</ele>
        <time>2014-11-23T09:51:34.000Z</time>
      </trkpt>
      <trkpt lat="48.98156" lon="1.02903">
        <ele>113.80000305176</ele>
        <time>2014-11-23T09:51:45.000Z</time>
      </trkpt>
      <trkpt lat="48.98161" lon="1.02909">
        <ele>112.80000305176</ele>
        <time>2014-11-23T09:51:48.000Z</time>
      </trkpt>
      <trkpt lat="48.98163" lon="1.02908">
        <ele>112.40000152588</ele>
        <time>2014-11-23T09:51:49.000Z</time>
      </trkpt>
      <trkpt lat="48.98165" lon="1.02906">
        <ele>111.80000305176</ele>
        <time>2014-11-23T09:51:51.000Z</time>
      </trkpt>
      <trkpt lat="48.98166" lon="1.02903">
        <ele>111.59999847412</ele>
        <time>2014-11-23T09:51:55.000Z</time>
      </trkpt>
      <trkpt lat="48.98165" lon="1.02903">
        <ele>111.59999847412</ele>
        <time>2014-11-23T09:51:56.000Z</time>
      </trkpt>
      <trkpt lat="48.98163" lon="1.02896">
        <ele>111.59999847412</ele>
        <time>2014-11-23T09:52:01.000Z</time>
      </trkpt>
      <trkpt lat="48.98166" lon="1.02882">
        <ele>110.19999694824</ele>
        <time>2014-11-23T09:52:06.000Z</time>
      </trkpt>
      <trkpt lat="48.98167" lon="1.02846">
        <ele>107.59999847412</ele>
        <time>2014-11-23T09:52:17.000Z</time>
      </trkpt>
      <trkpt lat="48.98167" lon="1.02797">
        <ele>104.59999847412</ele>
        <time>2014-11-23T09:52:29.000Z</time>
      </trkpt>
      <trkpt lat="48.98161" lon="1.02772">
        <ele>104</ele>
        <time>2014-11-23T09:52:38.000Z</time>
      </trkpt>
      <trkpt lat="48.98162" lon="1.02747">
        <ele>102.59999847412</ele>
        <time>2014-11-23T09:52:48.000Z</time>
      </trkpt>
      <trkpt lat="48.98162" lon="1.02738">
        <ele>102.40000152588</ele>
        <time>2014-11-23T09:52:51.000Z</time>
      </trkpt>
      <trkpt lat="48.98163" lon="1.02723">
        <ele>101.19999694824</ele>
        <time>2014-11-23T09:52:55.000Z</time>
      </trkpt>
      <trkpt lat="48.98166" lon="1.02677">
        <ele>98.800003051758</ele>
        <time>2014-11-23T09:53:08.000Z</time>
      </trkpt>
      <trkpt lat="48.98155" lon="1.02643">
        <ele>100</ele>
        <time>2014-11-23T09:53:20.000Z</time>
      </trkpt>
      <trkpt lat="48.98153" lon="1.02627">
        <ele>99.599998474121</ele>
        <time>2014-11-23T09:53:33.000Z</time>
      </trkpt>
      <trkpt lat="48.9816" lon="1.02621">
        <ele>98.599998474121</ele>
        <time>2014-11-23T09:53:40.000Z</time>
      </trkpt>
      <trkpt lat="48.98169" lon="1.02624">
        <ele>97.800003051758</ele>
        <time>2014-11-23T09:53:51.000Z</time>
      </trkpt>
      <trkpt lat="48.98172" lon="1.02621">
        <ele>97.400001525879</ele>
        <time>2014-11-23T09:53:55.000Z</time>
      </trkpt>
      <trkpt lat="48.98176" lon="1.02609">
        <ele>97.400001525879</ele>
        <time>2014-11-23T09:54:00.000Z</time>
      </trkpt>
      <trkpt lat="48.98181" lon="1.02586">
        <ele>97.199996948242</ele>
        <time>2014-11-23T09:54:10.000Z</time>
      </trkpt>
      <trkpt lat="48.98187" lon="1.02562">
        <ele>97.199996948242</ele>
        <time>2014-11-23T09:54:21.000Z</time>
      </trkpt>
      <trkpt lat="48.98188" lon="1.02541">
        <ele>97.199996948242</ele>
        <time>2014-11-23T09:54:29.000Z</time>
      </trkpt>
      <trkpt lat="48.98189" lon="1.02528">
        <ele>97.199996948242</ele>
        <time>2014-11-23T09:54:34.000Z</time>
      </trkpt>
      <trkpt lat="48.9819" lon="1.02493">
        <ele>97</ele>
        <time>2014-11-23T09:54:47.000Z</time>
      </trkpt>
      <trkpt lat="48.98192" lon="1.02478">
        <ele>96.800003051758</ele>
        <time>2014-11-23T09:54:52.000Z</time>
      </trkpt>
      <trkpt lat="48.98197" lon="1.02428">
        <ele>96.800003051758</ele>
        <time>2014-11-23T09:55:05.000Z</time>
      </trkpt>
      <trkpt lat="48.98198" lon="1.02389">
        <ele>97</ele>
        <time>2014-11-23T09:55:14.000Z</time>
      </trkpt>
      <trkpt lat="48.98192" lon="1.02332">
        <ele>95.800003051758</ele>
        <time>2014-11-23T09:55:26.000Z</time>
      </trkpt>
      <trkpt lat="48.98188" lon="1.0232">
        <ele>95.599998474121</ele>
        <time>2014-11-23T09:55:28.000Z</time>
      </trkpt>
      <trkpt lat="48.98175" lon="1.02274">
        <ele>95.599998474121</ele>
        <time>2014-11-23T09:55:34.000Z</time>
      </trkpt>
      <trkpt lat="48.98173" lon="1.02267">
        <ele>95.599998474121</ele>
        <time>2014-11-23T09:55:35.000Z</time>
      </trkpt>
      <trkpt lat="48.98171" lon="1.02262">
        <ele>95.599998474121</ele>
        <time>2014-11-23T09:55:36.000Z</time>
      </trkpt>
      <trkpt lat="48.98169" lon="1.02257">
        <ele>95.599998474121</ele>
        <time>2014-11-23T09:55:37.000Z</time>
      </trkpt>
      <trkpt lat="48.98167" lon="1.02254">
        <ele>95.599998474121</ele>
        <time>2014-11-23T09:55:38.000Z</time>
      </trkpt>
      <trkpt lat="48.98164" lon="1.0225">
        <ele>95.800003051758</ele>
        <time>2014-11-23T09:55:39.000Z</time>
      </trkpt>
      <trkpt lat="48.98164" lon="1.02248">
        <ele>95.800003051758</ele>
        <time>2014-11-23T09:55:40.000Z</time>
      </trkpt>
      <trkpt lat="48.98162" lon="1.02244">
        <ele>95.800003051758</ele>
        <time>2014-11-23T09:55:41.000Z</time>
      </trkpt>
      <trkpt lat="48.98161" lon="1.02241">
        <ele>95.800003051758</ele>
        <time>2014-11-23T09:55:42.000Z</time>
      </trkpt>
      <trkpt lat="48.98142" lon="1.02196">
        <ele>97</ele>
        <time>2014-11-23T09:55:51.000Z</time>
      </trkpt>
      <trkpt lat="48.98124" lon="1.02148">
        <ele>98.199996948242</ele>
        <time>2014-11-23T09:56:03.000Z</time>
      </trkpt>
      <trkpt lat="48.98107" lon="1.02088">
        <ele>98.800003051758</ele>
        <time>2014-11-23T09:56:16.000Z</time>
      </trkpt>
      <trkpt lat="48.98085" lon="1.02024">
        <ele>101</ele>
        <time>2014-11-23T09:56:30.000Z</time>
      </trkpt>
      <trkpt lat="48.98059" lon="1.0198">
        <ele>104</ele>
        <time>2014-11-23T09:56:42.000Z</time>
      </trkpt>
      <trkpt lat="48.98043" lon="1.01959">
        <ele>106.19999694824</ele>
        <time>2014-11-23T09:56:49.000Z</time>
      </trkpt>
      <trkpt lat="48.98043" lon="1.01954">
        <ele>106</ele>
        <time>2014-11-23T09:56:50.000Z</time>
      </trkpt>
      <trkpt lat="48.98043" lon="1.01949">
        <ele>105.80000305176</ele>
        <time>2014-11-23T09:56:51.000Z</time>
      </trkpt>
      <trkpt lat="48.98044" lon="1.01944">
        <ele>105.40000152588</ele>
        <time>2014-11-23T09:56:52.000Z</time>
      </trkpt>
      <trkpt lat="48.98044" lon="1.01939">
        <ele>105.19999694824</ele>
        <time>2014-11-23T09:56:53.000Z</time>
      </trkpt>
      <trkpt lat="48.98043" lon="1.01933">
        <ele>105</ele>
        <time>2014-11-23T09:56:54.000Z</time>
      </trkpt>
      <trkpt lat="48.98034" lon="1.01882">
        <ele>104.40000152588</ele>
        <time>2014-11-23T09:57:06.000Z</time>
      </trkpt>
      <trkpt lat="48.98025" lon="1.01843">
        <ele>104</ele>
        <time>2014-11-23T09:57:18.000Z</time>
      </trkpt>
      <trkpt lat="48.98023" lon="1.01841">
        <ele>104.19999694824</ele>
        <time>2014-11-23T09:57:20.000Z</time>
      </trkpt>
      <trkpt lat="48.98021" lon="1.01839">
        <ele>104.59999847412</ele>
        <time>2014-11-23T09:57:21.000Z</time>
      </trkpt>
      <trkpt lat="48.98019" lon="1.01836">
        <ele>104.80000305176</ele>
        <time>2014-11-23T09:57:25.000Z</time>
      </trkpt>
      <trkpt lat="48.98017" lon="1.01834">
        <ele>105</ele>
        <time>2014-11-23T09:57:26.000Z</time>
      </trkpt>
      <trkpt lat="48.98015" lon="1.01832">
        <ele>105.40000152588</ele>
        <time>2014-11-23T09:57:28.000Z</time>
      </trkpt>
      <trkpt lat="48.98002" lon="1.01834">
        <ele>108</ele>
        <time>2014-11-23T09:57:39.000Z</time>
      </trkpt>
      <trkpt lat="48.97995" lon="1.01836">
        <ele>109.40000152588</ele>
        <time>2014-11-23T09:57:48.000Z</time>
      </trkpt>
      <trkpt lat="48.97991" lon="1.01838">
        <ele>110.40000152588</ele>
        <time>2014-11-23T09:57:58.000Z</time>
      </trkpt>
      <trkpt lat="48.97985" lon="1.01844">
        <ele>111.80000305176</ele>
        <time>2014-11-23T09:58:12.000Z</time>
      </trkpt>
      <trkpt lat="48.97973" lon="1.01845">
        <ele>114</ele>
        <time>2014-11-23T09:58:27.000Z</time>
      </trkpt>
      <trkpt lat="48.97962" lon="1.01843">
        <ele>116</ele>
        <time>2014-11-23T09:58:43.000Z</time>
      </trkpt>
      <trkpt lat="48.97955" lon="1.01847">
        <ele>117.40000152588</ele>
        <time>2014-11-23T09:58:58.000Z</time>
      </trkpt>
      <trkpt lat="48.97949" lon="1.01847">
        <ele>118.40000152588</ele>
        <time>2014-11-23T09:59:12.000Z</time>
      </trkpt>
      <trkpt lat="48.97948" lon="1.01844">
        <ele>118.59999847412</ele>
        <time>2014-11-23T09:59:16.000Z</time>
      </trkpt>
      <trkpt lat="48.97945" lon="1.01833">
        <ele>118.59999847412</ele>
        <time>2014-11-23T09:59:25.000Z</time>
      </trkpt>
      <trkpt lat="48.97943" lon="1.01825">
        <ele>118.59999847412</ele>
        <time>2014-11-23T09:59:37.000Z</time>
      </trkpt>
      <trkpt lat="48.97954" lon="1.01809">
        <ele>115.59999847412</ele>
        <time>2014-11-23T09:59:50.000Z</time>
      </trkpt>
      <trkpt lat="48.97957" lon="1.01801">
        <ele>114.80000305176</ele>
        <time>2014-11-23T09:59:56.000Z</time>
      </trkpt>
      <trkpt lat="48.97975" lon="1.01779">
        <ele>111.19999694824</ele>
        <time>2014-11-23T10:00:09.000Z</time>
      </trkpt>
      <trkpt lat="48.97975" lon="1.01776">
        <ele>111</ele>
        <time>2014-11-23T10:00:10.000Z</time>
      </trkpt>
      <trkpt lat="48.97975" lon="1.01755">
        <ele>110.80000305176</ele>
        <time>2014-11-23T10:00:16.000Z</time>
      </trkpt>
      <trkpt lat="48.97958" lon="1.01719">
        <ele>113</ele>
        <time>2014-11-23T10:00:28.000Z</time>
      </trkpt>
      <trkpt lat="48.97954" lon="1.01705">
        <ele>113</ele>
        <time>2014-11-23T10:00:34.000Z</time>
      </trkpt>
      <trkpt lat="48.97948" lon="1.01697">
        <ele>114</ele>
        <time>2014-11-23T10:00:45.000Z</time>
      </trkpt>
      <trkpt lat="48.97947" lon="1.01691">
        <ele>113.59999847412</ele>
        <time>2014-11-23T10:00:56.000Z</time>
      </trkpt>
      <trkpt lat="48.97949" lon="1.01688">
        <ele>113</ele>
        <time>2014-11-23T10:01:11.000Z</time>
      </trkpt>
      <trkpt lat="48.97945" lon="1.0168">
        <ele>113.40000152588</ele>
        <time>2014-11-23T10:01:21.000Z</time>
      </trkpt>
      <trkpt lat="48.9793" lon="1.01668">
        <ele>115.59999847412</ele>
        <time>2014-11-23T10:01:35.000Z</time>
      </trkpt>
      <trkpt lat="48.97927" lon="1.01666">
        <ele>116</ele>
        <time>2014-11-23T10:01:38.000Z</time>
      </trkpt>
      <trkpt lat="48.97913" lon="1.01662">
        <ele>118.40000152588</ele>
        <time>2014-11-23T10:01:51.000Z</time>
      </trkpt>
      <trkpt lat="48.97896" lon="1.01665">
        <ele>121.40000152588</ele>
        <time>2014-11-23T10:02:05.000Z</time>
      </trkpt>
      <trkpt lat="48.9788" lon="1.0167">
        <ele>124.59999847412</ele>
        <time>2014-11-23T10:02:15.000Z</time>
      </trkpt>
      <trkpt lat="48.97862" lon="1.01656">
        <ele>126.59999847412</ele>
        <time>2014-11-23T10:02:29.000Z</time>
      </trkpt>
      <trkpt lat="48.97853" lon="1.01641">
        <ele>127.40000152588</ele>
        <time>2014-11-23T10:02:40.000Z</time>
      </trkpt>
      <trkpt lat="48.97838" lon="1.01609">
        <ele>127.19999694824</ele>
        <time>2014-11-23T10:02:54.000Z</time>
      </trkpt>
      <trkpt lat="48.97822" lon="1.01589">
        <ele>128</ele>
        <time>2014-11-23T10:03:02.000Z</time>
      </trkpt>
      <trkpt lat="48.97789" lon="1.01563">
        <ele>131</ele>
        <time>2014-11-23T10:03:14.000Z</time>
      </trkpt>
      <trkpt lat="48.97747" lon="1.01539">
        <ele>131.39999389648</ele>
        <time>2014-11-23T10:03:26.000Z</time>
      </trkpt>
      <trkpt lat="48.97714" lon="1.01529">
        <ele>131.19999694824</ele>
        <time>2014-11-23T10:03:38.000Z</time>
      </trkpt>
      <trkpt lat="48.9769" lon="1.01526">
        <ele>131.60000610352</ele>
        <time>2014-11-23T10:03:49.000Z</time>
      </trkpt>
      <trkpt lat="48.97663" lon="1.01526">
        <ele>128.80000305176</ele>
        <time>2014-11-23T10:04:02.000Z</time>
      </trkpt>
      <trkpt lat="48.9764" lon="1.01531">
        <ele>128.39999389648</ele>
        <time>2014-11-23T10:04:14.000Z</time>
      </trkpt>
      <trkpt lat="48.97612" lon="1.01543">
        <ele>129.19999694824</ele>
        <time>2014-11-23T10:04:27.000Z</time>
      </trkpt>
      <trkpt lat="48.97591" lon="1.01558">
        <ele>128.39999389648</ele>
        <time>2014-11-23T10:04:39.000Z</time>
      </trkpt>
      <trkpt lat="48.97582" lon="1.01565">
        <ele>127.59999847412</ele>
        <time>2014-11-23T10:04:45.000Z</time>
      </trkpt>
      <trkpt lat="48.97561" lon="1.01588">
        <ele>126</ele>
        <time>2014-11-23T10:05:00.000Z</time>
      </trkpt>
      <trkpt lat="48.97542" lon="1.01612">
        <ele>126.59999847412</ele>
        <time>2014-11-23T10:05:11.000Z</time>
      </trkpt>
      <trkpt lat="48.97539" lon="1.01618">
        <ele>127.40000152588</ele>
        <time>2014-11-23T10:05:14.000Z</time>
      </trkpt>
      <trkpt lat="48.97536" lon="1.01625">
        <ele>128</ele>
        <time>2014-11-23T10:05:18.000Z</time>
      </trkpt>
      <trkpt lat="48.97522" lon="1.0165">
        <ele>129.39999389648</ele>
        <time>2014-11-23T10:05:29.000Z</time>
      </trkpt>
      <trkpt lat="48.97518" lon="1.01659">
        <ele>129</ele>
        <time>2014-11-23T10:05:41.000Z</time>
      </trkpt>
      <trkpt lat="48.97516" lon="1.0166">
        <ele>128.60000610352</ele>
        <time>2014-11-23T10:06:02.000Z</time>
      </trkpt>
      <trkpt lat="48.97519" lon="1.01661">
        <ele>129.60000610352</ele>
        <time>2014-11-23T10:06:30.000Z</time>
      </trkpt>
      <trkpt lat="48.97522" lon="1.01662">
        <ele>130.39999389648</ele>
        <time>2014-11-23T10:07:03.000Z</time>
      </trkpt>
      <trkpt lat="48.97532" lon="1.01633">
        <ele>128.60000610352</ele>
        <time>2014-11-23T10:07:15.000Z</time>
      </trkpt>
      <trkpt lat="48.97558" lon="1.01588">
        <ele>125.40000152588</ele>
        <time>2014-11-23T10:07:27.000Z</time>
      </trkpt>
      <trkpt lat="48.97585" lon="1.01559">
        <ele>127.40000152588</ele>
        <time>2014-11-23T10:07:38.000Z</time>
      </trkpt>
      <trkpt lat="48.9759" lon="1.01553">
        <ele>127.40000152588</ele>
        <time>2014-11-23T10:07:40.000Z</time>
      </trkpt>
      <trkpt lat="48.97609" lon="1.0154">
        <ele>128.39999389648</ele>
        <time>2014-11-23T10:07:45.000Z</time>
      </trkpt>
      <trkpt lat="48.97652" lon="1.01525">
        <ele>127.59999847412</ele>
        <time>2014-11-23T10:07:58.000Z</time>
      </trkpt>
      <trkpt lat="48.97689" lon="1.01524">
        <ele>131.19999694824</ele>
        <time>2014-11-23T10:08:10.000Z</time>
      </trkpt>
      <trkpt lat="48.97738" lon="1.01534">
        <ele>131</ele>
        <time>2014-11-23T10:08:22.000Z</time>
      </trkpt>
      <trkpt lat="48.97787" lon="1.01559">
        <ele>131</ele>
        <time>2014-11-23T10:08:36.000Z</time>
      </trkpt>
      <trkpt lat="48.97825" lon="1.01593">
        <ele>127.80000305176</ele>
        <time>2014-11-23T10:08:49.000Z</time>
      </trkpt>
      <trkpt lat="48.97851" lon="1.01637">
        <ele>127.59999847412</ele>
        <time>2014-11-23T10:09:00.000Z</time>
      </trkpt>
      <trkpt lat="48.97855" lon="1.01644">
        <ele>127.40000152588</ele>
        <time>2014-11-23T10:09:03.000Z</time>
      </trkpt>
      <trkpt lat="48.9786" lon="1.01644">
        <ele>126.80000305176</ele>
        <time>2014-11-23T10:09:12.000Z</time>
      </trkpt>
      <trkpt lat="48.97856" lon="1.01642">
        <ele>127.19999694824</ele>
        <time>2014-11-23T10:09:22.000Z</time>
      </trkpt>
      <trkpt lat="48.97853" lon="1.01636">
        <ele>127.40000152588</ele>
        <time>2014-11-23T10:09:26.000Z</time>
      </trkpt>
      <trkpt lat="48.97834" lon="1.016">
        <ele>127</ele>
        <time>2014-11-23T10:09:39.000Z</time>
      </trkpt>
      <trkpt lat="48.97795" lon="1.01562">
        <ele>130</ele>
        <time>2014-11-23T10:09:53.000Z</time>
      </trkpt>
      <trkpt lat="48.97752" lon="1.01537">
        <ele>131</ele>
        <time>2014-11-23T10:10:07.000Z</time>
      </trkpt>
      <trkpt lat="48.9772" lon="1.01528">
        <ele>130.80000305176</ele>
        <time>2014-11-23T10:10:19.000Z</time>
      </trkpt>
      <trkpt lat="48.97678" lon="1.01525">
        <ele>130</ele>
        <time>2014-11-23T10:10:34.000Z</time>
      </trkpt>
      <trkpt lat="48.97648" lon="1.01529">
        <ele>128.39999389648</ele>
        <time>2014-11-23T10:10:46.000Z</time>
      </trkpt>
      <trkpt lat="48.97623" lon="1.01537">
        <ele>128.60000610352</ele>
        <time>2014-11-23T10:10:57.000Z</time>
      </trkpt>
      <trkpt lat="48.97597" lon="1.01552">
        <ele>128.60000610352</ele>
        <time>2014-11-23T10:11:09.000Z</time>
      </trkpt>
      <trkpt lat="48.97576" lon="1.01572">
        <ele>127.19999694824</ele>
        <time>2014-11-23T10:11:21.000Z</time>
      </trkpt>
      <trkpt lat="48.97552" lon="1.01599">
        <ele>126</ele>
        <time>2014-11-23T10:11:35.000Z</time>
      </trkpt>
      <trkpt lat="48.97533" lon="1.01627">
        <ele>128</ele>
        <time>2014-11-23T10:11:49.000Z</time>
      </trkpt>
      <trkpt lat="48.97517" lon="1.01665">
        <ele>129.60000610352</ele>
        <time>2014-11-23T10:12:02.000Z</time>
      </trkpt>
      <trkpt lat="48.97504" lon="1.01702">
        <ele>129.80000305176</ele>
        <time>2014-11-23T10:12:16.000Z</time>
      </trkpt>
      <trkpt lat="48.97487" lon="1.01738">
        <ele>130.39999389648</ele>
        <time>2014-11-23T10:12:29.000Z</time>
      </trkpt>
      <trkpt lat="48.97471" lon="1.01779">
        <ele>130.80000305176</ele>
        <time>2014-11-23T10:12:42.000Z</time>
      </trkpt>
      <trkpt lat="48.97463" lon="1.01798">
        <ele>131.39999389648</ele>
        <time>2014-11-23T10:12:48.000Z</time>
      </trkpt>
      <trkpt lat="48.97457" lon="1.0181">
        <ele>131.19999694824</ele>
        <time>2014-11-23T10:12:52.000Z</time>
      </trkpt>
      <trkpt lat="48.97437" lon="1.01856">
        <ele>132.19999694824</ele>
        <time>2014-11-23T10:13:05.000Z</time>
      </trkpt>
      <trkpt lat="48.97426" lon="1.01895">
        <ele>133.39999389648</ele>
        <time>2014-11-23T10:13:17.000Z</time>
      </trkpt>
      <trkpt lat="48.97411" lon="1.01942">
        <ele>133.80000305176</ele>
        <time>2014-11-23T10:13:31.000Z</time>
      </trkpt>
      <trkpt lat="48.97392" lon="1.01988">
        <ele>134.19999694824</ele>
        <time>2014-11-23T10:13:44.000Z</time>
      </trkpt>
      <trkpt lat="48.97356" lon="1.02038">
        <ele>133.80000305176</ele>
        <time>2014-11-23T10:13:57.000Z</time>
      </trkpt>
      <trkpt lat="48.97333" lon="1.02072">
        <ele>132.19999694824</ele>
        <time>2014-11-23T10:14:08.000Z</time>
      </trkpt>
      <trkpt lat="48.97308" lon="1.02112">
        <ele>130.19999694824</ele>
        <time>2014-11-23T10:14:19.000Z</time>
      </trkpt>
      <trkpt lat="48.97282" lon="1.02164">
        <ele>132.19999694824</ele>
        <time>2014-11-23T10:14:31.000Z</time>
      </trkpt>
      <trkpt lat="48.97269" lon="1.022">
        <ele>135</ele>
        <time>2014-11-23T10:14:41.000Z</time>
      </trkpt>
      <trkpt lat="48.97249" lon="1.02237">
        <ele>136.60000610352</ele>
        <time>2014-11-23T10:14:53.000Z</time>
      </trkpt>
      <trkpt lat="48.97228" lon="1.0227">
        <ele>137.80000305176</ele>
        <time>2014-11-23T10:15:01.000Z</time>
      </trkpt>
      <trkpt lat="48.97206" lon="1.02307">
        <ele>142.60000610352</ele>
        <time>2014-11-23T10:15:13.000Z</time>
      </trkpt>
      <trkpt lat="48.97205" lon="1.02313">
        <ele>143</ele>
        <time>2014-11-23T10:15:31.000Z</time>
      </trkpt>
      <trkpt lat="48.97196" lon="1.02328">
        <ele>143.60000610352</ele>
        <time>2014-11-23T10:15:45.000Z</time>
      </trkpt>
      <trkpt lat="48.97171" lon="1.02355">
        <ele>141.60000610352</ele>
        <time>2014-11-23T10:15:54.000Z</time>
      </trkpt>
      <trkpt lat="48.97171" lon="1.02358">
        <ele>141.80000305176</ele>
        <time>2014-11-23T10:15:55.000Z</time>
      </trkpt>
      <trkpt lat="48.97172" lon="1.02363">
        <ele>142.19999694824</ele>
        <time>2014-11-23T10:15:56.000Z</time>
      </trkpt>
      <trkpt lat="48.97173" lon="1.02366">
        <ele>142.80000305176</ele>
        <time>2014-11-23T10:15:57.000Z</time>
      </trkpt>
      <trkpt lat="48.97174" lon="1.0237">
        <ele>143.39999389648</ele>
        <time>2014-11-23T10:15:58.000Z</time>
      </trkpt>
      <trkpt lat="48.97174" lon="1.02374">
        <ele>143.80000305176</ele>
        <time>2014-11-23T10:15:59.000Z</time>
      </trkpt>
      <trkpt lat="48.97174" lon="1.02377">
        <ele>144</ele>
        <time>2014-11-23T10:16:00.000Z</time>
      </trkpt>
      <trkpt lat="48.97173" lon="1.02379">
        <ele>144.19999694824</ele>
        <time>2014-11-23T10:16:01.000Z</time>
      </trkpt>
      <trkpt lat="48.97168" lon="1.02382">
        <ele>144</ele>
        <time>2014-11-23T10:16:03.000Z</time>
      </trkpt>
      <trkpt lat="48.97164" lon="1.02383">
        <ele>143.39999389648</ele>
        <time>2014-11-23T10:16:04.000Z</time>
      </trkpt>
      <trkpt lat="48.97119" lon="1.02397">
        <ele>138</ele>
        <time>2014-11-23T10:16:15.000Z</time>
      </trkpt>
      <trkpt lat="48.97103" lon="1.02405">
        <ele>136.19999694824</ele>
        <time>2014-11-23T10:16:18.000Z</time>
      </trkpt>
      <trkpt lat="48.97096" lon="1.02408">
        <ele>135.19999694824</ele>
        <time>2014-11-23T10:16:19.000Z</time>
      </trkpt>
      <trkpt lat="48.97056" lon="1.02429">
        <ele>129.60000610352</ele>
        <time>2014-11-23T10:16:26.000Z</time>
      </trkpt>
      <trkpt lat="48.9703" lon="1.02453">
        <ele>130.60000610352</ele>
        <time>2014-11-23T10:16:31.000Z</time>
      </trkpt>
      <trkpt lat="48.97022" lon="1.02465">
        <ele>131.60000610352</ele>
        <time>2014-11-23T10:16:33.000Z</time>
      </trkpt>
      <trkpt lat="48.97018" lon="1.02471">
        <ele>131.80000305176</ele>
        <time>2014-11-23T10:16:34.000Z</time>
      </trkpt>
      <trkpt lat="48.97013" lon="1.02474">
        <ele>131.19999694824</ele>
        <time>2014-11-23T10:16:35.000Z</time>
      </trkpt>
      <trkpt lat="48.97003" lon="1.02472">
        <ele>128.39999389648</ele>
        <time>2014-11-23T10:16:37.000Z</time>
      </trkpt>
      <trkpt lat="48.96997" lon="1.02471">
        <ele>127</ele>
        <time>2014-11-23T10:16:38.000Z</time>
      </trkpt>
      <trkpt lat="48.96994" lon="1.02471">
        <ele>126.40000152588</ele>
        <time>2014-11-23T10:16:39.000Z</time>
      </trkpt>
      <trkpt lat="48.96989" lon="1.02472">
        <ele>125.40000152588</ele>
        <time>2014-11-23T10:16:40.000Z</time>
      </trkpt>
      <trkpt lat="48.96984" lon="1.02474">
        <ele>124.59999847412</ele>
        <time>2014-11-23T10:16:41.000Z</time>
      </trkpt>
      <trkpt lat="48.96978" lon="1.02478">
        <ele>123.80000305176</ele>
        <time>2014-11-23T10:16:42.000Z</time>
      </trkpt>
      <trkpt lat="48.96973" lon="1.02482">
        <ele>123</ele>
        <time>2014-11-23T10:16:43.000Z</time>
      </trkpt>
      <trkpt lat="48.96969" lon="1.02486">
        <ele>122.40000152588</ele>
        <time>2014-11-23T10:16:44.000Z</time>
      </trkpt>
      <trkpt lat="48.96964" lon="1.02491">
        <ele>122</ele>
        <time>2014-11-23T10:16:45.000Z</time>
      </trkpt>
      <trkpt lat="48.96956" lon="1.02502">
        <ele>121.59999847412</ele>
        <time>2014-11-23T10:16:47.000Z</time>
      </trkpt>
      <trkpt lat="48.96952" lon="1.02508">
        <ele>121.80000305176</ele>
        <time>2014-11-23T10:16:48.000Z</time>
      </trkpt>
      <trkpt lat="48.9693" lon="1.02539">
        <ele>121.59999847412</ele>
        <time>2014-11-23T10:16:53.000Z</time>
      </trkpt>
      <trkpt lat="48.96914" lon="1.02556">
        <ele>118.19999694824</ele>
        <time>2014-11-23T10:16:56.000Z</time>
      </trkpt>
      <trkpt lat="48.96905" lon="1.02569">
        <ele>116.19999694824</ele>
        <time>2014-11-23T10:16:58.000Z</time>
      </trkpt>
      <trkpt lat="48.96891" lon="1.02599">
        <ele>113.59999847412</ele>
        <time>2014-11-23T10:17:02.000Z</time>
      </trkpt>
      <trkpt lat="48.96888" lon="1.02608">
        <ele>113.19999694824</ele>
        <time>2014-11-23T10:17:03.000Z</time>
      </trkpt>
      <trkpt lat="48.96882" lon="1.02615">
        <ele>111.40000152588</ele>
        <time>2014-11-23T10:17:09.000Z</time>
      </trkpt>
      <trkpt lat="48.96882" lon="1.02594">
        <ele>110.59999847412</ele>
        <time>2014-11-23T10:17:14.000Z</time>
      </trkpt>
      <trkpt lat="48.96883" lon="1.02589">
        <ele>110.59999847412</ele>
        <time>2014-11-23T10:17:15.000Z</time>
      </trkpt>
      <trkpt lat="48.96884" lon="1.02585">
        <ele>110.59999847412</ele>
        <time>2014-11-23T10:17:16.000Z</time>
      </trkpt>
      <trkpt lat="48.96884" lon="1.02579">
        <ele>110.40000152588</ele>
        <time>2014-11-23T10:17:17.000Z</time>
      </trkpt>
      <trkpt lat="48.96886" lon="1.02566">
        <ele>110.40000152588</ele>
        <time>2014-11-23T10:17:19.000Z</time>
      </trkpt>
      <trkpt lat="48.96898" lon="1.02509">
        <ele>110.40000152588</ele>
        <time>2014-11-23T10:17:27.000Z</time>
      </trkpt>
      <trkpt lat="48.96902" lon="1.02493">
        <ele>109.19999694824</ele>
        <time>2014-11-23T10:17:29.000Z</time>
      </trkpt>
      <trkpt lat="48.96906" lon="1.02486">
        <ele>108.80000305176</ele>
        <time>2014-11-23T10:17:30.000Z</time>
      </trkpt>
      <trkpt lat="48.96948" lon="1.02404">
        <ele>104.40000152588</ele>
        <time>2014-11-23T10:17:40.000Z</time>
      </trkpt>
      <trkpt lat="48.96958" lon="1.02385">
        <ele>104</ele>
        <time>2014-11-23T10:17:43.000Z</time>
      </trkpt>
      <trkpt lat="48.9696" lon="1.02379">
        <ele>103.59999847412</ele>
        <time>2014-11-23T10:17:44.000Z</time>
      </trkpt>
      <trkpt lat="48.96962" lon="1.02373">
        <ele>103.40000152588</ele>
        <time>2014-11-23T10:17:45.000Z</time>
      </trkpt>
      <trkpt lat="48.96965" lon="1.02367">
        <ele>103.40000152588</ele>
        <time>2014-11-23T10:17:46.000Z</time>
      </trkpt>
      <trkpt lat="48.96969" lon="1.02363">
        <ele>104</ele>
        <time>2014-11-23T10:17:47.000Z</time>
      </trkpt>
      <trkpt lat="48.96973" lon="1.02359">
        <ele>104.40000152588</ele>
        <time>2014-11-23T10:17:48.000Z</time>
      </trkpt>
      <trkpt lat="48.96978" lon="1.02354">
        <ele>104.80000305176</ele>
        <time>2014-11-23T10:17:49.000Z</time>
      </trkpt>
      <trkpt lat="48.96982" lon="1.02349">
        <ele>105</ele>
        <time>2014-11-23T10:17:50.000Z</time>
      </trkpt>
      <trkpt lat="48.97017" lon="1.02303">
        <ele>103.80000305176</ele>
        <time>2014-11-23T10:18:02.000Z</time>
      </trkpt>
      <trkpt lat="48.97058" lon="1.02245">
        <ele>102.80000305176</ele>
        <time>2014-11-23T10:18:17.000Z</time>
      </trkpt>
      <trkpt lat="48.97087" lon="1.02198">
        <ele>102.80000305176</ele>
        <time>2014-11-23T10:18:26.000Z</time>
      </trkpt>
      <trkpt lat="48.97109" lon="1.02159">
        <ele>98.599998474121</ele>
        <time>2014-11-23T10:18:32.000Z</time>
      </trkpt>
      <trkpt lat="48.9717" lon="1.02052">
        <ele>100</ele>
        <time>2014-11-23T10:18:47.000Z</time>
      </trkpt>
      <trkpt lat="48.97181" lon="1.02031">
        <ele>99.599998474121</ele>
        <time>2014-11-23T10:18:50.000Z</time>
      </trkpt>
      <trkpt lat="48.97205" lon="1.01989">
        <ele>98</ele>
        <time>2014-11-23T10:18:56.000Z</time>
      </trkpt>
      <trkpt lat="48.97209" lon="1.01982">
        <ele>97.599998474121</ele>
        <time>2014-11-23T10:18:57.000Z</time>
      </trkpt>
      <trkpt lat="48.97213" lon="1.01975">
        <ele>97.199996948242</ele>
        <time>2014-11-23T10:18:58.000Z</time>
      </trkpt>
      <trkpt lat="48.9725" lon="1.0191">
        <ele>97.199996948242</ele>
        <time>2014-11-23T10:19:09.000Z</time>
      </trkpt>
      <trkpt lat="48.97292" lon="1.01836">
        <ele>97.400001525879</ele>
        <time>2014-11-23T10:19:22.000Z</time>
      </trkpt>
      <trkpt lat="48.97347" lon="1.01742">
        <ele>97.800003051758</ele>
        <time>2014-11-23T10:19:37.000Z</time>
      </trkpt>
      <trkpt lat="48.97397" lon="1.01655">
        <ele>99</ele>
        <time>2014-11-23T10:19:52.000Z</time>
      </trkpt>
      <trkpt lat="48.97451" lon="1.01561">
        <ele>98.599998474121</ele>
        <time>2014-11-23T10:20:09.000Z</time>
      </trkpt>
      <trkpt lat="48.97454" lon="1.01556">
        <ele>98.800003051758</ele>
        <time>2014-11-23T10:20:10.000Z</time>
      </trkpt>
      <trkpt lat="48.97492" lon="1.01499">
        <ele>100.40000152588</ele>
        <time>2014-11-23T10:20:21.000Z</time>
      </trkpt>
      <trkpt lat="48.97496" lon="1.01495">
        <ele>100</ele>
        <time>2014-11-23T10:20:22.000Z</time>
      </trkpt>
      <trkpt lat="48.9751" lon="1.01477">
        <ele>98.599998474121</ele>
        <time>2014-11-23T10:20:26.000Z</time>
      </trkpt>
      <trkpt lat="48.97514" lon="1.01473">
        <ele>98.800003051758</ele>
        <time>2014-11-23T10:20:27.000Z</time>
      </trkpt>
      <trkpt lat="48.97544" lon="1.01444">
        <ele>100</ele>
        <time>2014-11-23T10:20:34.000Z</time>
      </trkpt>
      <trkpt lat="48.97615" lon="1.01394">
        <ele>99.199996948242</ele>
        <time>2014-11-23T10:20:49.000Z</time>
      </trkpt>
      <trkpt lat="48.97642" lon="1.01379">
        <ele>99.800003051758</ele>
        <time>2014-11-23T10:20:54.000Z</time>
      </trkpt>
      <trkpt lat="48.97677" lon="1.01363">
        <ele>100.59999847412</ele>
        <time>2014-11-23T10:21:00.000Z</time>
      </trkpt>
      <trkpt lat="48.97693" lon="1.01357">
        <ele>100.19999694824</ele>
        <time>2014-11-23T10:21:03.000Z</time>
      </trkpt>
      <trkpt lat="48.9772" lon="1.01345">
        <ele>98.199996948242</ele>
        <time>2014-11-23T10:21:10.000Z</time>
      </trkpt>
      <trkpt lat="48.97721" lon="1.01341">
        <ele>97.400001525879</ele>
        <time>2014-11-23T10:21:11.000Z</time>
      </trkpt>
      <trkpt lat="48.97722" lon="1.01337">
        <ele>96.800003051758</ele>
        <time>2014-11-23T10:21:12.000Z</time>
      </trkpt>
      <trkpt lat="48.97721" lon="1.01331">
        <ele>95.800003051758</ele>
        <time>2014-11-23T10:21:13.000Z</time>
      </trkpt>
      <trkpt lat="48.9772" lon="1.01324">
        <ele>94.800003051758</ele>
        <time>2014-11-23T10:21:14.000Z</time>
      </trkpt>
      <trkpt lat="48.97718" lon="1.01318">
        <ele>93.800003051758</ele>
        <time>2014-11-23T10:21:15.000Z</time>
      </trkpt>
      <trkpt lat="48.97716" lon="1.01311">
        <ele>92.800003051758</ele>
        <time>2014-11-23T10:21:16.000Z</time>
      </trkpt>
      <trkpt lat="48.97714" lon="1.01305">
        <ele>92</ele>
        <time>2014-11-23T10:21:17.000Z</time>
      </trkpt>
      <trkpt lat="48.97691" lon="1.01229">
        <ele>87.199996948242</ele>
        <time>2014-11-23T10:21:31.000Z</time>
      </trkpt>
      <trkpt lat="48.97689" lon="1.01223">
        <ele>87</ele>
        <time>2014-11-23T10:21:32.000Z</time>
      </trkpt>
      <trkpt lat="48.97665" lon="1.01139">
        <ele>86.599998474121</ele>
        <time>2014-11-23T10:21:47.000Z</time>
      </trkpt>
      <trkpt lat="48.97644" lon="1.01067">
        <ele>85.599998474121</ele>
        <time>2014-11-23T10:22:04.000Z</time>
      </trkpt>
      <trkpt lat="48.97641" lon="1.0106">
        <ele>85.400001525879</ele>
        <time>2014-11-23T10:22:13.000Z</time>
      </trkpt>
      <trkpt lat="48.9764" lon="1.01056">
        <ele>85.400001525879</ele>
        <time>2014-11-23T10:22:26.000Z</time>
      </trkpt>
      <trkpt lat="48.97641" lon="1.01056">
        <ele>85.400001525879</ele>
        <time>2014-11-23T10:22:43.000Z</time>
      </trkpt>
      <trkpt lat="48.9764" lon="1.01057">
        <ele>85.400001525879</ele>
        <time>2014-11-23T10:23:06.000Z</time>
      </trkpt>
      <trkpt lat="48.9764" lon="1.01052">
        <ele>85.599998474121</ele>
        <time>2014-11-23T10:23:28.000Z</time>
      </trkpt>
      <trkpt lat="48.97637" lon="1.01025">
        <ele>86.199996948242</ele>
        <time>2014-11-23T10:23:37.000Z</time>
      </trkpt>
      <trkpt lat="48.97629" lon="1.00959">
        <ele>87.599998474121</ele>
        <time>2014-11-23T10:23:51.000Z</time>
      </trkpt>
      <trkpt lat="48.97624" lon="1.00884">
        <ele>90.800003051758</ele>
        <time>2014-11-23T10:24:07.000Z</time>
      </trkpt>
      <trkpt lat="48.97613" lon="1.00839">
        <ele>96.400001525879</ele>
        <time>2014-11-23T10:24:22.000Z</time>
      </trkpt>
      <trkpt lat="48.97609" lon="1.00821">
        <ele>98.599998474121</ele>
        <time>2014-11-23T10:24:33.000Z</time>
      </trkpt>
      <trkpt lat="48.97607" lon="1.00809">
        <ele>100</ele>
        <time>2014-11-23T10:24:45.000Z</time>
      </trkpt>
      <trkpt lat="48.97608" lon="1.00811">
        <ele>99.599998474121</ele>
        <time>2014-11-23T10:25:06.000Z</time>
      </trkpt>
      <trkpt lat="48.97603" lon="1.00808">
        <ele>100.59999847412</ele>
        <time>2014-11-23T10:25:27.000Z</time>
      </trkpt>
      <trkpt lat="48.97606" lon="1.00807">
        <ele>100.40000152588</ele>
        <time>2014-11-23T10:25:49.000Z</time>
      </trkpt>
      <trkpt lat="48.97608" lon="1.00805">
        <ele>100.40000152588</ele>
        <time>2014-11-23T10:26:13.000Z</time>
      </trkpt>
      <trkpt lat="48.97608" lon="1.00806">
        <ele>100.40000152588</ele>
        <time>2014-11-23T10:26:50.000Z</time>
      </trkpt>
      <trkpt lat="48.97604" lon="1.008">
        <ele>101.40000152588</ele>
        <time>2014-11-23T10:27:29.000Z</time>
      </trkpt>
      <trkpt lat="48.97608" lon="1.00806">
        <ele>100.40000152588</ele>
        <time>2014-11-23T10:27:58.000Z</time>
      </trkpt>
      <trkpt lat="48.97608" lon="1.00806">
        <ele>100.40000152588</ele>
        <time>2014-11-23T10:28:26.000Z</time>
      </trkpt>
      <trkpt lat="48.97607" lon="1.00805">
        <ele>100.59999847412</ele>
        <time>2014-11-23T10:29:05.000Z</time>
      </trkpt>
      <trkpt lat="48.97605" lon="1.00806">
        <ele>100.59999847412</ele>
        <time>2014-11-23T10:29:45.000Z</time>
      </trkpt>
      <trkpt lat="48.97602" lon="1.00807">
        <ele>100.80000305176</ele>
        <time>2014-11-23T10:30:26.000Z</time>
      </trkpt>
      <trkpt lat="48.97604" lon="1.00803">
        <ele>101</ele>
        <time>2014-11-23T10:31:09.000Z</time>
      </trkpt>
      <trkpt lat="48.97608" lon="1.0081">
        <ele>99.800003051758</ele>
        <time>2014-11-23T10:31:38.000Z</time>
      </trkpt>
      <trkpt lat="48.97605" lon="1.00806">
        <ele>100.59999847412</ele>
        <time>2014-11-23T10:32:09.000Z</time>
      </trkpt>
      <trkpt lat="48.97607" lon="1.00803">
        <ele>100.80000305176</ele>
        <time>2014-11-23T10:32:43.000Z</time>
      </trkpt>
      <trkpt lat="48.97609" lon="1.00806">
        <ele>100.19999694824</ele>
        <time>2014-11-23T10:33:14.000Z</time>
      </trkpt>
      <trkpt lat="48.97611" lon="1.00807">
        <ele>100</ele>
        <time>2014-11-23T10:33:37.000Z</time>
      </trkpt>
      <trkpt lat="48.97609" lon="1.00805">
        <ele>100.19999694824</ele>
        <time>2014-11-23T10:34:00.000Z</time>
      </trkpt>
      <trkpt lat="48.97605" lon="1.00801">
        <ele>101.19999694824</ele>
        <time>2014-11-23T10:34:24.000Z</time>
      </trkpt>
      <trkpt lat="48.97607" lon="1.00802">
        <ele>101</ele>
        <time>2014-11-23T10:34:46.000Z</time>
      </trkpt>
      <trkpt lat="48.97611" lon="1.00806">
        <ele>100</ele>
        <time>2014-11-23T10:35:23.000Z</time>
      </trkpt>
      <trkpt lat="48.97608" lon="1.00808">
        <ele>100</ele>
        <time>2014-11-23T10:35:50.000Z</time>
      </trkpt>
      <trkpt lat="48.97609" lon="1.00808">
        <ele>100</ele>
        <time>2014-11-23T10:36:09.000Z</time>
      </trkpt>
      <trkpt lat="48.97605" lon="1.0081">
        <ele>100.19999694824</ele>
        <time>2014-11-23T10:36:34.000Z</time>
      </trkpt>
      <trkpt lat="48.97604" lon="1.00806">
        <ele>100.80000305176</ele>
        <time>2014-11-23T10:37:02.000Z</time>
      </trkpt>
      <trkpt lat="48.97603" lon="1.00809">
        <ele>100.40000152588</ele>
        <time>2014-11-23T10:37:38.000Z</time>
      </trkpt>
      <trkpt lat="48.97603" lon="1.0081">
        <ele>100.40000152588</ele>
        <time>2014-11-23T10:38:08.000Z</time>
      </trkpt>
      <trkpt lat="48.97604" lon="1.00809">
        <ele>100.40000152588</ele>
        <time>2014-11-23T10:38:38.000Z</time>
      </trkpt>
      <trkpt lat="48.97606" lon="1.00806">
        <ele>100.59999847412</ele>
        <time>2014-11-23T10:39:05.000Z</time>
      </trkpt>
      <trkpt lat="48.97604" lon="1.00807">
        <ele>100.59999847412</ele>
        <time>2014-11-23T10:39:35.000Z</time>
      </trkpt>
      <trkpt lat="48.97605" lon="1.00807">
        <ele>100.40000152588</ele>
        <time>2014-11-23T10:39:54.000Z</time>
      </trkpt>
      <trkpt lat="48.97608" lon="1.00805">
        <ele>100.40000152588</ele>
        <time>2014-11-23T10:40:11.000Z</time>
      </trkpt>
      <trkpt lat="48.97613" lon="1.00781">
        <ele>102.59999847412</ele>
        <time>2014-11-23T10:40:23.000Z</time>
      </trkpt>
      <trkpt lat="48.9762" lon="1.00743">
        <ele>106.40000152588</ele>
        <time>2014-11-23T10:40:35.000Z</time>
      </trkpt>
      <trkpt lat="48.97627" lon="1.00696">
        <ele>108.19999694824</ele>
        <time>2014-11-23T10:40:47.000Z</time>
      </trkpt>
      <trkpt lat="48.97641" lon="1.00645">
        <ele>108.19999694824</ele>
        <time>2014-11-23T10:40:58.000Z</time>
      </trkpt>
      <trkpt lat="48.97654" lon="1.00594">
        <ele>109.80000305176</ele>
        <time>2014-11-23T10:41:10.000Z</time>
      </trkpt>
      <trkpt lat="48.97667" lon="1.00538">
        <ele>111</ele>
        <time>2014-11-23T10:41:24.000Z</time>
      </trkpt>
      <trkpt lat="48.97667" lon="1.00535">
        <ele>111.19999694824</ele>
        <time>2014-11-23T10:41:25.000Z</time>
      </trkpt>
      <trkpt lat="48.97672" lon="1.00485">
        <ele>115.19999694824</ele>
        <time>2014-11-23T10:41:39.000Z</time>
      </trkpt>
      <trkpt lat="48.97684" lon="1.0043">
        <ele>114</ele>
        <time>2014-11-23T10:41:52.000Z</time>
      </trkpt>
      <trkpt lat="48.97685" lon="1.00382">
        <ele>113.80000305176</ele>
        <time>2014-11-23T10:42:05.000Z</time>
      </trkpt>
      <trkpt lat="48.97685" lon="1.00321">
        <ele>112.40000152588</ele>
        <time>2014-11-23T10:42:18.000Z</time>
      </trkpt>
      <trkpt lat="48.97685" lon="1.00302">
        <ele>111.40000152588</ele>
        <time>2014-11-23T10:42:21.000Z</time>
      </trkpt>
      <trkpt lat="48.97685" lon="1.00295">
        <ele>110.80000305176</ele>
        <time>2014-11-23T10:42:22.000Z</time>
      </trkpt>
      <trkpt lat="48.97694" lon="1.00239">
        <ele>103.80000305176</ele>
        <time>2014-11-23T10:42:34.000Z</time>
      </trkpt>
      <trkpt lat="48.97695" lon="1.00236">
        <ele>103.19999694824</ele>
        <time>2014-11-23T10:42:46.000Z</time>
      </trkpt>
      <trkpt lat="48.97696" lon="1.00237">
        <ele>103</ele>
        <time>2014-11-23T10:42:54.000Z</time>
      </trkpt>
      <trkpt lat="48.97698" lon="1.00237">
        <ele>102.80000305176</ele>
        <time>2014-11-23T10:42:55.000Z</time>
      </trkpt>
      <trkpt lat="48.97699" lon="1.00239">
        <ele>102.80000305176</ele>
        <time>2014-11-23T10:42:56.000Z</time>
      </trkpt>
      <trkpt lat="48.97702" lon="1.00242">
        <ele>102.59999847412</ele>
        <time>2014-11-23T10:42:57.000Z</time>
      </trkpt>
      <trkpt lat="48.97703" lon="1.00246">
        <ele>102.59999847412</ele>
        <time>2014-11-23T10:42:58.000Z</time>
      </trkpt>
      <trkpt lat="48.97706" lon="1.00251">
        <ele>102.59999847412</ele>
        <time>2014-11-23T10:42:59.000Z</time>
      </trkpt>
      <trkpt lat="48.97708" lon="1.00256">
        <ele>102.59999847412</ele>
        <time>2014-11-23T10:43:00.000Z</time>
      </trkpt>
      <trkpt lat="48.97728" lon="1.00298">
        <ele>102.59999847412</ele>
        <time>2014-11-23T10:43:06.000Z</time>
      </trkpt>
      <trkpt lat="48.97733" lon="1.00306">
        <ele>102.19999694824</ele>
        <time>2014-11-23T10:43:07.000Z</time>
      </trkpt>
      <trkpt lat="48.97753" lon="1.00331">
        <ele>98.199996948242</ele>
        <time>2014-11-23T10:43:11.000Z</time>
      </trkpt>
      <trkpt lat="48.97759" lon="1.00336">
        <ele>96.800003051758</ele>
        <time>2014-11-23T10:43:12.000Z</time>
      </trkpt>
      <trkpt lat="48.97824" lon="1.00377">
        <ele>93.199996948242</ele>
        <time>2014-11-23T10:43:22.000Z</time>
      </trkpt>
      <trkpt lat="48.9783" lon="1.00383">
        <ele>93.199996948242</ele>
        <time>2014-11-23T10:43:23.000Z</time>
      </trkpt>
      <trkpt lat="48.97852" lon="1.00412">
        <ele>93</ele>
        <time>2014-11-23T10:43:28.000Z</time>
      </trkpt>
      <trkpt lat="48.97857" lon="1.00413">
        <ele>93</ele>
        <time>2014-11-23T10:43:29.000Z</time>
      </trkpt>
      <trkpt lat="48.97864" lon="1.00408">
        <ele>93.599998474121</ele>
        <time>2014-11-23T10:43:31.000Z</time>
      </trkpt>
      <trkpt lat="48.97866" lon="1.00402">
        <ele>93.800003051758</ele>
        <time>2014-11-23T10:43:32.000Z</time>
      </trkpt>
      <trkpt lat="48.97866" lon="1.00396">
        <ele>94</ele>
        <time>2014-11-23T10:43:33.000Z</time>
      </trkpt>
      <trkpt lat="48.97865" lon="1.00389">
        <ele>94</ele>
        <time>2014-11-23T10:43:34.000Z</time>
      </trkpt>
      <trkpt lat="48.97865" lon="1.00381">
        <ele>94</ele>
        <time>2014-11-23T10:43:35.000Z</time>
      </trkpt>
      <trkpt lat="48.97865" lon="1.00373">
        <ele>94</ele>
        <time>2014-11-23T10:43:36.000Z</time>
      </trkpt>
      <trkpt lat="48.97866" lon="1.00365">
        <ele>94</ele>
        <time>2014-11-23T10:43:37.000Z</time>
      </trkpt>
      <trkpt lat="48.97867" lon="1.00356">
        <ele>94.199996948242</ele>
        <time>2014-11-23T10:43:38.000Z</time>
      </trkpt>
      <trkpt lat="48.97886" lon="1.00231">
        <ele>98.199996948242</ele>
        <time>2014-11-23T10:43:53.000Z</time>
      </trkpt>
      <trkpt lat="48.97907" lon="1.00118">
        <ele>100.59999847412</ele>
        <time>2014-11-23T10:44:09.000Z</time>
      </trkpt>
      <trkpt lat="48.97929" lon="0.99999">
        <ele>98.199996948242</ele>
        <time>2014-11-23T10:44:26.000Z</time>
      </trkpt>
      <trkpt lat="48.9795" lon="0.99866">
        <ele>98</ele>
        <time>2014-11-23T10:44:45.000Z</time>
      </trkpt>
      <trkpt lat="48.97959" lon="0.99756">
        <ele>99.800003051758</ele>
        <time>2014-11-23T10:45:00.000Z</time>
      </trkpt>
      <trkpt lat="48.97958" lon="0.99748">
        <ele>99.599998474121</ele>
        <time>2014-11-23T10:45:01.000Z</time>
      </trkpt>
      <trkpt lat="48.97935" lon="0.99675">
        <ele>96.400001525879</ele>
        <time>2014-11-23T10:45:14.000Z</time>
      </trkpt>
      <trkpt lat="48.97933" lon="0.99669">
        <ele>96.400001525879</ele>
        <time>2014-11-23T10:45:15.000Z</time>
      </trkpt>
      <trkpt lat="48.9793" lon="0.99663">
        <ele>96.400001525879</ele>
        <time>2014-11-23T10:45:16.000Z</time>
      </trkpt>
      <trkpt lat="48.97928" lon="0.99657">
        <ele>96.599998474121</ele>
        <time>2014-11-23T10:45:17.000Z</time>
      </trkpt>
      <trkpt lat="48.97926" lon="0.9965">
        <ele>96.599998474121</ele>
        <time>2014-11-23T10:45:18.000Z</time>
      </trkpt>
      <trkpt lat="48.97904" lon="0.99551">
        <ele>95.800003051758</ele>
        <time>2014-11-23T10:45:34.000Z</time>
      </trkpt>
      <trkpt lat="48.97898" lon="0.99522">
        <ele>95.400001525879</ele>
        <time>2014-11-23T10:45:39.000Z</time>
      </trkpt>
      <trkpt lat="48.97897" lon="0.99516">
        <ele>95.199996948242</ele>
        <time>2014-11-23T10:45:40.000Z</time>
      </trkpt>
      <trkpt lat="48.97896" lon="0.9951">
        <ele>95.199996948242</ele>
        <time>2014-11-23T10:45:41.000Z</time>
      </trkpt>
      <trkpt lat="48.97895" lon="0.99503">
        <ele>95.199996948242</ele>
        <time>2014-11-23T10:45:42.000Z</time>
      </trkpt>
      <trkpt lat="48.97893" lon="0.99497">
        <ele>95.199996948242</ele>
        <time>2014-11-23T10:45:43.000Z</time>
      </trkpt>
      <trkpt lat="48.97892" lon="0.9949">
        <ele>95</ele>
        <time>2014-11-23T10:45:44.000Z</time>
      </trkpt>
      <trkpt lat="48.9789" lon="0.99479">
        <ele>95</ele>
        <time>2014-11-23T10:45:46.000Z</time>
      </trkpt>
      <trkpt lat="48.97883" lon="0.99462">
        <ele>94.400001525879</ele>
        <time>2014-11-23T10:45:49.000Z</time>
      </trkpt>
      <trkpt lat="48.97877" lon="0.99452">
        <ele>93.800003051758</ele>
        <time>2014-11-23T10:45:51.000Z</time>
      </trkpt>
      <trkpt lat="48.97873" lon="0.99448">
        <ele>93.400001525879</ele>
        <time>2014-11-23T10:45:52.000Z</time>
      </trkpt>
      <trkpt lat="48.97869" lon="0.99445">
        <ele>93</ele>
        <time>2014-11-23T10:45:53.000Z</time>
      </trkpt>
      <trkpt lat="48.97861" lon="0.9944">
        <ele>92.400001525879</ele>
        <time>2014-11-23T10:45:55.000Z</time>
      </trkpt>
      <trkpt lat="48.97857" lon="0.99438">
        <ele>92</ele>
        <time>2014-11-23T10:45:56.000Z</time>
      </trkpt>
      <trkpt lat="48.97853" lon="0.99434">
        <ele>92</ele>
        <time>2014-11-23T10:45:57.000Z</time>
      </trkpt>
      <trkpt lat="48.9785" lon="0.9943">
        <ele>92</ele>
        <time>2014-11-23T10:45:58.000Z</time>
      </trkpt>
      <trkpt lat="48.97847" lon="0.99425">
        <ele>92</ele>
        <time>2014-11-23T10:45:59.000Z</time>
      </trkpt>
      <trkpt lat="48.97844" lon="0.9942">
        <ele>92</ele>
        <time>2014-11-23T10:46:00.000Z</time>
      </trkpt>
      <trkpt lat="48.97843" lon="0.99414">
        <ele>92</ele>
        <time>2014-11-23T10:46:01.000Z</time>
      </trkpt>
      <trkpt lat="48.97841" lon="0.99407">
        <ele>92</ele>
        <time>2014-11-23T10:46:02.000Z</time>
      </trkpt>
      <trkpt lat="48.9784" lon="0.994">
        <ele>92</ele>
        <time>2014-11-23T10:46:03.000Z</time>
      </trkpt>
      <trkpt lat="48.97839" lon="0.99393">
        <ele>92</ele>
        <time>2014-11-23T10:46:04.000Z</time>
      </trkpt>
      <trkpt lat="48.97832" lon="0.99344">
        <ele>92.400001525879</ele>
        <time>2014-11-23T10:46:11.000Z</time>
      </trkpt>
      <trkpt lat="48.97832" lon="0.99338">
        <ele>92.599998474121</ele>
        <time>2014-11-23T10:46:12.000Z</time>
      </trkpt>
      <trkpt lat="48.97831" lon="0.99332">
        <ele>92.800003051758</ele>
        <time>2014-11-23T10:46:13.000Z</time>
      </trkpt>
      <trkpt lat="48.97828" lon="0.9932">
        <ele>93.199996948242</ele>
        <time>2014-11-23T10:46:15.000Z</time>
      </trkpt>
      <trkpt lat="48.97827" lon="0.99314">
        <ele>93.400001525879</ele>
        <time>2014-11-23T10:46:16.000Z</time>
      </trkpt>
      <trkpt lat="48.97826" lon="0.99308">
        <ele>93.400001525879</ele>
        <time>2014-11-23T10:46:17.000Z</time>
      </trkpt>
      <trkpt lat="48.97826" lon="0.99301">
        <ele>93.400001525879</ele>
        <time>2014-11-23T10:46:18.000Z</time>
      </trkpt>
      <trkpt lat="48.97826" lon="0.99295">
        <ele>93.400001525879</ele>
        <time>2014-11-23T10:46:19.000Z</time>
      </trkpt>
      <trkpt lat="48.97827" lon="0.99262">
        <ele>93.800003051758</ele>
        <time>2014-11-23T10:46:24.000Z</time>
      </trkpt>
      <trkpt lat="48.97828" lon="0.99255">
        <ele>94.199996948242</ele>
        <time>2014-11-23T10:46:25.000Z</time>
      </trkpt>
      <trkpt lat="48.97831" lon="0.99223">
        <ele>95</ele>
        <time>2014-11-23T10:46:30.000Z</time>
      </trkpt>
      <trkpt lat="48.97832" lon="0.99217">
        <ele>95.199996948242</ele>
        <time>2014-11-23T10:46:31.000Z</time>
      </trkpt>
      <trkpt lat="48.97837" lon="0.9914">
        <ele>97.199996948242</ele>
        <time>2014-11-23T10:46:44.000Z</time>
      </trkpt>
      <trkpt lat="48.97837" lon="0.99129">
        <ele>97.199996948242</ele>
        <time>2014-11-23T10:46:48.000Z</time>
      </trkpt>
      <trkpt lat="48.97837" lon="0.99126">
        <ele>97.199996948242</ele>
        <time>2014-11-23T10:46:50.000Z</time>
      </trkpt>
      <trkpt lat="48.97837" lon="0.99124">
        <ele>97.199996948242</ele>
        <time>2014-11-23T10:46:51.000Z</time>
      </trkpt>
      <trkpt lat="48.97838" lon="0.99122">
        <ele>97.199996948242</ele>
        <time>2014-11-23T10:46:52.000Z</time>
      </trkpt>
      <trkpt lat="48.9784" lon="0.99087">
        <ele>98.800003051758</ele>
        <time>2014-11-23T10:47:07.000Z</time>
      </trkpt>
      <trkpt lat="48.97841" lon="0.99074">
        <ele>99.400001525879</ele>
        <time>2014-11-23T10:47:13.000Z</time>
      </trkpt>
      <trkpt lat="48.97842" lon="0.99072">
        <ele>99.599998474121</ele>
        <time>2014-11-23T10:47:14.000Z</time>
      </trkpt>
      <trkpt lat="48.97842" lon="0.9907">
        <ele>99.599998474121</ele>
        <time>2014-11-23T10:47:15.000Z</time>
      </trkpt>
      <trkpt lat="48.97842" lon="0.99068">
        <ele>99.599998474121</ele>
        <time>2014-11-23T10:47:16.000Z</time>
      </trkpt>
      <trkpt lat="48.97842" lon="0.99065">
        <ele>99.800003051758</ele>
        <time>2014-11-23T10:47:17.000Z</time>
      </trkpt>
      <trkpt lat="48.97842" lon="0.99063">
        <ele>99.800003051758</ele>
        <time>2014-11-23T10:47:18.000Z</time>
      </trkpt>
      <trkpt lat="48.97842" lon="0.99062">
        <ele>100</ele>
        <time>2014-11-23T10:47:19.000Z</time>
      </trkpt>
      <trkpt lat="48.97843" lon="0.9906">
        <ele>100.19999694824</ele>
        <time>2014-11-23T10:47:20.000Z</time>
      </trkpt>
      <trkpt lat="48.97843" lon="0.99058">
        <ele>100.19999694824</ele>
        <time>2014-11-23T10:47:21.000Z</time>
      </trkpt>
      <trkpt lat="48.97843" lon="0.99056">
        <ele>100.19999694824</ele>
        <time>2014-11-23T10:47:22.000Z</time>
      </trkpt>
      <trkpt lat="48.97843" lon="0.99054">
        <ele>100.19999694824</ele>
        <time>2014-11-23T10:47:23.000Z</time>
      </trkpt>
      <trkpt lat="48.97842" lon="0.99034">
        <ele>100.40000152588</ele>
        <time>2014-11-23T10:47:35.000Z</time>
      </trkpt>
      <trkpt lat="48.97843" lon="0.99021">
        <ele>101.40000152588</ele>
        <time>2014-11-23T10:47:50.000Z</time>
      </trkpt>
      <trkpt lat="48.97843" lon="0.99013">
        <ele>101.80000305176</ele>
        <time>2014-11-23T10:48:02.000Z</time>
      </trkpt>
      <trkpt lat="48.97844" lon="0.99012">
        <ele>102</ele>
        <time>2014-11-23T10:48:03.000Z</time>
      </trkpt>
      <trkpt lat="48.97844" lon="0.9901">
        <ele>102.19999694824</ele>
        <time>2014-11-23T10:48:04.000Z</time>
      </trkpt>
      <trkpt lat="48.97844" lon="0.99008">
        <ele>102.40000152588</ele>
        <time>2014-11-23T10:48:05.000Z</time>
      </trkpt>
      <trkpt lat="48.97844" lon="0.99006">
        <ele>102.40000152588</ele>
        <time>2014-11-23T10:48:06.000Z</time>
      </trkpt>
      <trkpt lat="48.97845" lon="0.98981">
        <ele>104.19999694824</ele>
        <time>2014-11-23T10:48:18.000Z</time>
      </trkpt>
      <trkpt lat="48.97847" lon="0.98952">
        <ele>105.19999694824</ele>
        <time>2014-11-23T10:48:31.000Z</time>
      </trkpt>
      <trkpt lat="48.97846" lon="0.98936">
        <ele>105.40000152588</ele>
        <time>2014-11-23T10:48:38.000Z</time>
      </trkpt>
      <trkpt lat="48.97846" lon="0.98933">
        <ele>105.40000152588</ele>
        <time>2014-11-23T10:48:39.000Z</time>
      </trkpt>
      <trkpt lat="48.97847" lon="0.98931">
        <ele>105.40000152588</ele>
        <time>2014-11-23T10:48:40.000Z</time>
      </trkpt>
      <trkpt lat="48.97847" lon="0.98929">
        <ele>105.59999847412</ele>
        <time>2014-11-23T10:48:41.000Z</time>
      </trkpt>
      <trkpt lat="48.97847" lon="0.98927">
        <ele>105.59999847412</ele>
        <time>2014-11-23T10:48:42.000Z</time>
      </trkpt>
      <trkpt lat="48.9785" lon="0.98896">
        <ele>106.40000152588</ele>
        <time>2014-11-23T10:48:57.000Z</time>
      </trkpt>
      <trkpt lat="48.9785" lon="0.98865">
        <ele>107.19999694824</ele>
        <time>2014-11-23T10:49:10.000Z</time>
      </trkpt>
      <trkpt lat="48.97853" lon="0.98828">
        <ele>108.59999847412</ele>
        <time>2014-11-23T10:49:24.000Z</time>
      </trkpt>
      <trkpt lat="48.97859" lon="0.98795">
        <ele>110.19999694824</ele>
        <time>2014-11-23T10:49:39.000Z</time>
      </trkpt>
      <trkpt lat="48.97859" lon="0.98793">
        <ele>110.40000152588</ele>
        <time>2014-11-23T10:49:40.000Z</time>
      </trkpt>
      <trkpt lat="48.97863" lon="0.98777">
        <ele>111.59999847412</ele>
        <time>2014-11-23T10:49:49.000Z</time>
      </trkpt>
      <trkpt lat="48.97863" lon="0.98774">
        <ele>111.59999847412</ele>
        <time>2014-11-23T10:49:51.000Z</time>
      </trkpt>
      <trkpt lat="48.97864" lon="0.98772">
        <ele>111.59999847412</ele>
        <time>2014-11-23T10:49:52.000Z</time>
      </trkpt>
      <trkpt lat="48.97866" lon="0.98764">
        <ele>112.40000152588</ele>
        <time>2014-11-23T10:49:56.000Z</time>
      </trkpt>
      <trkpt lat="48.97867" lon="0.98762">
        <ele>112.59999847412</ele>
        <time>2014-11-23T10:49:57.000Z</time>
      </trkpt>
      <trkpt lat="48.97867" lon="0.98761">
        <ele>112.80000305176</ele>
        <time>2014-11-23T10:49:58.000Z</time>
      </trkpt>
      <trkpt lat="48.97868" lon="0.98759">
        <ele>113</ele>
        <time>2014-11-23T10:49:59.000Z</time>
      </trkpt>
      <trkpt lat="48.97869" lon="0.98757">
        <ele>113.40000152588</ele>
        <time>2014-11-23T10:50:00.000Z</time>
      </trkpt>
      <trkpt lat="48.97877" lon="0.98744">
        <ele>115.80000305176</ele>
        <time>2014-11-23T10:50:09.000Z</time>
      </trkpt>
      <trkpt lat="48.97884" lon="0.98728">
        <ele>116.80000305176</ele>
        <time>2014-11-23T10:50:20.000Z</time>
      </trkpt>
      <trkpt lat="48.97885" lon="0.98725">
        <ele>116.80000305176</ele>
        <time>2014-11-23T10:50:34.000Z</time>
      </trkpt>
      <trkpt lat="48.97886" lon="0.98718">
        <ele>117.19999694824</ele>
        <time>2014-11-23T10:50:49.000Z</time>
      </trkpt>
      <trkpt lat="48.97888" lon="0.98713">
        <ele>117.80000305176</ele>
        <time>2014-11-23T10:51:04.000Z</time>
      </trkpt>
      <trkpt lat="48.97891" lon="0.98707">
        <ele>118.59999847412</ele>
        <time>2014-11-23T10:51:18.000Z</time>
      </trkpt>
      <trkpt lat="48.97889" lon="0.98705">
        <ele>118.40000152588</ele>
        <time>2014-11-23T10:51:29.000Z</time>
      </trkpt>
      <trkpt lat="48.97889" lon="0.98703">
        <ele>118.40000152588</ele>
        <time>2014-11-23T10:51:30.000Z</time>
      </trkpt>
      <trkpt lat="48.97889" lon="0.98701">
        <ele>118.40000152588</ele>
        <time>2014-11-23T10:51:31.000Z</time>
      </trkpt>
      <trkpt lat="48.97887" lon="0.98675">
        <ele>118.40000152588</ele>
        <time>2014-11-23T10:51:44.000Z</time>
      </trkpt>
      <trkpt lat="48.9788" lon="0.98646">
        <ele>116</ele>
        <time>2014-11-23T10:51:59.000Z</time>
      </trkpt>
      <trkpt lat="48.97875" lon="0.98608">
        <ele>117</ele>
        <time>2014-11-23T10:52:13.000Z</time>
      </trkpt>
      <trkpt lat="48.97885" lon="0.98554">
        <ele>120.59999847412</ele>
        <time>2014-11-23T10:52:32.000Z</time>
      </trkpt>
      <trkpt lat="48.97893" lon="0.98496">
        <ele>125</ele>
        <time>2014-11-23T10:52:52.000Z</time>
      </trkpt>
      <trkpt lat="48.97897" lon="0.98436">
        <ele>130</ele>
        <time>2014-11-23T10:53:13.000Z</time>
      </trkpt>
      <trkpt lat="48.979" lon="0.98384">
        <ele>132.39999389648</ele>
        <time>2014-11-23T10:53:32.000Z</time>
      </trkpt>
      <trkpt lat="48.97899" lon="0.98348">
        <ele>134.60000610352</ele>
        <time>2014-11-23T10:53:46.000Z</time>
      </trkpt>
      <trkpt lat="48.97901" lon="0.98299">
        <ele>136.19999694824</ele>
        <time>2014-11-23T10:54:02.000Z</time>
      </trkpt>
      <trkpt lat="48.97916" lon="0.98234">
        <ele>136.60000610352</ele>
        <time>2014-11-23T10:54:19.000Z</time>
      </trkpt>
      <trkpt lat="48.9795" lon="0.98163">
        <ele>136.39999389648</ele>
        <time>2014-11-23T10:54:35.000Z</time>
      </trkpt>
      <trkpt lat="48.97979" lon="0.98106">
        <ele>136</ele>
        <time>2014-11-23T10:54:47.000Z</time>
      </trkpt>
      <trkpt lat="48.98015" lon="0.98037">
        <ele>136.19999694824</ele>
        <time>2014-11-23T10:55:02.000Z</time>
      </trkpt>
      <trkpt lat="48.98039" lon="0.97975">
        <ele>136.19999694824</ele>
        <time>2014-11-23T10:55:16.000Z</time>
      </trkpt>
      <trkpt lat="48.98038" lon="0.97968">
        <ele>136</ele>
        <time>2014-11-23T10:55:18.000Z</time>
      </trkpt>
      <trkpt lat="48.98036" lon="0.97966">
        <ele>136</ele>
        <time>2014-11-23T10:55:19.000Z</time>
      </trkpt>
      <trkpt lat="48.98035" lon="0.97965">
        <ele>136</ele>
        <time>2014-11-23T10:55:20.000Z</time>
      </trkpt>
      <trkpt lat="48.97994" lon="0.97948">
        <ele>134.60000610352</ele>
        <time>2014-11-23T10:55:33.000Z</time>
      </trkpt>
      <trkpt lat="48.9792" lon="0.97918">
        <ele>131.19999694824</ele>
        <time>2014-11-23T10:55:48.000Z</time>
      </trkpt>
      <trkpt lat="48.97878" lon="0.979">
        <ele>129.80000305176</ele>
        <time>2014-11-23T10:55:56.000Z</time>
      </trkpt>
      <trkpt lat="48.97867" lon="0.97892">
        <ele>129.39999389648</ele>
        <time>2014-11-23T10:55:58.000Z</time>
      </trkpt>
      <trkpt lat="48.97862" lon="0.97889">
        <ele>129</ele>
        <time>2014-11-23T10:55:59.000Z</time>
      </trkpt>
      <trkpt lat="48.97856" lon="0.97885">
        <ele>128.80000305176</ele>
        <time>2014-11-23T10:56:00.000Z</time>
      </trkpt>
      <trkpt lat="48.9782" lon="0.97856">
        <ele>129</ele>
        <time>2014-11-23T10:56:07.000Z</time>
      </trkpt>
      <trkpt lat="48.97805" lon="0.97848">
        <ele>129</ele>
        <time>2014-11-23T10:56:10.000Z</time>
      </trkpt>
      <trkpt lat="48.97749" lon="0.97825">
        <ele>128.39999389648</ele>
        <time>2014-11-23T10:56:22.000Z</time>
      </trkpt>
      <trkpt lat="48.97745" lon="0.97825">
        <ele>128.19999694824</ele>
        <time>2014-11-23T10:56:23.000Z</time>
      </trkpt>
      <trkpt lat="48.97692" lon="0.97832">
        <ele>126</ele>
        <time>2014-11-23T10:56:37.000Z</time>
      </trkpt>
      <trkpt lat="48.97657" lon="0.97849">
        <ele>126.59999847412</ele>
        <time>2014-11-23T10:56:46.000Z</time>
      </trkpt>
      <trkpt lat="48.97609" lon="0.9788">
        <ele>125.80000305176</ele>
        <time>2014-11-23T10:57:00.000Z</time>
      </trkpt>
      <trkpt lat="48.97564" lon="0.97926">
        <ele>117.59999847412</ele>
        <time>2014-11-23T10:57:12.000Z</time>
      </trkpt>
      <trkpt lat="48.97561" lon="0.97932">
        <ele>117</ele>
        <time>2014-11-23T10:57:13.000Z</time>
      </trkpt>
      <trkpt lat="48.97558" lon="0.97939">
        <ele>116.19999694824</ele>
        <time>2014-11-23T10:57:14.000Z</time>
      </trkpt>
      <trkpt lat="48.97554" lon="0.97946">
        <ele>115.40000152588</ele>
        <time>2014-11-23T10:57:15.000Z</time>
      </trkpt>
      <trkpt lat="48.97551" lon="0.97953">
        <ele>114.40000152588</ele>
        <time>2014-11-23T10:57:16.000Z</time>
      </trkpt>
      <trkpt lat="48.97548" lon="0.9796">
        <ele>113.59999847412</ele>
        <time>2014-11-23T10:57:17.000Z</time>
      </trkpt>
      <trkpt lat="48.97545" lon="0.97968">
        <ele>112.80000305176</ele>
        <time>2014-11-23T10:57:18.000Z</time>
      </trkpt>
      <trkpt lat="48.9754" lon="0.97981">
        <ele>111.40000152588</ele>
        <time>2014-11-23T10:57:20.000Z</time>
      </trkpt>
      <trkpt lat="48.97534" lon="0.97993">
        <ele>110</ele>
        <time>2014-11-23T10:57:22.000Z</time>
      </trkpt>
      <trkpt lat="48.9753" lon="0.97995">
        <ele>109.40000152588</ele>
        <time>2014-11-23T10:57:23.000Z</time>
      </trkpt>
      <trkpt lat="48.97523" lon="0.97989">
        <ele>108.80000305176</ele>
        <time>2014-11-23T10:57:25.000Z</time>
      </trkpt>
      <trkpt lat="48.97521" lon="0.97983">
        <ele>109</ele>
        <time>2014-11-23T10:57:26.000Z</time>
      </trkpt>
      <trkpt lat="48.9752" lon="0.97978">
        <ele>109.19999694824</ele>
        <time>2014-11-23T10:57:27.000Z</time>
      </trkpt>
      <trkpt lat="48.9752" lon="0.97972">
        <ele>109.40000152588</ele>
        <time>2014-11-23T10:57:28.000Z</time>
      </trkpt>
      <trkpt lat="48.97516" lon="0.97918">
        <ele>112.19999694824</ele>
        <time>2014-11-23T10:57:37.000Z</time>
      </trkpt>
      <trkpt lat="48.97514" lon="0.9791">
        <ele>112.40000152588</ele>
        <time>2014-11-23T10:57:38.000Z</time>
      </trkpt>
      <trkpt lat="48.97511" lon="0.97902">
        <ele>112.40000152588</ele>
        <time>2014-11-23T10:57:39.000Z</time>
      </trkpt>
      <trkpt lat="48.97508" lon="0.97895">
        <ele>112.40000152588</ele>
        <time>2014-11-23T10:57:40.000Z</time>
      </trkpt>
      <trkpt lat="48.97505" lon="0.97888">
        <ele>112.19999694824</ele>
        <time>2014-11-23T10:57:41.000Z</time>
      </trkpt>
      <trkpt lat="48.975" lon="0.97882">
        <ele>111.59999847412</ele>
        <time>2014-11-23T10:57:42.000Z</time>
      </trkpt>
      <trkpt lat="48.97495" lon="0.97877">
        <ele>111</ele>
        <time>2014-11-23T10:57:43.000Z</time>
      </trkpt>
      <trkpt lat="48.9749" lon="0.97872">
        <ele>110.19999694824</ele>
        <time>2014-11-23T10:57:44.000Z</time>
      </trkpt>
      <trkpt lat="48.97484" lon="0.97869">
        <ele>109.40000152588</ele>
        <time>2014-11-23T10:57:45.000Z</time>
      </trkpt>
      <trkpt lat="48.97478" lon="0.97866">
        <ele>108.59999847412</ele>
        <time>2014-11-23T10:57:46.000Z</time>
      </trkpt>
      <trkpt lat="48.97459" lon="0.97861">
        <ele>106</ele>
        <time>2014-11-23T10:57:49.000Z</time>
      </trkpt>
      <trkpt lat="48.97454" lon="0.97863">
        <ele>105.19999694824</ele>
        <time>2014-11-23T10:57:50.000Z</time>
      </trkpt>
      <trkpt lat="48.9745" lon="0.97869">
        <ele>104.40000152588</ele>
        <time>2014-11-23T10:57:51.000Z</time>
      </trkpt>
      <trkpt lat="48.97448" lon="0.97878">
        <ele>104.19999694824</ele>
        <time>2014-11-23T10:57:52.000Z</time>
      </trkpt>
      <trkpt lat="48.97448" lon="0.97888">
        <ele>104</ele>
        <time>2014-11-23T10:57:53.000Z</time>
      </trkpt>
      <trkpt lat="48.97448" lon="0.97899">
        <ele>103.40000152588</ele>
        <time>2014-11-23T10:57:54.000Z</time>
      </trkpt>
      <trkpt lat="48.97448" lon="0.97911">
        <ele>102.80000305176</ele>
        <time>2014-11-23T10:57:55.000Z</time>
      </trkpt>
      <trkpt lat="48.97449" lon="0.97934">
        <ele>101.40000152588</ele>
        <time>2014-11-23T10:57:57.000Z</time>
      </trkpt>
      <trkpt lat="48.97447" lon="0.97946">
        <ele>100.59999847412</ele>
        <time>2014-11-23T10:57:58.000Z</time>
      </trkpt>
      <trkpt lat="48.97443" lon="0.97956">
        <ele>99.400001525879</ele>
        <time>2014-11-23T10:57:59.000Z</time>
      </trkpt>
      <trkpt lat="48.97437" lon="0.97964">
        <ele>98.400001525879</ele>
        <time>2014-11-23T10:58:00.000Z</time>
      </trkpt>
      <trkpt lat="48.9743" lon="0.97969">
        <ele>98.199996948242</ele>
        <time>2014-11-23T10:58:01.000Z</time>
      </trkpt>
      <trkpt lat="48.97422" lon="0.9797">
        <ele>98.400001525879</ele>
        <time>2014-11-23T10:58:02.000Z</time>
      </trkpt>
      <trkpt lat="48.97413" lon="0.97971">
        <ele>98.599998474121</ele>
        <time>2014-11-23T10:58:03.000Z</time>
      </trkpt>
      <trkpt lat="48.97396" lon="0.97974">
        <ele>99</ele>
        <time>2014-11-23T10:58:05.000Z</time>
      </trkpt>
      <trkpt lat="48.97387" lon="0.97977">
        <ele>99.199996948242</ele>
        <time>2014-11-23T10:58:06.000Z</time>
      </trkpt>
      <trkpt lat="48.97374" lon="0.97983">
        <ele>99.400001525879</ele>
        <time>2014-11-23T10:58:08.000Z</time>
      </trkpt>
      <trkpt lat="48.97369" lon="0.9798">
        <ele>99.599998474121</ele>
        <time>2014-11-23T10:58:09.000Z</time>
      </trkpt>
      <trkpt lat="48.97366" lon="0.97973">
        <ele>99.800003051758</ele>
        <time>2014-11-23T10:58:10.000Z</time>
      </trkpt>
      <trkpt lat="48.97364" lon="0.97966">
        <ele>99.800003051758</ele>
        <time>2014-11-23T10:58:11.000Z</time>
      </trkpt>
      <trkpt lat="48.97363" lon="0.97957">
        <ele>99.800003051758</ele>
        <time>2014-11-23T10:58:12.000Z</time>
      </trkpt>
      <trkpt lat="48.97347" lon="0.97873">
        <ele>99</ele>
        <time>2014-11-23T10:58:22.000Z</time>
      </trkpt>
      <trkpt lat="48.97346" lon="0.97865">
        <ele>98.599998474121</ele>
        <time>2014-11-23T10:58:23.000Z</time>
      </trkpt>
      <trkpt lat="48.97346" lon="0.97856">
        <ele>98.199996948242</ele>
        <time>2014-11-23T10:58:24.000Z</time>
      </trkpt>
      <trkpt lat="48.97346" lon="0.97849">
        <ele>98</ele>
        <time>2014-11-23T10:58:25.000Z</time>
      </trkpt>
      <trkpt lat="48.97348" lon="0.97842">
        <ele>97.800003051758</ele>
        <time>2014-11-23T10:58:26.000Z</time>
      </trkpt>
      <trkpt lat="48.9735" lon="0.97835">
        <ele>97.599998474121</ele>
        <time>2014-11-23T10:58:27.000Z</time>
      </trkpt>
      <trkpt lat="48.97354" lon="0.97829">
        <ele>97.599998474121</ele>
        <time>2014-11-23T10:58:28.000Z</time>
      </trkpt>
      <trkpt lat="48.97357" lon="0.97824">
        <ele>97.599998474121</ele>
        <time>2014-11-23T10:58:29.000Z</time>
      </trkpt>
      <trkpt lat="48.97396" lon="0.97764">
        <ele>100.19999694824</ele>
        <time>2014-11-23T10:58:43.000Z</time>
      </trkpt>
      <trkpt lat="48.97418" lon="0.97695">
        <ele>101.19999694824</ele>
        <time>2014-11-23T10:58:58.000Z</time>
      </trkpt>
      <trkpt lat="48.97437" lon="0.97651">
        <ele>101.80000305176</ele>
        <time>2014-11-23T10:59:09.000Z</time>
      </trkpt>
      <trkpt lat="48.97467" lon="0.97608">
        <ele>104.80000305176</ele>
        <time>2014-11-23T10:59:21.000Z</time>
      </trkpt>
      <trkpt lat="48.97496" lon="0.97578">
        <ele>106</ele>
        <time>2014-11-23T10:59:32.000Z</time>
      </trkpt>
      <trkpt lat="48.97522" lon="0.97522">
        <ele>104.80000305176</ele>
        <time>2014-11-23T10:59:45.000Z</time>
      </trkpt>
      <trkpt lat="48.97524" lon="0.97517">
        <ele>104.59999847412</ele>
        <time>2014-11-23T10:59:46.000Z</time>
      </trkpt>
      <trkpt lat="48.97525" lon="0.97511">
        <ele>104.40000152588</ele>
        <time>2014-11-23T10:59:47.000Z</time>
      </trkpt>
      <trkpt lat="48.97527" lon="0.97506">
        <ele>104.59999847412</ele>
        <time>2014-11-23T10:59:48.000Z</time>
      </trkpt>
      <trkpt lat="48.97528" lon="0.975">
        <ele>104.59999847412</ele>
        <time>2014-11-23T10:59:49.000Z</time>
      </trkpt>
      <trkpt lat="48.9753" lon="0.97495">
        <ele>104.59999847412</ele>
        <time>2014-11-23T10:59:50.000Z</time>
      </trkpt>
      <trkpt lat="48.9754" lon="0.97471">
        <ele>104.19999694824</ele>
        <time>2014-11-23T10:59:56.000Z</time>
      </trkpt>
      <trkpt lat="48.97543" lon="0.97471">
        <ele>104.59999847412</ele>
        <time>2014-11-23T10:59:57.000Z</time>
      </trkpt>
      <trkpt lat="48.97546" lon="0.97472">
        <ele>104.59999847412</ele>
        <time>2014-11-23T10:59:58.000Z</time>
      </trkpt>
      <trkpt lat="48.97567" lon="0.97488">
        <ele>107.40000152588</ele>
        <time>2014-11-23T11:00:07.000Z</time>
      </trkpt>
      <trkpt lat="48.97586" lon="0.975">
        <ele>110.40000152588</ele>
        <time>2014-11-23T11:00:18.000Z</time>
      </trkpt>
      <trkpt lat="48.97605" lon="0.97494">
        <ele>110.59999847412</ele>
        <time>2014-11-23T11:00:27.000Z</time>
      </trkpt>
      <trkpt lat="48.97638" lon="0.97467">
        <ele>110.80000305176</ele>
        <time>2014-11-23T11:00:40.000Z</time>
      </trkpt>
      <trkpt lat="48.97649" lon="0.97459">
        <ele>111.59999847412</ele>
        <time>2014-11-23T11:00:43.000Z</time>
      </trkpt>
      <trkpt lat="48.97652" lon="0.97458">
        <ele>112</ele>
        <time>2014-11-23T11:00:44.000Z</time>
      </trkpt>
      <trkpt lat="48.97655" lon="0.97456">
        <ele>112.19999694824</ele>
        <time>2014-11-23T11:00:45.000Z</time>
      </trkpt>
      <trkpt lat="48.97658" lon="0.97454">
        <ele>112.40000152588</ele>
        <time>2014-11-23T11:00:46.000Z</time>
      </trkpt>
      <trkpt lat="48.97661" lon="0.97453">
        <ele>112.59999847412</ele>
        <time>2014-11-23T11:00:47.000Z</time>
      </trkpt>
      <trkpt lat="48.9768" lon="0.9744">
        <ele>110.80000305176</ele>
        <time>2014-11-23T11:00:55.000Z</time>
      </trkpt>
      <trkpt lat="48.97689" lon="0.97436">
        <ele>109.59999847412</ele>
        <time>2014-11-23T11:01:00.000Z</time>
      </trkpt>
      <trkpt lat="48.97691" lon="0.97434">
        <ele>109.19999694824</ele>
        <time>2014-11-23T11:01:01.000Z</time>
      </trkpt>
      <trkpt lat="48.97693" lon="0.97433">
        <ele>109.19999694824</ele>
        <time>2014-11-23T11:01:02.000Z</time>
      </trkpt>
      <trkpt lat="48.97695" lon="0.97431">
        <ele>109</ele>
        <time>2014-11-23T11:01:03.000Z</time>
      </trkpt>
      <trkpt lat="48.97698" lon="0.97429">
        <ele>109.19999694824</ele>
        <time>2014-11-23T11:01:04.000Z</time>
      </trkpt>
      <trkpt lat="48.97701" lon="0.97428">
        <ele>109.40000152588</ele>
        <time>2014-11-23T11:01:05.000Z</time>
      </trkpt>
      <trkpt lat="48.9773" lon="0.97418">
        <ele>110.40000152588</ele>
        <time>2014-11-23T11:01:15.000Z</time>
      </trkpt>
      <trkpt lat="48.97732" lon="0.97416">
        <ele>110</ele>
        <time>2014-11-23T11:01:16.000Z</time>
      </trkpt>
      <trkpt lat="48.97734" lon="0.97413">
        <ele>109.40000152588</ele>
        <time>2014-11-23T11:01:17.000Z</time>
      </trkpt>
      <trkpt lat="48.97739" lon="0.97388">
        <ele>105</ele>
        <time>2014-11-23T11:01:23.000Z</time>
      </trkpt>
      <trkpt lat="48.97742" lon="0.97385">
        <ele>105</ele>
        <time>2014-11-23T11:01:24.000Z</time>
      </trkpt>
      <trkpt lat="48.97745" lon="0.97381">
        <ele>105.19999694824</ele>
        <time>2014-11-23T11:01:25.000Z</time>
      </trkpt>
      <trkpt lat="48.97748" lon="0.97377">
        <ele>105.40000152588</ele>
        <time>2014-11-23T11:01:26.000Z</time>
      </trkpt>
      <trkpt lat="48.97751" lon="0.97373">
        <ele>105.59999847412</ele>
        <time>2014-11-23T11:01:27.000Z</time>
      </trkpt>
      <trkpt lat="48.97755" lon="0.97369">
        <ele>105.59999847412</ele>
        <time>2014-11-23T11:01:28.000Z</time>
      </trkpt>
      <trkpt lat="48.97762" lon="0.9736">
        <ele>104.59999847412</ele>
        <time>2014-11-23T11:01:30.000Z</time>
      </trkpt>
      <trkpt lat="48.97765" lon="0.97356">
        <ele>104.19999694824</ele>
        <time>2014-11-23T11:01:31.000Z</time>
      </trkpt>
      <trkpt lat="48.97774" lon="0.97341">
        <ele>102.59999847412</ele>
        <time>2014-11-23T11:01:34.000Z</time>
      </trkpt>
      <trkpt lat="48.97775" lon="0.97335">
        <ele>102</ele>
        <time>2014-11-23T11:01:35.000Z</time>
      </trkpt>
      <trkpt lat="48.97774" lon="0.97328">
        <ele>101.19999694824</ele>
        <time>2014-11-23T11:01:36.000Z</time>
      </trkpt>
      <trkpt lat="48.97772" lon="0.97322">
        <ele>100.59999847412</ele>
        <time>2014-11-23T11:01:37.000Z</time>
      </trkpt>
      <trkpt lat="48.9777" lon="0.97317">
        <ele>100</ele>
        <time>2014-11-23T11:01:38.000Z</time>
      </trkpt>
      <trkpt lat="48.97768" lon="0.97311">
        <ele>99.400001525879</ele>
        <time>2014-11-23T11:01:39.000Z</time>
      </trkpt>
      <trkpt lat="48.97761" lon="0.97296">
        <ele>99</ele>
        <time>2014-11-23T11:01:42.000Z</time>
      </trkpt>
      <trkpt lat="48.9776" lon="0.9729">
        <ele>99</ele>
        <time>2014-11-23T11:01:43.000Z</time>
      </trkpt>
      <trkpt lat="48.97758" lon="0.97284">
        <ele>98.800003051758</ele>
        <time>2014-11-23T11:01:44.000Z</time>
      </trkpt>
      <trkpt lat="48.97758" lon="0.97277">
        <ele>98.599998474121</ele>
        <time>2014-11-23T11:01:45.000Z</time>
      </trkpt>
      <trkpt lat="48.97757" lon="0.9727">
        <ele>98.599998474121</ele>
        <time>2014-11-23T11:01:46.000Z</time>
      </trkpt>
      <trkpt lat="48.97755" lon="0.97264">
        <ele>98.400001525879</ele>
        <time>2014-11-23T11:01:47.000Z</time>
      </trkpt>
      <trkpt lat="48.97753" lon="0.97258">
        <ele>98.400001525879</ele>
        <time>2014-11-23T11:01:48.000Z</time>
      </trkpt>
      <trkpt lat="48.97751" lon="0.97254">
        <ele>98.199996948242</ele>
        <time>2014-11-23T11:01:49.000Z</time>
      </trkpt>
      <trkpt lat="48.97749" lon="0.97249">
        <ele>98.199996948242</ele>
        <time>2014-11-23T11:01:50.000Z</time>
      </trkpt>
      <trkpt lat="48.9771" lon="0.9719">
        <ele>101</ele>
        <time>2014-11-23T11:02:07.000Z</time>
      </trkpt>
      <trkpt lat="48.97692" lon="0.97161">
        <ele>103.59999847412</ele>
        <time>2014-11-23T11:02:21.000Z</time>
      </trkpt>
      <trkpt lat="48.97687" lon="0.97153">
        <ele>104.59999847412</ele>
        <time>2014-11-23T11:02:27.000Z</time>
      </trkpt>
      <trkpt lat="48.97686" lon="0.97151">
        <ele>104.80000305176</ele>
        <time>2014-11-23T11:02:28.000Z</time>
      </trkpt>
      <trkpt lat="48.97685" lon="0.9715">
        <ele>105</ele>
        <time>2014-11-23T11:02:29.000Z</time>
      </trkpt>
      <trkpt lat="48.97684" lon="0.97148">
        <ele>105.19999694824</ele>
        <time>2014-11-23T11:02:30.000Z</time>
      </trkpt>
      <trkpt lat="48.97683" lon="0.97146">
        <ele>105.40000152588</ele>
        <time>2014-11-23T11:02:31.000Z</time>
      </trkpt>
      <trkpt lat="48.97675" lon="0.97115">
        <ele>108.40000152588</ele>
        <time>2014-11-23T11:02:47.000Z</time>
      </trkpt>
      <trkpt lat="48.97674" lon="0.97113">
        <ele>108.59999847412</ele>
        <time>2014-11-23T11:02:48.000Z</time>
      </trkpt>
      <trkpt lat="48.97675" lon="0.97111">
        <ele>108.59999847412</ele>
        <time>2014-11-23T11:02:49.000Z</time>
      </trkpt>
      <trkpt lat="48.97676" lon="0.97101">
        <ele>108.80000305176</ele>
        <time>2014-11-23T11:02:55.000Z</time>
      </trkpt>
      <trkpt lat="48.97678" lon="0.97098">
        <ele>109</ele>
        <time>2014-11-23T11:02:56.000Z</time>
      </trkpt>
      <trkpt lat="48.97679" lon="0.97094">
        <ele>108.80000305176</ele>
        <time>2014-11-23T11:02:57.000Z</time>
      </trkpt>
      <trkpt lat="48.9771" lon="0.97033">
        <ele>108.40000152588</ele>
        <time>2014-11-23T11:03:06.000Z</time>
      </trkpt>
      <trkpt lat="48.97737" lon="0.96976">
        <ele>107</ele>
        <time>2014-11-23T11:03:14.000Z</time>
      </trkpt>
      <trkpt lat="48.97738" lon="0.96968">
        <ele>106.59999847412</ele>
        <time>2014-11-23T11:03:15.000Z</time>
      </trkpt>
      <trkpt lat="48.97738" lon="0.96959">
        <ele>106.40000152588</ele>
        <time>2014-11-23T11:03:16.000Z</time>
      </trkpt>
      <trkpt lat="48.97737" lon="0.96951">
        <ele>106.19999694824</ele>
        <time>2014-11-23T11:03:17.000Z</time>
      </trkpt>
      <trkpt lat="48.97736" lon="0.96943">
        <ele>106.19999694824</ele>
        <time>2014-11-23T11:03:18.000Z</time>
      </trkpt>
      <trkpt lat="48.97734" lon="0.96935">
        <ele>106.40000152588</ele>
        <time>2014-11-23T11:03:19.000Z</time>
      </trkpt>
      <trkpt lat="48.97731" lon="0.96928">
        <ele>106.80000305176</ele>
        <time>2014-11-23T11:03:20.000Z</time>
      </trkpt>
      <trkpt lat="48.97728" lon="0.96922">
        <ele>107</ele>
        <time>2014-11-23T11:03:21.000Z</time>
      </trkpt>
      <trkpt lat="48.97725" lon="0.96916">
        <ele>107.40000152588</ele>
        <time>2014-11-23T11:03:22.000Z</time>
      </trkpt>
      <trkpt lat="48.97722" lon="0.96909">
        <ele>107.80000305176</ele>
        <time>2014-11-23T11:03:23.000Z</time>
      </trkpt>
      <trkpt lat="48.97688" lon="0.96851">
        <ele>108.40000152588</ele>
        <time>2014-11-23T11:03:33.000Z</time>
      </trkpt>
      <trkpt lat="48.97686" lon="0.96844">
        <ele>108.19999694824</ele>
        <time>2014-11-23T11:03:34.000Z</time>
      </trkpt>
      <trkpt lat="48.97684" lon="0.96836">
        <ele>107.80000305176</ele>
        <time>2014-11-23T11:03:35.000Z</time>
      </trkpt>
      <trkpt lat="48.97683" lon="0.96828">
        <ele>107.19999694824</ele>
        <time>2014-11-23T11:03:36.000Z</time>
      </trkpt>
      <trkpt lat="48.97682" lon="0.9682">
        <ele>106.59999847412</ele>
        <time>2014-11-23T11:03:37.000Z</time>
      </trkpt>
      <trkpt lat="48.97678" lon="0.96772">
        <ele>104</ele>
        <time>2014-11-23T11:03:43.000Z</time>
      </trkpt>
      <trkpt lat="48.97676" lon="0.96765">
        <ele>104</ele>
        <time>2014-11-23T11:03:44.000Z</time>
      </trkpt>
      <trkpt lat="48.97674" lon="0.96759">
        <ele>104.19999694824</ele>
        <time>2014-11-23T11:03:45.000Z</time>
      </trkpt>
      <trkpt lat="48.97671" lon="0.96753">
        <ele>104.40000152588</ele>
        <time>2014-11-23T11:03:46.000Z</time>
      </trkpt>
      <trkpt lat="48.97669" lon="0.96746">
        <ele>104.40000152588</ele>
        <time>2014-11-23T11:03:47.000Z</time>
      </trkpt>
      <trkpt lat="48.97668" lon="0.9674">
        <ele>104.59999847412</ele>
        <time>2014-11-23T11:03:48.000Z</time>
      </trkpt>
      <trkpt lat="48.97667" lon="0.96734">
        <ele>104.40000152588</ele>
        <time>2014-11-23T11:03:49.000Z</time>
      </trkpt>
      <trkpt lat="48.97667" lon="0.96727">
        <ele>104.19999694824</ele>
        <time>2014-11-23T11:03:50.000Z</time>
      </trkpt>
      <trkpt lat="48.97668" lon="0.96721">
        <ele>103.80000305176</ele>
        <time>2014-11-23T11:03:51.000Z</time>
      </trkpt>
      <trkpt lat="48.9767" lon="0.96715">
        <ele>103</ele>
        <time>2014-11-23T11:03:52.000Z</time>
      </trkpt>
      <trkpt lat="48.97673" lon="0.96709">
        <ele>102.19999694824</ele>
        <time>2014-11-23T11:03:53.000Z</time>
      </trkpt>
      <trkpt lat="48.97675" lon="0.96704">
        <ele>102</ele>
        <time>2014-11-23T11:03:54.000Z</time>
      </trkpt>
      <trkpt lat="48.97679" lon="0.96699">
        <ele>102</ele>
        <time>2014-11-23T11:03:55.000Z</time>
      </trkpt>
      <trkpt lat="48.97682" lon="0.96695">
        <ele>102.19999694824</ele>
        <time>2014-11-23T11:03:56.000Z</time>
      </trkpt>
      <trkpt lat="48.97686" lon="0.96692">
        <ele>102.19999694824</ele>
        <time>2014-11-23T11:03:57.000Z</time>
      </trkpt>
      <trkpt lat="48.97689" lon="0.9669">
        <ele>102.19999694824</ele>
        <time>2014-11-23T11:03:58.000Z</time>
      </trkpt>
      <trkpt lat="48.97693" lon="0.96689">
        <ele>102.19999694824</ele>
        <time>2014-11-23T11:03:59.000Z</time>
      </trkpt>
      <trkpt lat="48.97697" lon="0.9669">
        <ele>102.40000152588</ele>
        <time>2014-11-23T11:04:00.000Z</time>
      </trkpt>
      <trkpt lat="48.977" lon="0.96692">
        <ele>102.19999694824</ele>
        <time>2014-11-23T11:04:01.000Z</time>
      </trkpt>
      <trkpt lat="48.97702" lon="0.96694">
        <ele>102.19999694824</ele>
        <time>2014-11-23T11:04:02.000Z</time>
      </trkpt>
      <trkpt lat="48.97705" lon="0.96698">
        <ele>102.19999694824</ele>
        <time>2014-11-23T11:04:03.000Z</time>
      </trkpt>
      <trkpt lat="48.97708" lon="0.967">
        <ele>102</ele>
        <time>2014-11-23T11:04:04.000Z</time>
      </trkpt>
      <trkpt lat="48.9771" lon="0.96703">
        <ele>102</ele>
        <time>2014-11-23T11:04:05.000Z</time>
      </trkpt>
      <trkpt lat="48.97713" lon="0.96707">
        <ele>101.80000305176</ele>
        <time>2014-11-23T11:04:06.000Z</time>
      </trkpt>
      <trkpt lat="48.97727" lon="0.96717">
        <ele>101.59999847412</ele>
        <time>2014-11-23T11:04:10.000Z</time>
      </trkpt>
      <trkpt lat="48.97731" lon="0.96718">
        <ele>101.80000305176</ele>
        <time>2014-11-23T11:04:11.000Z</time>
      </trkpt>
      <trkpt lat="48.97735" lon="0.96718">
        <ele>101.80000305176</ele>
        <time>2014-11-23T11:04:12.000Z</time>
      </trkpt>
      <trkpt lat="48.97739" lon="0.96717">
        <ele>101.80000305176</ele>
        <time>2014-11-23T11:04:13.000Z</time>
      </trkpt>
      <trkpt lat="48.97743" lon="0.96714">
        <ele>102</ele>
        <time>2014-11-23T11:04:14.000Z</time>
      </trkpt>
      <trkpt lat="48.97746" lon="0.96711">
        <ele>102.19999694824</ele>
        <time>2014-11-23T11:04:15.000Z</time>
      </trkpt>
      <trkpt lat="48.97749" lon="0.96708">
        <ele>102.19999694824</ele>
        <time>2014-11-23T11:04:16.000Z</time>
      </trkpt>
      <trkpt lat="48.97752" lon="0.96705">
        <ele>102.40000152588</ele>
        <time>2014-11-23T11:04:17.000Z</time>
      </trkpt>
      <trkpt lat="48.9777" lon="0.96662">
        <ele>104.19999694824</ele>
        <time>2014-11-23T11:04:29.000Z</time>
      </trkpt>
      <trkpt lat="48.9779" lon="0.966">
        <ele>107</ele>
        <time>2014-11-23T11:04:46.000Z</time>
      </trkpt>
      <trkpt lat="48.97791" lon="0.96554">
        <ele>108.40000152588</ele>
        <time>2014-11-23T11:05:00.000Z</time>
      </trkpt>
      <trkpt lat="48.97747" lon="0.96516">
        <ele>106.40000152588</ele>
        <time>2014-11-23T11:05:15.000Z</time>
      </trkpt>
      <trkpt lat="48.97693" lon="0.96452">
        <ele>106.59999847412</ele>
        <time>2014-11-23T11:05:31.000Z</time>
      </trkpt>
      <trkpt lat="48.9769" lon="0.96448">
        <ele>106.80000305176</ele>
        <time>2014-11-23T11:05:32.000Z</time>
      </trkpt>
      <trkpt lat="48.97683" lon="0.9644">
        <ele>107</ele>
        <time>2014-11-23T11:05:34.000Z</time>
      </trkpt>
      <trkpt lat="48.97631" lon="0.96375">
        <ele>109.59999847412</ele>
        <time>2014-11-23T11:05:49.000Z</time>
      </trkpt>
      <trkpt lat="48.97625" lon="0.96368">
        <ele>110</ele>
        <time>2014-11-23T11:05:51.000Z</time>
      </trkpt>
      <trkpt lat="48.97599" lon="0.96345">
        <ele>110.19999694824</ele>
        <time>2014-11-23T11:06:02.000Z</time>
      </trkpt>
      <trkpt lat="48.97599" lon="0.96342">
        <ele>110.40000152588</ele>
        <time>2014-11-23T11:06:03.000Z</time>
      </trkpt>
      <trkpt lat="48.97602" lon="0.96332">
        <ele>111.80000305176</ele>
        <time>2014-11-23T11:06:12.000Z</time>
      </trkpt>
      <trkpt lat="48.97605" lon="0.96325">
        <ele>112.80000305176</ele>
        <time>2014-11-23T11:06:26.000Z</time>
      </trkpt>
      <trkpt lat="48.97609" lon="0.96317">
        <ele>114.19999694824</ele>
        <time>2014-11-23T11:06:41.000Z</time>
      </trkpt>
      <trkpt lat="48.97611" lon="0.96311">
        <ele>115</ele>
        <time>2014-11-23T11:06:56.000Z</time>
      </trkpt>
      <trkpt lat="48.9763" lon="0.96319">
        <ele>116.59999847412</ele>
        <time>2014-11-23T11:07:09.000Z</time>
      </trkpt>
      <trkpt lat="48.9764" lon="0.96322">
        <ele>117.59999847412</ele>
        <time>2014-11-23T11:07:15.000Z</time>
      </trkpt>
      <trkpt lat="48.97657" lon="0.96328">
        <ele>119.40000152588</ele>
        <time>2014-11-23T11:07:30.000Z</time>
      </trkpt>
      <trkpt lat="48.97669" lon="0.96333">
        <ele>120.40000152588</ele>
        <time>2014-11-23T11:07:43.000Z</time>
      </trkpt>
      <trkpt lat="48.97678" lon="0.96339">
        <ele>120.59999847412</ele>
        <time>2014-11-23T11:07:55.000Z</time>
      </trkpt>
      <trkpt lat="48.97687" lon="0.96348">
        <ele>120.59999847412</ele>
        <time>2014-11-23T11:08:07.000Z</time>
      </trkpt>
      <trkpt lat="48.977" lon="0.96356">
        <ele>121.40000152588</ele>
        <time>2014-11-23T11:08:18.000Z</time>
      </trkpt>
      <trkpt lat="48.9771" lon="0.96366">
        <ele>121.40000152588</ele>
        <time>2014-11-23T11:08:31.000Z</time>
      </trkpt>
      <trkpt lat="48.97716" lon="0.96371">
        <ele>121.59999847412</ele>
        <time>2014-11-23T11:08:37.000Z</time>
      </trkpt>
      <trkpt lat="48.97731" lon="0.96384">
        <ele>122</ele>
        <time>2014-11-23T11:08:52.000Z</time>
      </trkpt>
      <trkpt lat="48.97746" lon="0.96393">
        <ele>123.19999694824</ele>
        <time>2014-11-23T11:09:03.000Z</time>
      </trkpt>
      <trkpt lat="48.97751" lon="0.96392">
        <ele>124.40000152588</ele>
        <time>2014-11-23T11:09:07.000Z</time>
      </trkpt>
      <trkpt lat="48.97753" lon="0.96385">
        <ele>126</ele>
        <time>2014-11-23T11:09:13.000Z</time>
      </trkpt>
      <trkpt lat="48.97752" lon="0.96382">
        <ele>126.59999847412</ele>
        <time>2014-11-23T11:09:16.000Z</time>
      </trkpt>
      <trkpt lat="48.97747" lon="0.9637">
        <ele>127.59999847412</ele>
        <time>2014-11-23T11:09:23.000Z</time>
      </trkpt>
      <trkpt lat="48.97728" lon="0.96343">
        <ele>129</ele>
        <time>2014-11-23T11:09:38.000Z</time>
      </trkpt>
      <trkpt lat="48.97712" lon="0.9631">
        <ele>130.39999389648</ele>
        <time>2014-11-23T11:09:52.000Z</time>
      </trkpt>
      <trkpt lat="48.97704" lon="0.96279">
        <ele>133.39999389648</ele>
        <time>2014-11-23T11:10:06.000Z</time>
      </trkpt>
      <trkpt lat="48.97698" lon="0.96246">
        <ele>137</ele>
        <time>2014-11-23T11:10:21.000Z</time>
      </trkpt>
      <trkpt lat="48.97697" lon="0.96214">
        <ele>139.60000610352</ele>
        <time>2014-11-23T11:10:34.000Z</time>
      </trkpt>
      <trkpt lat="48.97697" lon="0.96209">
        <ele>140</ele>
        <time>2014-11-23T11:10:36.000Z</time>
      </trkpt>
      <trkpt lat="48.97699" lon="0.96195">
        <ele>141</ele>
        <time>2014-11-23T11:10:42.000Z</time>
      </trkpt>
      <trkpt lat="48.97701" lon="0.96186">
        <ele>141.60000610352</ele>
        <time>2014-11-23T11:10:46.000Z</time>
      </trkpt>
      <trkpt lat="48.97703" lon="0.96153">
        <ele>144</ele>
        <time>2014-11-23T11:11:00.000Z</time>
      </trkpt>
      <trkpt lat="48.97702" lon="0.96141">
        <ele>144.39999389648</ele>
        <time>2014-11-23T11:11:05.000Z</time>
      </trkpt>
      <trkpt lat="48.97701" lon="0.96129">
        <ele>144.19999694824</ele>
        <time>2014-11-23T11:11:10.000Z</time>
      </trkpt>
      <trkpt lat="48.97702" lon="0.96091">
        <ele>143.39999389648</ele>
        <time>2014-11-23T11:11:26.000Z</time>
      </trkpt>
      <trkpt lat="48.977" lon="0.9608">
        <ele>143.19999694824</ele>
        <time>2014-11-23T11:11:32.000Z</time>
      </trkpt>
      <trkpt lat="48.97693" lon="0.96063">
        <ele>143</ele>
        <time>2014-11-23T11:11:40.000Z</time>
      </trkpt>
      <trkpt lat="48.97684" lon="0.96053">
        <ele>142.80000305176</ele>
        <time>2014-11-23T11:11:46.000Z</time>
      </trkpt>
      <trkpt lat="48.97663" lon="0.96022">
        <ele>142.19999694824</ele>
        <time>2014-11-23T11:12:03.000Z</time>
      </trkpt>
      <trkpt lat="48.97641" lon="0.95986">
        <ele>141.19999694824</ele>
        <time>2014-11-23T11:12:20.000Z</time>
      </trkpt>
      <trkpt lat="48.97619" lon="0.95951">
        <ele>142.19999694824</ele>
        <time>2014-11-23T11:12:37.000Z</time>
      </trkpt>
      <trkpt lat="48.97601" lon="0.9592">
        <ele>143.80000305176</ele>
        <time>2014-11-23T11:12:53.000Z</time>
      </trkpt>
      <trkpt lat="48.97583" lon="0.9589">
        <ele>146</ele>
        <time>2014-11-23T11:13:10.000Z</time>
      </trkpt>
      <trkpt lat="48.97572" lon="0.95866">
        <ele>146.80000305176</ele>
        <time>2014-11-23T11:13:23.000Z</time>
      </trkpt>
      <trkpt lat="48.97569" lon="0.95861">
        <ele>147.19999694824</ele>
        <time>2014-11-23T11:13:27.000Z</time>
      </trkpt>
      <trkpt lat="48.97556" lon="0.9583">
        <ele>148.39999389648</ele>
        <time>2014-11-23T11:13:43.000Z</time>
      </trkpt>
      <trkpt lat="48.97534" lon="0.95796">
        <ele>149.80000305176</ele>
        <time>2014-11-23T11:13:57.000Z</time>
      </trkpt>
      <trkpt lat="48.97503" lon="0.9573">
        <ele>151</ele>
        <time>2014-11-23T11:14:15.000Z</time>
      </trkpt>
      <trkpt lat="48.97484" lon="0.95664">
        <ele>150.60000610352</ele>
        <time>2014-11-23T11:14:30.000Z</time>
      </trkpt>
      <trkpt lat="48.97461" lon="0.95577">
        <ele>151</ele>
        <time>2014-11-23T11:14:48.000Z</time>
      </trkpt>
      <trkpt lat="48.97442" lon="0.95499">
        <ele>150.19999694824</ele>
        <time>2014-11-23T11:15:03.000Z</time>
      </trkpt>
      <trkpt lat="48.97415" lon="0.95402">
        <ele>150.19999694824</ele>
        <time>2014-11-23T11:15:19.000Z</time>
      </trkpt>
      <trkpt lat="48.9741" lon="0.95391">
        <ele>150.19999694824</ele>
        <time>2014-11-23T11:15:21.000Z</time>
      </trkpt>
      <trkpt lat="48.97407" lon="0.95385">
        <ele>150.19999694824</ele>
        <time>2014-11-23T11:15:22.000Z</time>
      </trkpt>
      <trkpt lat="48.97404" lon="0.9538">
        <ele>150</ele>
        <time>2014-11-23T11:15:23.000Z</time>
      </trkpt>
      <trkpt lat="48.97339" lon="0.95308">
        <ele>148</ele>
        <time>2014-11-23T11:15:39.000Z</time>
      </trkpt>
      <trkpt lat="48.97272" lon="0.95239">
        <ele>147.19999694824</ele>
        <time>2014-11-23T11:15:55.000Z</time>
      </trkpt>
      <trkpt lat="48.97237" lon="0.95199">
        <ele>147</ele>
        <time>2014-11-23T11:16:05.000Z</time>
      </trkpt>
      <trkpt lat="48.97234" lon="0.95194">
        <ele>147</ele>
        <time>2014-11-23T11:16:06.000Z</time>
      </trkpt>
      <trkpt lat="48.97225" lon="0.9518">
        <ele>147</ele>
        <time>2014-11-23T11:16:09.000Z</time>
      </trkpt>
      <trkpt lat="48.97201" lon="0.95127">
        <ele>146.80000305176</ele>
        <time>2014-11-23T11:16:19.000Z</time>
      </trkpt>
      <trkpt lat="48.97199" lon="0.95121">
        <ele>147</ele>
        <time>2014-11-23T11:16:20.000Z</time>
      </trkpt>
      <trkpt lat="48.97175" lon="0.95033">
        <ele>147</ele>
        <time>2014-11-23T11:16:36.000Z</time>
      </trkpt>
      <trkpt lat="48.97171" lon="0.95014">
        <ele>147</ele>
        <time>2014-11-23T11:16:39.000Z</time>
      </trkpt>
      <trkpt lat="48.9717" lon="0.95007">
        <ele>147</ele>
        <time>2014-11-23T11:16:40.000Z</time>
      </trkpt>
      <trkpt lat="48.97167" lon="0.94988">
        <ele>147</ele>
        <time>2014-11-23T11:16:43.000Z</time>
      </trkpt>
      <trkpt lat="48.97163" lon="0.94945">
        <ele>146.19999694824</ele>
        <time>2014-11-23T11:16:50.000Z</time>
      </trkpt>
      <trkpt lat="48.97159" lon="0.94925">
        <ele>145.80000305176</ele>
        <time>2014-11-23T11:16:59.000Z</time>
      </trkpt>
      <trkpt lat="48.97158" lon="0.94925">
        <ele>145.80000305176</ele>
        <time>2014-11-23T11:17:13.000Z</time>
      </trkpt>
    </trkseg>
  </trk>
</gpx>